     2.10           OBSERVATION DATA    G (GPS)             RINEX VERSION / TYPE
teqc 2006Apr5 Bo Madsen 20060516 08:17:32UTC                PGM / RUN BY / DATE
Solaris 5.9|UltraSparc IIi|cc -xarch=v9 SC5.5|=+-|*Sparc    COMMENT
BIT 2 OF LLI FLAGS DATA COLLECTED UNDER A/S CONDITION       COMMENT
SKAG                                                        MARKER NAME
Base                                                        MARKER NUMBER
HAUERBACH GFY                                               OBSERVER / AGENCY
00013705 TRIMBLE 4000SSI NP 7.29 / SP 3.07                  REC # / TYPE / VERS
06159 TRM22020.00+GP                                        ANT # / TYPE
  3356838.2011   626716.0243  5368971.0176                  APPROX POSITION XYZ
        0.0000        0.0000        0.0000                  ANTENNA: DELTA H/E/N
     1     1                                                WAVELENGTH FACT L1/2
     6    L1    L2    C1    P2    P1    D1                  # / TYPES OF OBSERV
SNR is mapped to RINEX snr flag value [1-9]                 COMMENT
L1: 3 -> 1; 8 -> 5; 40 -> 9                                 COMMENT
L2: 1 -> 1; 5 -> 5; 60 -> 9                                 COMMENT
  2006     5     1     0     0    0.0000000     GPS         TIME OF FIRST OBS
                                                            END OF HEADER
 06  5  1  0  0  0.0000000  0  9G 1G30G 9G 4G24G 2G 5G 6G14
  -3033288.38346   -129389.79046  23348239.2104   23348243.7754
      -172.9184
 -10125813.89248  -7758026.28747  20680942.8614   20680946.7784
       -45.5414
  22496859.75646  17664200.28446  23357364.9934   23357370.6804
     -5453.0764
   -193260.21146    -74487.22746  23056228.7934   23056233.2654
     -1573.1384
   9806384.15243   7673193.72245  24643642.9644   24643647.8174
     -3511.1674
  -4547159.75647  -3459798.58346  23209755.7214   23209757.6864
       705.2934
  -4468503.67948  -3346816.86147  20474336.3694   20474340.4654
     -2423.3264
  -3085577.91345  -2279341.41845  23707127.9324   23707132.8094
      1856.4174
   1385685.46846   5148864.48146  22465447.3614   22465450.7594
     -3036.9904
 06  5  1  0  0 15.0000000  0  9G 1G30G 9G 4G24G 2G 5G 6G14
  -3030624.58346   -127314.09446  23348746.1264   23348750.7224
      -182.3064
 -10125074.80948  -7757450.36847  20681083.4864   20681087.2194
       -53.0594
  22578681.83946  17727957.73246  23372935.2404   23372940.5914
     -5456.5734
   -169584.05046    -56038.26846  23060734.2254   23060738.7484
     -1583.7264
   9859112.05343   7714280.40545  24653676.7464   24653681.0734
     -3519.2844
  -4557680.84546  -3467996.83046  23207753.6224   23207756.2124
       697.4684
  -4432094.40248  -3318446.00047  20481264.8274   20481268.9804
     -2431.2844
  -3113400.90845  -2301021.65245  23701833.3814   23701838.9454
      1853.2704
   1431313.61446   5184418.87446  22474130.1324   22474133.5494
     -3046.7954
 06  5  1  0  0 30.0000000  0  9G 1G30G 9G 4G24G 2G 5G 6G14
  -3027819.25846   -125128.10046  23349279.9594   23349284.7404
      -191.6614
 -10124222.47148  -7756786.20147  20681245.6694   20681249.1614
       -60.5234
  22660557.14246  17791756.65046  23388515.6194   23388520.8744
     -5460.0224
   -145748.90446    -37465.41946  23065269.8984   23065274.9954
     -1594.2194
   9911962.33643   7755462.35545  24663733.7634   24663739.0644
     -3527.3414
  -4568083.76346  -3476103.00146  23205773.9884   23205777.4044
       689.6744
  -4395565.38148  -3289981.82647  20488216.0704   20488220.2064
     -2439.1594
  -3141176.31845  -2322664.79845  23696547.8664   23696553.1914
      1850.1884
   1477089.30446   5220088.25446  22482840.9724   22482844.3104
     -3056.5254
 06  5  1  0  0 45.0010000  0  9G 1G30G 9G 4G24G 2G 5G 6G14
  -3024873.38246   -122832.59646  23349840.5294   23349845.3724
      -201.0394
 -10123258.10248  -7756034.74447  20681429.1694   20681432.2124
       -68.0064
  22742489.52946  17855600.04246  23404106.8734   23404112.2354
     -5463.4924
   -121754.66346    -18768.59746  23069835.8224   23069840.0504
     -1604.7294
   9964936.78243   7796741.24045  24673814.4554   24673817.6784
     -3535.4004
  -4578370.18846  -3484118.38446  23203816.5274   23203819.1074
       681.8384
  -4358915.68948  -3261423.62647  20495190.2714   20495194.2454
     -2447.0774
  -3168906.99345  -2344273.08045  23691270.8764   23691276.9744
      1847.0484
   1523013.95846   5255873.70046  22491580.1534   22491583.7434
     -3066.2694
 06  5  1  0  1  0.0010000  0  9G 1G30G 9G 4G24G 2G 5G 6G14
  -3021787.12346   -120427.70646  23350427.8024   23350433.5314
      -210.4114
 -10122181.61048  -7755195.91047  20681634.0074   20681636.9284
       -75.4824
  22824467.97246  17919479.32146  23419706.8924   23419711.8444
     -5466.9214
    -97604.36546        49.82346  23074431.4694   23074435.4154
     -1615.2214
  10018028.28143   7838111.16545  24683917.4564   24683923.8764
     -3543.4074
  -4588538.38146  -3492041.61146  23201881.5744   23201884.1894
       673.9794
  -4322150.23548  -3232775.21647  20502186.4974   20502190.3194
     -2454.9374
  -3196588.99445  -2365843.47846  23686003.1534   23686008.1824
      1843.9234
   1569081.35446   5291770.37346  22500346.4764   22500349.5754
     -3075.9984
 06  5  1  0  1 15.0010000  0  9G 1G30G 9G 4G24G 2G 5G 6G14
  -3018559.94846   -117913.00446  23351041.9144   23351046.3584
      -219.8544
 -10120992.65148  -7754269.45747  20681860.2624   20681863.3124
       -83.0214
  22906497.95046  17983398.78846  23435316.7024   23435321.2084
     -5470.3714
    -73296.21846     18991.23546  23079057.1484   23079061.1134
     -1625.7984
  10071240.18443   7879574.97645  24694043.3564   24694049.1214
     -3551.4824
  -4598588.53846  -3499872.87146  23199969.0694   23199971.5974
       666.0534
  -4285266.48648  -3204034.63747  20509205.2444   20509209.1054
     -2462.8684
  -3224223.72445  -2387376.99045  23680744.4214   23680749.4424
      1840.7344
   1615294.48046   5327780.60646  22509140.5324   22509143.5924
     -3085.7224
 06  5  1  0  1 30.0010000  0  9G 1G30G 9G 4G24G 2G 5G 6G14
  -3015191.33846   -115288.10546  23351682.9094   23351687.9044
      -229.2644
 -10119690.88048  -7753255.08547  20682107.9824   20682111.1094
       -90.5254
  22988579.07246  18047358.08646  23450936.2224   23450941.1894
     -5473.7414
    -48829.91446     38055.89746  23083712.9374   23083717.4784
     -1636.3194
  10124572.70743   7921132.78745  24704192.1774   24704199.4384
     -3559.4724
  -4608520.04147  -3507611.69146  23198079.1614   23198081.7254
       658.1574
  -4248264.20448  -3175201.68647  20516246.5424   20516250.6374
     -2470.7424
  -3251810.72245  -2408873.33745  23675494.7674   23675500.7164
      1837.5824
   1661653.41846   5363904.44646  22517962.3384   22517965.7654
     -3095.4294
 06  5  1  0  1 45.0010000  0  9G 1G30G 9G 4G24G 2G 5G 6G14
  -3011680.78246   -112552.60446  23352350.9104   23352355.2004
      -238.6704
 -10118275.76548  -7752152.39647  20682377.2734   20682380.3034
       -98.0234
  23070711.49546  18111357.34846  23466565.5084   23466570.1974
     -5477.1114
    -24205.16546     57244.03246  23088398.8704   23088403.7804
     -1646.8434
  10178025.80843   7962784.50845  24714364.0414   24714369.9104
     -3567.4204
  -4618332.25646  -3515257.55846  23196211.9594   23196214.6904
       650.2654
  -4211143.11948  -3146276.16147  20523310.4524   20523314.3214
     -2478.6024
  -3279349.44545  -2430332.05446  23670254.2994   23670259.9534
      1834.3954
   1708158.26046   5400141.98546  22526811.9094   22526815.6784
     -3105.0854
 06  5  1  0  2  0.0010000  0  9G 1G30G 9G 4G24G 2G 5G 6G14
  -3008029.57846   -109707.49446  23353045.7004   23353050.9564
      -248.1694
 -10116748.84448  -7750962.58547  20682667.8414   20682670.9144
      -105.5914
  23152893.46546  18175395.24246  23482204.2194   23482208.5824
     -5480.5084
       576.63546     76554.54046  23093114.6964   23093118.7844
     -1657.4144
  10231597.70943   8004528.83745  24724558.5034   24724562.9794
     -3575.4714
  -4628026.30746  -3522811.34946  23194367.2424   23194369.8204
       642.2664
  -4173904.87948  -3117259.35447  20530396.6474   20530400.6194
     -2486.5154
  -3306841.18545  -2451754.14545  23665022.7774   23665028.2294
      1831.1324
   1754807.20346   5436491.79146  22535688.8914   22535692.6184
     -3114.7834
 06  5  1  0  2 15.0010000  0  9G 1G30G 9G 4G24G 2G 5G 6G14
  -3004236.07946   -106751.51946  23353767.5784   23353773.2194
      -257.5724
 -10115108.25548  -7749684.20247  20682980.0424   20682983.5184
      -113.0894
  23235126.23146  18239472.72946  23497852.5904   23497857.0844
     -5483.8054
     25516.84446     95988.46646  23097860.6584   23097864.8164
     -1667.8804
  10285289.68343   8046366.78945  24734775.7554   24734779.9894
     -3583.3984
  -4637600.35246  -3530271.63046  23192545.3404   23192547.7294
       634.3444
  -4136548.04748  -3088150.13247  20537505.4094   20537509.4354
     -2494.3314
  -3334284.14545  -2473138.25445  23659800.5374   23659804.9734
      1827.9814
   1801601.51346   5472954.89446  22544593.5404   22544597.7074
     -3124.3994
 06  5  1  0  2 30.0010000  0  9G 1G30G 9G 4G24G 2G 5G 6G14
  -3000301.92746   -103685.95046  23354516.2214   23354521.0994
      -267.0254
 -10113355.81248  -7748318.66047  20683313.5234   20683317.2704
      -120.6214
  23317407.73446  18303588.16446  23513510.2354   23513515.3564
     -5487.1154
     50613.81246    115544.53146  23102636.4414   23102641.3344
     -1678.4124
  10339099.74043   8088296.66545  24745015.4464   24745020.7524
     -3591.3294
  -4647056.06446  -3537639.68846  23190745.9514   23190748.6264
       626.3704
  -4099074.57948  -3058950.02547  20544636.3644   20544640.2154
     -2502.1734
  -3361679.88145  -2494485.56845  23654587.2664   23654592.2424
      1824.7324
   1848539.26746   5509529.76646  22553525.4974   22553529.0534
     -3134.0194
 06  5  1  0  2 45.0010000  0  9G 1G30G 9G 4G24G 2G 5G 6G14
  -2996225.12146   -100509.19446  23355291.9984   23355297.4634
      -276.5684
 -10111489.68648  -7746864.53747  20683668.6404   20683672.4214
      -128.2334
  23399739.60046  18367742.84746  23529177.4764   23529182.6284
     -5490.5004
     75869.22846    135224.09846  23107442.3584   23107447.2204
     -1689.0164
  10393029.35443   8130319.70745  24755277.9364   24755284.4444
     -3599.2964
  -4656391.10546  -3544913.74446  23188969.5354   23188972.2844
       618.2934
  -4061482.74048  -3029657.68347  20551789.8404   20551793.7054
     -2510.0824
  -3389026.40045  -2515794.52246  23649383.3684   23649388.4704
      1821.4434
   1895622.14346   5546217.71746  22562485.0654   22562488.2144
     -3143.7074
 06  5  1  0  3  0.0010000  0  9G 1G30G 9G 4G24G 2G 5G 6G14
  -2992006.07646    -97221.62646  23356094.8294   23356100.1734
      -286.1154
 -10109510.11848  -7745322.00147  20684045.3484   20684049.0584
      -135.8254
  23482120.87346  18431936.02246  23544854.1224   23544859.0174
     -5493.8104
    101282.51346    155026.68446  23112278.2984   23112283.5074
     -1699.5864
  10447077.68644   8172435.23845  24765563.0824   24765567.8834
     -3607.2324
  -4665605.85046  -3552094.05246  23187215.9824   23187218.6094
       610.2054
  -4023773.17448  -3000273.60947  20558965.7234   20558969.6854
     -2517.9814
  -3416324.10845  -2537065.44546  23644188.7804   23644193.9454
      1818.1124
   1942849.19946   5583018.02546  22571472.0704   22571475.3814
     -3153.3554
 06  5  1  0  3 15.0010000  0  9G 1G30G 9G 4G24G 2G 5G 6G14
  -2987643.63246    -93822.31146  23356924.9524   23356929.6404
      -295.5934
 -10107416.41448  -7743690.53647  20684443.7574   20684447.4144
      -143.3834
  23564551.97146  18496168.03346  23560540.2504   23560545.6404
     -5497.0224
    126854.67146    174953.03146  23117144.5164   23117148.7084
     -1710.1024
  10501245.49244   8214643.89945  24775870.9234   24775877.1764
     -3615.1564
  -4674699.01846  -3559179.62246  23185485.5454   23185488.3444
       602.1724
  -3985945.02148  -2970797.12347  20566164.1684   20566168.2924
     -2525.8084
  -3443571.77345  -2558297.35446  23639003.7064   23639009.0024
      1814.8684
   1990221.12146   5619931.19646  22580486.6424   22580490.0044
     -3162.9284
 06  5  1  0  3 30.0010000  0  9G 1G30G 9G 4G24G 2G 5G 6G14
  -2983138.32146    -90311.67646  23357782.2624   23357786.9644
      -305.0834
 -10105208.73848  -7741970.26247  20684863.8454   20684867.2234
      -150.9224
  23647032.05546  18560438.19546  23576235.6874   23576241.1434
     -5500.2654
    152585.01146    195002.62546  23122040.8324   23122044.3534
     -1720.5894
  10555531.82444   8256944.93245  24786201.2684   24786206.3764
     -3623.0024
  -4683670.96046  -3566170.72846  23183778.1814   23183781.6264
       594.1164
  -3947999.10848  -2941228.88447  20573385.0244   20573389.0804
     -2533.6004
  -3470769.92645  -2579490.67546  23633828.0354   23633833.6154
      1811.6034
   2037736.96146   5656956.51846  22589528.6284   22589531.7984
     -3172.4774
 06  5  1  0  3 45.0010000  0  9G 1G30G 9G 4G24G 2G 5G 6G14
  -2978491.12146    -86690.47146  23358666.5824   23358671.5434
      -314.5764
 -10102888.37048  -7740162.17047  20685305.3724   20685308.6974
      -158.4924
  23729559.96246  18624745.61446  23591940.2454   23591945.3514
     -5503.4754
    178472.46246    215174.68346  23126967.0494   23126971.9734
     -1731.1084
  10609935.35543   8299337.30745  24796553.9424   24796560.4574
     -3630.8424
  -4692522.50146  -3573068.02146  23182093.7474   23182096.0694
       586.0594
  -3909936.60048  -2911569.78147  20580628.0724   20580632.2344
     -2541.4144
  -3497919.37445  -2600646.07646  23628661.6234   23628666.8644
      1808.3054
   2085395.29246   5694092.87846  22598597.7034   22598601.2014
     -3182.0034
 06  5  1  0  4  0.0010000  0  9G 1G30G 9G 4G24G 2G 5G 6G14
  -2973700.77446    -82957.72046  23359578.1474   23359583.1174
      -324.1774
 -10100453.91948  -7738265.19347  20685768.6104   20685771.8104
      -166.1494
  23812136.33646  18689090.81846  23607654.0354   23607659.0394
     -5506.7344
    204517.96846    235469.88446  23131923.3414   23131927.9954
     -1741.6854
  10664456.82844   8341821.51545  24806929.0554   24806934.3784
     -3638.7314
  -4701252.21846  -3579870.37046  23180432.4924   23180434.4694
       577.8764
  -3871756.54448  -2881819.09147  20587893.4974   20587897.5044
     -2549.3004
  -3525018.87245  -2621762.54446  23623504.7364   23623509.7944
      1804.9224
   2133197.12746   5731341.05846  22607694.0854   22607697.9824
     -3191.6224
 06  5  1  0  4 15.0010000  0  9G 1G30G 9G 4G24G 2G 5G 6G14
  -2968768.18946    -79114.12546  23360516.8024   23360521.8764
      -333.5444
 -10097906.45748  -7736280.15647  20686253.3664   20686256.6634
      -173.5434
  23894759.59746  18753472.56646  23623376.7244   23623382.0014
     -5509.7334
    230720.59746    255887.53546  23136909.5454   23136913.7644
     -1752.0414
  10719094.83045   8384396.57245  24817326.3694   24817330.1824
     -3646.3494
  -4709860.86146  -3586578.37746  23178794.2834   23178796.3884
       569.9144
  -3833460.14348  -2851977.73647  20595181.0624   20595185.1224
     -2556.9194
  -3552069.26745  -2642840.75946  23618357.1914   23618361.7374
      1801.7564
   2181141.16446   5768700.03846  22616817.5424   22616821.4954
     -3200.9584
 06  5  1  0  4 30.0010000  0  9G 1G30G 9G 4G24G 2G 5G 6G14
  -2963692.46546    -75158.98046  23361482.6934   23361487.7624
      -343.1704
 -10095245.30948  -7734206.53047  20686759.7634   20686762.9894
      -181.2284
  23977430.46446  18817891.40246  23639108.4804   23639113.5184
     -5512.9814
    257080.88946    276428.02446  23141925.7514   23141929.7724
     -1762.6134
  10773849.88945   8427062.82945  24827745.9274   24827750.9324
     -3654.2444
  -4718347.36846  -3593191.22646  23177179.3234   23177182.3314
       561.6814
  -3795046.73748  -2822045.20847  20602490.8854   20602494.7714
     -2564.7954
  -3579069.66245  -2663880.01646  23613219.1434   23613224.2314
      1798.3554
   2229227.86846   5806170.19246  22625968.1424   22625971.7454
     -3210.5334
 06  5  1  0  4 45.0010000  0  9G 1G30G 9G 4G24G 2G 5G 6G14
  -2958473.04346    -71091.90346  23362475.9344   23362481.2734
      -352.7464
 -10092469.68348  -7732043.70147  20687287.9524   20687291.5244
      -188.8534
  24060148.90746  18882347.30546  23654849.2934   23654854.7834
     -5516.1194
    283599.38346    297091.77946  23146972.0714   23146975.9964
     -1773.1504
  10828722.12344   8469820.36245  24838187.7834   24838194.4444
     -3662.0504
  -4726711.13546  -3599708.42746  23175587.7374   23175590.9774
       553.4984
  -3756516.04148  -2792021.29247  20609823.0244   20609826.7704
     -2572.6114
  -3606019.41945  -2684879.80846  23608090.7484   23608094.9524
      1794.9834
   2277457.27146   5843751.53946  22635145.8954   22635149.6914
     -3220.0464
 06  5  1  0  5  0.0010000  0  9G 1G30G 9G 4G24G 2G 5G 6G14
  -2953109.41446    -66912.43746  23363496.6164   23363501.4334
      -362.4154
 -10089579.27948  -7729791.43447  20687837.9854   20687841.5824
      -196.5524
  24142914.99346  18946840.32946  23670599.1724   23670605.1194
     -5519.3324
    310276.30446    317878.99446  23152048.5074   23152052.6034
     -1783.7834
  10883711.69344   8512669.35945  24848651.9954   24848660.6634
     -3669.8844
  -4734951.39646  -3606129.37846  23174019.6514   23174022.5964
       545.1944
  -3717867.77048  -2761905.75647  20617177.5404   20617181.3154
     -2580.4944
  -3632917.83645  -2705839.58946  23602972.1534   23602976.8664
      1791.4694
   2325829.50746   5881444.18946  22644350.8294   22644354.2114
     -3229.6104
 06  5  1  0  5 15.0010000  0  9G 1G30G 9G 4G24G 2G 5G 6G14
  -2947601.98946    -62620.94646  23364544.6654   23364549.5494
      -371.9754
 -10086574.40348  -7727449.97247  20688409.7954   20688413.3604
      -204.1574
  24225727.90546  19011369.83946  23686357.9694   23686363.4074
     -5522.4264
    337111.10246    338789.24046  23157154.9854   23157158.6804
     -1794.2624
  10938817.70145   8555609.09745  24859138.3594   24859144.5264
     -3677.6244
  -4743068.46646  -3612454.34746  23172475.0104   23172477.9794
       537.0034
  -3679102.65148  -2731699.17347  20624554.3014   20624558.1574
     -2588.2624
  -3659765.35745  -2726759.71246  23597863.2144   23597868.2254
      1788.1174
   2374343.79546   5919247.52046  22653582.7964   22653586.3984
     -3239.0424
 06  5  1  0  5 30.0010000  0  9G 1G30G 9G 4G24G 2G 5G 6G14
  -2941950.69646    -58217.33346  23365620.0824   23365624.7034
      -381.5484
 -10083455.24348  -7725019.46247  20689003.3654   20689006.9504
      -211.7594
  24308587.44146  19075935.70046  23702125.6604   23702131.0724
     -5525.5024
    364103.71546    359822.44946  23162291.4824   23162294.9064
     -1804.7604
  10994039.84545   8598639.38645  24869646.7964   24869652.3674
     -3685.3344
  -4751062.09246  -3618683.13446  23170953.8484   23170956.4094
       528.7984
  -3640220.75648  -2701401.59747  20631953.2834   20631957.3474
     -2596.0084
  -3686561.77945  -2747640.01246  23592764.0004   23592767.5774
      1784.7014
   2422999.88946   5957161.35346  22662841.7404   22662845.7184
     -3248.4484
 06  5  1  0  5 45.0010000  0  9G 1G30G 9G 4G24G 2G 5G 6G14
  -2936154.97746    -53701.18046  23366722.9774   23366728.2074
      -391.1924
 -10080221.27648  -7722499.49147  20689618.7784   20689622.4344
      -219.4254
  24391493.68746  19140537.97146  23717902.2264   23717907.8004
     -5528.6244
    391254.49146    380978.90846  23167458.0964   23167461.5484
     -1815.3384
  11049378.23445   8641760.12745  24880177.3314   24880182.2254
     -3693.0934
  -4758931.62046  -3624815.18746  23169456.2984   23169458.7344
       520.4934
  -3601221.85648  -2671012.84547  20639374.5234   20639378.2824
     -2603.8144
  -3713306.55445  -2768480.08546  23587674.6234   23587678.9574
      1781.2414
   2471797.73246   5995185.64446  22672127.6744   22672131.5894
     -3257.9194
 06  5  1  0  6  0.0010000  0  9G 1G30G 9G 4G24G 2G 5G 6G14
  -2930215.34546    -49072.88746  23367853.2294   23367858.8824
      -400.7804
 -10076872.85748  -7719890.32747  20690255.9714   20690259.9104
      -227.0374
  24474445.50046  19205175.73546  23733687.4354   23733692.9644
     -5531.6284
    418562.82846    402258.12246  23172654.6974   23172659.1794
     -1825.7974
  11104831.87945   8684970.68345  24890729.8534   24890734.7014
     -3700.7584
  -4766677.45546  -3630850.87946  23167982.2724   23167985.2354
       512.2534
  -3562106.77348  -2640533.56147  20646817.8724   20646821.6744
     -2611.5574
  -3740000.10345  -2789280.22946  23582594.9944   23582599.4594
      1777.8604
   2520736.60646   6033319.83146  22681440.4294   22681443.9724
     -3267.2854
 06  5  1  0  6 15.0010000  0  9G 1G30G 9G 4G24G 2G 5G 6G14
  -2924131.27546    -44332.03046  23369010.9644   23369016.2284
      -410.3794
 -10073409.70148  -7717191.75947  20690914.9934   20690919.1364
      -234.6694
  24557442.87846  19269848.98646  23749481.3294   23749487.3524
     -5534.6354
    446028.84946    423660.21546  23177881.3244   23177884.3424
     -1836.3064
  11160400.87145   8728271.22245  24901304.3074   24901310.2414
     -3708.4224
  -4774298.89846  -3636789.67446  23166531.9424   23166535.1114
       503.9784
  -3522875.18948  -2609963.49947  20654283.3864   20654287.6584
     -2619.2864
  -3766641.89045  -2810040.04446  23577525.2344   23577530.0374
      1774.4264
   2569816.59346   6071563.97746  22690780.0454   22690783.5314
     -3276.6674
 06  5  1  0  6 30.0010000  0  9G 1G30G 9G 4G24G 2G 5G 6G14
  -2917902.74046    -39478.61646  23370196.2004   23370200.8754
      -420.1084
 -10069831.83848  -7714403.80447  20691595.8244   20691599.6674
      -242.4184
  24640485.45046  19334557.43746  23765283.8144   23765289.2064
     -5537.7204
    473652.70246    445185.32146  23183137.9674   23183141.1004
     -1846.8914
  11216084.81645   8771661.30745  24911900.6014   24911909.0754
     -3716.1434
  -4781795.80446  -3642631.38946  23165105.3154   23165108.7344
       495.5724
  -3483527.35148  -2579302.84647  20661771.0294   20661775.4724
     -2627.1144
  -3793231.78445  -2830759.43746  23572465.3324   23572470.5364
      1770.8784
   2619037.31646   6109917.77646  22700146.4464   22700149.9894
     -3286.1254
 06  5  1  0  6 45.0010000  0  9G 1G30G 9G 4G24G 2G 5G 6G14
  -2911527.61446    -34510.98746  23371409.3384   23371413.6544
      -429.9194
 -10066137.07948  -7711524.77047  20692298.8944   20692302.5254
      -250.2454
  24723575.05246  19399302.56546  23781095.2604   23781100.3294
     -5540.8954
    501436.13146    466834.72046  23188424.9724   23188428.8764
     -1857.5764
  11271885.48144   8815142.33645  24922519.1164   24922528.0964
     -3723.9564
  -4789165.69946  -3648374.15546  23163702.8644   23163705.5684
       487.0674
  -3444061.40748  -2548550.16347  20669281.1444   20669285.6344
     -2635.0094
  -3819767.67845  -2851436.69646  23567415.6924   23567420.8044
      1767.2164
   2668400.68446   6148382.74546  22709540.0014   22709544.3494
     -3295.6564
 06  5  1  0  7  0.0010000  0  9G 1G30G 9G 4G24G 2G 5G 6G14
  -2905007.13046    -29430.09046  23372650.1454   23372654.9754
      -439.5324
 -10062326.81348  -7708555.72947  20693023.9464   20693027.3284
      -257.8394
  24806709.98046  19464082.99846  23796915.3534   23796920.4554
     -5543.8124
    529377.79146    488607.46646  23193742.0554   23193746.7784
     -1868.0164
  11327801.13945   8858712.91245  24933159.5874   24933165.4364
     -3731.5264
  -4796409.81146  -3654018.90046  23162324.3424   23162327.1064
       478.7524
  -3404478.87648  -2517706.63647  20676813.4434   20676817.8154
     -2642.7104
  -3846250.59045  -2872072.73846  23562376.1534   23562381.1784
      1763.7794
   2717904.67646   6186957.27346  22718960.3184   22718963.5354
     -3304.9194
 06  5  1  0  7 15.0010000  0  9G 1G30G 9G 4G24G 2G 5G 6G14
  -2898342.48146    -24236.85246  23373918.3814   23373923.1944
      -449.1454
 -10058402.25348  -7705497.62847  20693770.7524   20693773.9604
      -265.4874
  24889888.65246  19528897.56746  23812743.7774   23812748.4814
     -5546.7204
    557476.24846    510502.35646  23199088.9864   23199093.7564
     -1878.4914
  11383830.20545   8902371.91645  24943821.5834   24943828.1154
     -3739.0534
  -4803529.18946  -3659566.44346  23160969.5494   23160972.1624
       470.4354
  -3364781.13148  -2486773.32347  20684367.6574   20684371.9864
     -2650.3714
  -3872681.79645  -2892668.45746  23557346.4304   23557352.1974
      1760.3064
   2767547.75246   6225640.17846  22728407.0814   22728410.1684
     -3314.1934
 06  5  1  0  7 30.0010000  0  9G 1G30G 9G 4G24G 2G 5G 6G14
  -2891532.28946    -18930.19446  23375214.3144   23375219.2844
      -458.8314
 -10054361.96448  -7702349.34447  20694539.5924   20694542.9554
      -273.1724
  24973111.85446  19593746.79546  23828580.6464   23828586.2024
     -5549.6494
    585732.83346    532520.50546  23204466.0354   23204470.9334
     -1888.9734
  11439973.68645   8946120.04945  24954505.3184   24954509.6064
     -3746.6514
  -4810522.19446  -3665015.53646  23159638.8224   23159641.7914
       462.0084
  -3324967.07348  -2455749.38747  20691944.0104   20691948.3154
     -2658.1084
  -3899059.75145  -2913222.67646  23552326.8604   23552331.7384
      1756.7874
   2817330.97446   6264432.30546  22737880.5234   22737883.6494
     -3323.5124
 06  5  1  0  7 45.0010000  0  9G 1G30G 9G 4G24G 2G 5G 6G14
  -2884577.24246    -13510.67646  23376537.8014   23376542.6524
      -468.4354
 -10050206.78848  -7699111.54347  20695330.2984   20695333.6344
      -280.7724
  25056378.55146  19658629.90146  23844425.7754   23844431.3624
     -5552.4924
    614146.61646    554661.10446  23209873.0084   23209877.5724
     -1899.4134
  11496230.53145   8989956.50645  24965210.6324   24965214.2344
     -3754.1624
  -4817389.39946  -3670366.59246  23158332.0284   23158334.5254
       453.6754
  -3285037.57848  -2424635.49647  20699542.3364   20699546.8154
     -2665.7384
  -3925384.95045  -2933735.79946  23547317.3394   23547322.6494
      1753.3194
   2867253.25946   6303332.76546  22747380.4204   22747383.9664
     -3332.6994
 06  5  1  0  8  0.0010000  0  9G 1G30G 9G 4G24G 2G 5G 6G14
  -2877475.87246     -7977.12646  23377889.1154   23377893.9824
      -478.3214
 -10045935.11548  -7695782.96847  20696143.1754   20696146.2474
      -288.6514
  25139689.82946  19723547.74646  23860279.3764   23860285.1344
     -5555.5754
    642718.81946    576925.14646  23215310.1264   23215314.6574
     -1910.1194
  11552601.62645   9033882.02345  24975937.7094   24975941.8744
     -3761.8834
  -4824129.27546  -3675618.42346  23157049.4624   23157051.5124
       445.0594
  -3244991.48848  -2393430.74447  20707162.8504   20707167.2814
     -2673.6474
  -3951655.99546  -2954206.73446  23542318.1394   23542322.8324
      1749.5664
   2917315.56446   6342342.34346  22756906.9714   22756910.3494
     -3342.1954
 06  5  1  0  8 15.0010000  0  9G 1G30G 9G 4G24G 2G 5G 6G14
  -2870227.42246     -2328.97146  23379268.4354   23379273.9274
      -487.9914
 -10041546.60848  -7692363.34547  20696978.2864   20696981.6284
      -296.3324
  25223045.85546  19788500.44846  23876141.5204   23876147.3334
     -5558.4194
    671450.03246    599313.12546  23220777.4824   23220782.9594
     -1920.5614
  11609087.24645   9077896.82545  24986686.5554   24986692.5864
     -3769.3834
  -4830740.89146  -3680770.31046  23155791.2904   23155793.4734
       436.6204
  -3204828.40048  -2362134.83647  20714805.6454   20714810.2114
     -2681.3054
  -3977872.04445  -2974634.79946  23537329.3914   23537333.8454
      1746.0314
   2967518.43846   6381461.47646  22766460.2624   22766463.9244
     -3351.4034
 06  5  1  0  8 30.0010000  0  9G 1G30G 9G 4G24G 2G 5G 6G14
  -2862834.19546      3431.99446  23380675.3164   23380680.2434
      -497.7354
 -10037043.24648  -7688854.23447  20697835.2654   20697838.7174
      -304.0904
  25306444.22446  19853486.19046  23892011.7044   23892017.4394
     -5561.3074
    700337.81746    621823.10746  23226274.6134   23226279.1454
     -1931.0994
  11665684.90645   9121998.81945  24997456.7524   24997462.3204
     -3776.9234
  -4837226.39246  -3685823.93446  23154557.1174   23154559.1144
       428.1304
  -3164550.73148  -2330749.63847  20722470.2424   20722474.8514
     -2689.0224
  -4004035.44345  -2995021.83346  23532350.6384   23532354.9944
      1742.4244
   3017859.16246   6420687.99146  22776039.7644   22776042.8934
     -3360.6624
 06  5  1  0  8 45.0010000  0  9G 1G30G 9G 4G24G 2G 5G 6G14
  -2855295.37346      9306.42046  23382109.9014   23382114.8764
      -507.4804
 -10032424.25148  -7685255.00947  20698714.2474   20698718.1304
      -311.8094
  25389885.21046  19918505.14146  23907890.0114   23907895.1604
     -5564.1664
    729382.81646    644455.56046  23231801.6744   23231806.1254
     -1941.6044
  11722394.88545   9166188.41445  25008248.3164   25008256.1394
     -3784.4354
  -4843584.73146  -3690778.46946  23153347.1534   23153349.1864
       419.6184
  -3124157.95548  -2299274.74747  20730156.7404   20730161.3684
     -2696.7254
  -4030145.07545  -3015367.00646  23527382.1384   23527386.7824
      1738.8124
   3068338.00046   6460022.12946  22785645.5594   22785649.8114
     -3369.8974
 06  5  1  0  9  0.0010000  0  9G 1G30G 9G 4G24G 2G 5G 6G14
  -2847610.48446     15294.64146  23383572.2814   23383577.1014
      -517.2744
 -10027689.45748  -7681565.55747  20699615.2654   20699619.4954
      -319.5994
  25473368.73846  19983557.20546  23923776.4194   23923781.8544
     -5567.0684
    758585.27246    667210.71446  23237358.7214   23237362.8004
     -1952.1654
  11779217.23645   9210465.55645  25019061.2784   25019065.6864
     -3791.9714
  -4849815.38446  -3695633.50946  23152161.4884   23152163.8104
       411.0184
  -3083649.84948  -2267709.99147  20737865.1794   20737869.9264
     -2704.4634
  -4056200.42045  -3035669.84746  23522423.9644   23522427.7864
      1735.1354
   3118955.09746   6499463.99746  22795277.6744   22795281.3894
     -3379.1604
 06  5  1  0  9 15.0010000  0  9G 1G30G 9G 4G24G 2G 5G 6G14
  -2839779.78046     21396.49246  23385062.4114   23385066.7714
      -526.9774
 -10022838.94648  -7677785.92947  20700538.2884   20700542.7784
      -327.2874
  25556894.13946  20048641.93446  23939670.7534   23939676.8144
     -5569.8164
    787944.80746    690088.27646  23242945.6684   23242949.7284
     -1962.6004
  11836151.29545   9254829.71645  25029895.5174   25029900.8134
     -3799.3824
  -4855918.36546  -3700389.05446  23151000.1374   23151002.3634
       402.5584
  -3043026.98048  -2236055.80147  20745595.4454   20745599.7574
     -2712.0844
  -4082201.79146  -3055930.64046  23517476.0704   23517481.6034
      1731.5654
   3169709.78046   6539013.09346  22804935.9644   22804939.8104
     -3388.2894
 06  5  1  0  9 30.0010000  0  9G 1G30G 9G 4G24G 2G 5G 6G14
  -2831803.61146     27611.69246  23386580.2244   23386584.9994
      -536.5474
 -10017873.19448  -7673916.50147  20701483.2364   20701487.8934
      -334.8224
  25640460.69246  20113758.71746  23955572.9654   23955579.0024
     -5572.4074
    817460.77946    713087.76446  23248562.3494   23248566.9354
     -1972.8674
  11893196.36045   9299280.37845  25040750.8714   25040757.9164
     -3806.6414
  -4861893.96446  -3705045.34646  23149863.0284   23149865.3344
       394.1814
  -3002289.83748  -2204312.56947  20753347.4504   20753351.6714
     -2719.5654
  -4108149.36945  -3076149.51146  23512538.3954   23512543.2774
      1728.0994
   3220601.33346   6578668.82046  22814620.3134   22814623.8904
     -3397.2724
 06  5  1  0  9 45.0010000  0  9G 1G30G 9G 4G24G 2G 5G 6G14
  -2823680.36646     33941.50246  23388126.0184   23388131.2454
      -546.5584
 -10012790.66648  -7669956.08447  20702450.4054   20702454.7254
      -342.8364
  25724069.54846  20178908.46046  23971483.2004   23971488.6974
     -5575.4224
    847134.79846    736210.38146  23254209.1294   23254214.5894
     -1983.6204
  11950353.59845   9343818.43145  25051627.5344   25051632.6964
     -3814.3204
  -4867740.29347  -3709600.91046  23148750.5194   23148752.3164
       385.3414
  -2961437.05448  -2172479.23647  20761121.4624   20761125.7104
     -2727.4734
  -4134041.49545  -3096325.16246  23507611.2804   23507616.3494
      1724.1934
   3271630.99546   6618432.16846  22824330.9304   22824334.2744
     -3406.6784
 06  5  1  0 10  0.0010000  0  9G 1G30G 9G 4G24G 2G 5G 6G14
  -2815410.10746     40385.86746  23389699.8014   23389705.2534
      -556.3574
 -10007591.22648  -7665904.56247  20703439.8074   20703443.6024
      -350.6224
  25807720.23946  20244090.78146  23987401.4064   23987406.6114
     -5578.2034
    876966.54346    759455.90046  23259885.9184   23259890.2484
     -1994.1344
  12007622.46645   9388443.52545  25062525.4594   25062532.4974
     -3821.7394
  -4873457.29147  -3714055.69246  23147662.6144   23147664.8634
       376.7134
  -2920469.02448  -2140556.09747  20768917.4054   20768921.7454
     -2735.1474
  -4159878.14346  -3116457.60246  23502694.7054   23502699.8094
      1720.4644
   3322798.22946   6658302.74246  22834067.7494   22834071.3264
     -3415.8284
 06  5  1  0 10 15.0010000  0  9G 1G30G 9G 4G24G 2G 5G 6G14
  -2806991.99246     46945.44646  23391301.7164   23391306.2284
      -566.0194
 -10002274.34248  -7661761.52547  20704451.5504   20704455.1244
      -358.2454
  25891413.14446  20309306.01446  24003327.6764   24003333.3014
     -5580.7964
    906956.70246    782824.85546  23265592.8594   23265597.3194
     -2004.5324
  12065003.42545   9433155.92545  25073444.7174   25073450.8854
     -3828.9994
  -4879044.02847  -3718408.95746  23146599.5054   23146601.4724
       368.2194
  -2879385.10648  -2108542.65247  20776735.4064   20776740.0234
     -2742.6654
  -4185658.41346  -3136546.10946  23497788.8734   23497793.7794
      1716.9284
   3374103.39046   6698280.77946  22843830.8354   22843833.7014
     -3424.8154
 06  5  1  0 10 30.0010000  0  9G 1G30G 9G 4G24G 2G 5G 6G14
  -2798427.42046     53619.14046  23392931.5094   23392936.5604
      -575.7794
  -9996841.31348  -7657527.98847  20705485.3854   20705488.6974
      -366.0144
  25975146.43046  20374552.70946  24019261.6204   24019266.3314
     -5583.4834
    937103.64846    806315.98946  23271329.6264   23271333.7304
     -2014.9664
  12122494.63545   9477954.25845  25084384.9754   25084390.8264
     -3836.3374
  -4884501.66547  -3722661.65846  23145560.9424   23145563.0314
       359.6014
  -2838186.92948  -2076440.17847  20784575.1554   20784579.9214
     -2750.2744
  -4211383.55246  -3156591.65646  23492893.5284   23492899.3244
      1713.2424
   3425544.76946   6738364.97046  22853619.8134   22853623.3914
     -3433.8724
 06  5  1  0 10 45.0010000  0  9G 1G30G 9G 4G25G 2G 5G 6G14
  -2789716.61946     60406.77446  23394589.1384   23394593.7724
      -585.6904
  -9991292.51048  -7653204.23947  20706541.2614   20706544.3654
      -373.8594
  26058919.40246  20439830.32246  24035203.1054   24035209.0324
     -5586.2644
    967406.82546    829928.84146  23277096.1434   23277100.5594
     -2025.5094
                                  24960589.0534
      1601.6474
  -4889830.26147  -3726813.80146  23144546.9294   23144548.8544
       350.8474
  -2796875.02648  -2044249.09247  20792436.5504   20792440.9334
     -2758.0074
  -4237053.74045  -3176594.37346  23488008.6364   23488014.4644
      1709.4714
   3477121.74146   6778554.79046  22863434.6164   22863438.5524
     -3443.0724
 06  5  1  0 11  0.0010000  0  9G 1G30G 9G 4G25G 2G 5G 6G14
  -2780857.80046     67309.75446  23396274.9194   23396279.7054
      -595.3084
  -9985626.25648  -7648788.97847  20707619.4864   20707622.2004
      -381.4494
  26142733.53346  20505140.01646  24051152.4234   24051158.5524
     -5588.7674
    997867.95646    853664.77846  23282892.7164   23282896.2954
     -2035.8184
    -17598.68645                  24956020.4394
      1599.1854
  -4895028.00647  -3730863.97246  23143557.8184   23143560.0494
       342.3644
  -2755447.84148  -2011968.16847  20800319.8924   20800324.6954
     -2765.4344
  -4262667.10446  -3196552.82846  23483134.5604   23483140.1804
      1705.8444
   3528835.73946   6818851.41146  22873275.4904   22873279.2694
     -3451.9354
 06  5  1  0 11 15.0010000  0  9G 1G30G 9G 4G25G 2G 5G 6G14
  -2771852.06846     74327.21546  23397988.6474   23397993.6244
      -605.2114
  -9979843.51348  -7644282.94447  20708719.9074   20708722.7664
      -389.3394
  26226587.30446  20570480.57446  24067109.2774   24067115.5654
     -5591.4984
   1028485.74646    877522.80346  23288719.0794   23288723.0124
     -2046.3374
    -41564.46545                  24951459.7934
      1596.4634
  -4900095.86747  -3734812.94246  23142593.4434   23142595.9814
       333.5804
  -2713906.70248  -1979598.45047  20808224.9224   20808229.7134
     -2773.1494
  -4288224.62746  -3216467.76046  23478271.1204   23478275.7274
      1702.0254
   3580685.13146   6859253.52146  22883142.1214   22883145.9634
     -3461.0754
 06  5  1  0 11 30.0010000  0  9G 1G30G 9G 4G25G 2G 5G 6G14
  -2762699.10846     81459.40646  23399730.4024   23399735.1764
      -615.2094
  -9973944.09948  -7639686.00647  20709842.5414   20709845.4104
      -397.2984
  26310480.54846  20635851.90646  24083073.6724   24083079.6374
     -5594.3064
   1059260.43546    901503.08746  23294575.3034   23294579.9064
     -2056.9974
    -65490.59345                  24946906.7234
      1593.6484
  -4905033.22847  -3738660.22246  23141653.8964   23141655.8914
       324.6874
  -2672251.56648  -1947139.91147  20816151.6454   20816156.3514
     -2780.9244
  -4313726.16545  -3236339.06146  23473418.2994   23473422.5544
      1698.1024
   3632669.77146   6899761.00846  22893034.5054   22893038.0644
     -3470.2504
 06  5  1  0 11 45.0010000  0  9G 1G30G 9G 4G25G 2G 5G 6G14
  -2753398.33346     88706.76746  23401500.2704   23401505.7394
      -624.8564
  -9967927.51348  -7634997.75347  20710987.4684   20710990.3924
      -404.8834
  26394413.42946  20701254.12046  24099045.6244   24099050.5964
     -5596.7244
   1090192.30246    925605.83946  23300461.4284   23300465.9984
     -2067.2344
    -89376.42645                  24942361.4014
      1591.1664
  -4909839.34047  -3742405.23946  23140739.3324   23140741.2114
       316.1574
  -2630482.05348  -1914592.23947  20824100.1304   20824104.6964
     -2788.3184
  -4339170.76046  -3256166.00146  23468576.3214   23468580.9614
      1694.5304
   3684789.89646   6940374.09546  22902952.6444   22902956.2744
     -3479.0574
 06  5  1  0 12  0.0010000  0  9G 1G30G 9G 4G25G 2G 5G 6G14
  -2743950.30846     96068.88346  23403298.1504   23403303.2424
      -634.8644
  -9961794.22548  -7630218.55947  20712154.6064   20712157.6944
      -412.8504
  26478385.04846  20766686.54446  24115024.9154   24115029.7084
     -5599.4814
   1121280.63746    949830.51846  23306377.3484   23306380.8054
     -2077.8434
   -113222.42645    -14861.11745  24937823.6444   24937829.2684
      1588.3214
  -4914514.74947  -3746048.40246  23139849.6584   23139851.2834
       307.2444
  -2588599.03548  -1881956.12447  20832070.2174   20832074.6654
     -2796.0614
  -4364558.91246  -3275948.95446  23463745.0954   23463749.5704
      1690.5664
   3737044.60446   6981092.03146  22912896.3904   22912899.7554
     -3488.2144
 06  5  1  0 12 15.0010000  0  9G 1G30G 9G 4G25G 2G 5G 6G14
  -2734355.34546    103545.49046  23405123.9934   23405129.0884
      -644.7044
  -9955544.55548  -7625348.68647  20713343.8914   20713347.1824
      -420.6664
  26562394.57246  20832148.47446  24131011.4064   24131016.4114
     -5602.0394
   1152525.02546    974176.78546  23312322.9694   23312326.5594
     -2088.3044
   -137028.69045    -33411.41645  24933293.4374   24933298.0814
      1585.6364
  -4919059.49247  -3749589.74046  23138984.8364   23138986.2134
       298.4894
  -2546602.94748  -1849231.90947  20840061.8184   20840066.0564
     -2803.6414
  -4389890.85746  -3295688.11946  23458924.5944   23458929.5964
      1686.8184
   3789433.22746   7021914.30746  22922865.6234   22922870.0674
     -3497.1704
 06  5  1  0 12 30.0010000  0  9G 1G30G 9G 4G25G 2G 5G 6G14
  -2724610.30846    111139.02246  23406978.4114   23406983.4264
      -654.6524
  -9949175.36048  -7620385.67347  20714555.9234   20714559.4214
      -428.5764
  26646444.93846  20897642.24446  24147005.6444   24147010.9714
     -5604.6904
   1183928.24146    998646.82446  23318298.8094   23318302.9174
     -2098.8114
   -160792.07745    -51928.31345  24928771.3814   24928776.6214
      1582.7894
  -4923470.29147  -3753026.73046  23138145.5034   23138147.2534
       289.6124
  -2504490.91248  -1816417.33947  20848075.4844   20848079.6404
     -2811.3084
  -4415163.38446  -3315380.97546  23454115.3834   23454120.1434
      1682.8824
   3841958.43346   7062843.06046  22932860.8574   22932865.0044
     -3506.2104
 06  5  1  0 12 45.0010000  0  9G 1G30G 9G 4G25G 2G 5G 6G14
  -2714718.57246    118846.87446  23408860.7404   23408865.6534
      -664.5254
  -9942690.09848  -7615332.21847  20715790.0344   20715793.7204
      -436.3984
  26730532.31146  20963164.85846  24163006.9544   24163011.5594
     -5607.2374
   1215486.84846   1023237.96046  23324304.2264   23324308.8044
     -2109.2624
   -184515.83545    -70414.30345  24924256.8464   24924261.2584
      1580.0864
  -4927750.45147  -3756361.91446  23137331.0124   23137333.0234
       280.7964
  -2462266.63148  -1783515.30047  20856110.5024   20856114.7394
     -2818.8744
  -4440379.98846  -3335030.26246  23449316.8294   23449322.1284
      1679.0394
   3894616.42146   7103875.26146  22942881.3474   22942885.3634
     -3515.1324
 06  5  1  0 13  0.0010000  0  9G 1G30G 9G 4G25G 2G 5G 6G14
  -2704678.62646    126670.20946  23410771.2564   23410775.9564
      -674.3124
  -9936087.39248  -7610187.24847  20717046.4904   20717050.6734
      -444.1284
  26814657.71346  21028717.11346  24179015.5184   24179020.2674
     -5609.6444
   1247202.04846   1047951.10346  23330339.4404   23330343.4614
     -2119.5924
   -208198.27245    -88868.11245  24919750.1794   24919753.5414
      1577.4064
  -4931898.21946  -3759593.92246  23136541.7134   23136543.8574
       272.0664
  -2419928.79048  -1750524.77347  20864167.1344   20864171.6724
     -2826.3384
  -4465538.66846  -3354634.40546  23444529.3024   23444533.3754
      1675.3064
   3947408.25246   7145011.72946  22952927.2864   22952931.0224
     -3523.9354
 06  5  1  0 13 15.0010000  0  9G 1G30G 9G 4G25G 2G 5G 6G14
  -2694492.84146    134607.20346  23412709.5214   23412714.2824
      -684.0184
  -9929369.72548  -7604952.69747  20718324.8184   20718329.1574
      -451.8114
  26898818.30646  21094296.76646  24195030.7804   24195034.4134
     -5611.9834
   1279071.37746   1072784.35846  23336403.9814   23336407.9104
     -2129.8594
   -231841.78145   -107291.60745  24915250.9354   24915254.9594
      1574.8124
  -4935915.85346  -3762724.53446  23135777.1624   23135779.4864
       263.3894
  -2377479.99348  -1717447.78747  20872244.8754   20872249.3064
     -2833.7244
  -4490641.96346  -3374195.39646  23439752.2844   23439757.3224
      1671.5804
   4000331.29746   7186250.44446  22962998.1984   22963001.2024
     -3532.6744
 06  5  1  0 13 30.0010000  0  9G 1G30G 9G 4G25G 2G 5G 6G14
  -2684159.35646    142659.27046  23414675.9014   23414680.6834
      -693.8844
  -9922534.95348  -7599626.89347  20719625.4194   20719629.5424
      -459.5764
  26983015.82646  21159905.20246  24211053.0674   24211057.6164
     -5614.4294
   1311096.48746   1097738.97446  23342498.1674   23342502.0454
     -2140.2514
   -255444.25745   -125683.08745  24910759.5154   24910761.8864
      1572.0664
  -4939801.27947  -3765752.12146  23135037.7624   23135040.2454
       254.5774
  -2334918.62248  -1684283.08247  20880344.0374   20880348.1514
     -2841.2254
  -4515687.92145  -3393711.70946  23434986.1614   23434990.9594
      1667.7264
   4053386.92446   7227592.49446  22973094.3504   22973098.6554
     -3541.4984
 06  5  1  0 13 45.0010000  0  9G 1G30G 9G 4G25G 2G 5G 6G14
  -2673677.72446    150826.77646  23416670.4924   23416675.2674
      -703.6774
  -9915582.93248  -7594209.72847  20720948.3304   20720952.5004
      -467.3554
  27067250.14246  21225542.29945  24227082.3314   24227087.3554
     -5616.7924
   1343277.68246   1122815.24446  23348622.0444   23348626.3004
     -2150.5804
   -279005.10945   -144042.17745  24906276.0184   24906280.3504
      1569.3754
  -4943553.96847  -3768676.28646  23134323.6174   23134326.1904
       245.7844
  -2292244.44148  -1651030.47347  20888464.6684   20888468.5934
     -2848.6644
  -4540675.91246  -3413182.84846  23430231.0784   23430236.8284
      1663.9744
   4106575.03946   7269037.74646  22983215.7284   22983219.9284
     -3550.2664
 06  5  1  0 14  0.0010000  0  9G 1G30G 9G 4G25G 2G 5G 6G14
  -2663046.28646    159111.01346  23418693.5984   23418698.8264
      -713.7424
  -9908511.77548  -7588699.73047  20722293.9144   20722297.8484
      -475.3424
  27151522.39946  21291208.96546  24243118.8334   24243123.1974
     -5619.3854
   1375616.39646   1148014.23946  23354775.8874   23354780.8424
     -2161.1484
   -302522.66545   -162367.51645  24901800.7364   24901806.1084
      1566.4094
  -4947172.09246  -3771495.59346  23133635.0864   23133637.6084
       236.7374
  -2249456.06348  -1617688.88247  20896607.0324   20896611.0234
     -2856.3424
  -4565604.14346  -3432607.43146  23425487.3704   23425492.7894
      1659.9274
   4159897.12646   7310587.41346  22993362.5914   22993365.9254
     -3559.2364
 06  5  1  0 14 15.0010000  0  9G 1G30G 9G 4G25G 2G 5G 6G14
  -2652264.93946    167512.05646  23420745.2334   23420750.7824
      -723.7084
  -9901321.66648  -7583097.04547  20723662.1314   20723665.6804
      -483.2674
  27235832.46946  21356905.11445  24259162.5104   24259166.7634
     -5621.8684
   1408112.55546   1173335.91646  23360959.6864   23360964.7414
     -2171.6074
   -325996.64345   -180658.91145  24897333.7644   24897339.9734
      1563.5384
  -4950655.38947  -3774209.85046  23132972.2294   23132975.0894
       227.7694
  -2206553.56348  -1584258.36847  20904771.1204   20904775.4744
     -2863.9044
  -4590472.41146  -3451985.25846  23420755.0604   23420760.6224
      1655.9394
   4213352.84246   7352241.21046  23003534.8834   23003538.6034
     -3568.1094
 06  5  1  0 14 30.0010000  0  9G 1G30G 9G 4G25G 2G 5G 6G14
  -2641335.38946    176028.59446  23422825.0714   23422829.9684
      -733.5894
  -9894014.10048  -7577402.83847  20725052.7034   20725056.2344
      -491.1024
  27320178.11345  21422628.96846  24275212.9404   24275217.0904
     -5624.2274
   1440764.31146   1198778.85246  23367173.0954   23367177.5984
     -2181.9854
   -349428.54145   -198917.48545  24892874.8084   24892879.4874
      1560.7034
  -4954005.30047  -3776820.16946  23132334.7464   23132336.8374
       218.8654
  -2163538.86748  -1550740.42547  20912956.5664   20912960.6084
     -2871.4084
  -4615282.38546  -3471317.70646  23416033.8684   23416038.6464
      1652.0544
   4266940.12346   7393997.52346  23013732.2144   23013736.2344
     -3576.8684
 06  5  1  0 14 45.0010000  0  9G 1G30G 9G 4G25G 2G 5G 6G14
  -2630256.27146    184661.68246  23424933.3654   23424937.8434
      -743.6794
  -9886587.74648  -7571616.06347  20726465.8854   20726468.8434
      -499.1334
  27404560.42345  21488381.37545  24291270.3624   24291275.0044
     -5626.7794
   1473572.73146   1224343.84646  23373416.3254   23373420.8824
     -2192.5124
   -372816.87345   -217142.12545  24888424.1474   24888428.6174
      1557.7064
  -4957220.31347  -3779325.37646  23131722.9324   23131725.3224
       209.7534
  -2120410.86348  -1517134.19247  20921163.5754   20921167.8394
     -2879.0494
  -4640032.51146  -3490603.49346  23411324.0784   23411328.3674
      1647.9384
   4320659.76346   7435856.96946  23023954.7384   23023958.5054
     -3585.8064
 06  5  1  0 15  0.0010000  0  9G 1G30G 9G 4G25G 2G 5G 6G14
  -2619025.20546    193413.17546  23427070.5594   23427075.0834
      -753.8094
  -9879040.38848  -7565735.00847  20727902.1074   20727904.7484
      -507.2014
  27488981.34146  21554163.86145  24307335.1844   24307339.9044
     -5629.3514
   1506540.07346   1250032.67846  23379689.8014   23379693.5294
     -2203.1264
   -396159.20945   -235330.93245  24883982.2134   24883986.7934
      1554.6144
  -4960297.85947  -3781723.44946  23131137.2834   23131139.6684
       200.5854
  -2077167.40848  -1483437.98947  20929392.5454   20929397.0154
     -2886.7544
  -4664720.38746  -3509840.79246  23406626.1354   23406630.6834
      1643.7704
   4374513.84746   7477821.19246  23034202.8514   23034206.3914
     -3594.7514
 06  5  1  0 15 15.0010000  0  9G 1G30G 9G 4G25G 2G 5G 6G14
  -2607644.05646    202281.61546  23429236.3064   23429241.0964
      -763.5834
  -9871373.89548  -7559761.11947  20729360.9954   20729363.7464
      -514.8914
  27573438.59646  21619974.70045  24323406.8964   24323411.0384
     -5631.5194
   1539664.24946   1275843.72146  23385993.1244   23385997.8244
     -2213.3644
   -419457.24245   -253485.22245  24879548.7224   24879553.4014
      1551.9144
  -4963239.82946  -3784015.88446  23130577.4294   23130579.9324
       191.7704
  -2033810.59048  -1449653.45547  20937643.0814   20937647.4494
     -2894.0584
  -4689347.79146  -3529030.96246  23401939.6874   23401945.0144
      1639.9804
   4428500.04646   7519888.34946  23044476.0984   23044479.8204
     -3603.3034
 06  5  1  0 15 30.0010000  0  9G 1G30G 9G 4G25G 2G 5G 6G14
  -2596118.87946    211262.27446  23431429.4714   23431434.8064
      -773.2634
  -9863594.24448  -7553699.04947  20730841.4274   20730844.6834
      -522.5354
  27657925.70645  21685808.80145  24339484.2754   24339489.1804
     -5633.5764
   1572939.14046   1301772.20946  23392325.1234   23392329.4724
     -2223.4724
   -442716.94945   -271609.62745  24875122.5064   24875126.8194
      1549.2584
  -4966051.93247  -3786207.11246  23130042.2724   23130044.4794
       183.0274
  -1990346.71348  -1415785.50147  20945913.9804   20945918.1994
     -2901.2724
  -4713920.63746  -3548178.60846  23397263.6224   23397269.4604
      1636.2574
   4482611.90546   7562053.40846  23054773.2594   23054777.0434
     -3611.7524
 06  5  1  0 15 45.0010000  0  9G 1G30G 9G 4G25G 2G 5G 6G14
  -2584441.69646    220361.38746  23433651.5604   23433655.6274
      -783.2784
  -9855693.47648  -7547542.60447  20732344.9004   20732347.9054
      -530.4784
  27742450.33545  21751672.12145  24355568.7924   24355573.2224
     -5635.9444
   1606372.38946   1327824.10746  23398687.2524   23398691.9294
     -2233.8984
   -465930.16845   -289697.81445  24870705.1454   24870709.6514
      1546.2694
  -4968726.16246  -3788290.91646  23129533.3384   23129535.3914
       173.9424
  -1946768.05048  -1381828.10447  20954206.7274   20954211.0744
     -2908.8024
  -4738430.81046  -3567277.43146  23392599.4744   23392605.1994
      1632.1954
   4536857.03046   7604322.32646  23065095.8014   23065099.3874
     -3620.5204
 06  5  1  0 16  0.0010000  0  9G 1G30G 9G 4G25G 2G 5G 6G14
  -2572617.84146    229574.78646  23435901.5584   23435906.2534
      -793.2094
  -9847677.00348  -7541295.99847  20733870.3904   20733873.2394
      -538.3454
  27827006.76845  21817560.22345  24371659.3664   24371663.9514
     -5638.1994
   1639958.57446   1353995.16046  23405078.4774   23405082.8934
     -2244.2054
   -489102.11045   -307753.81945  24866295.6304   24866300.7104
      1543.3514
  -4971267.60646  -3790271.24446  23129049.6914   23129051.7854
       164.9484
  -1903080.08848  -1347785.53547  20962520.2644   20962524.3024
     -2916.2274
  -4762883.54746  -3586331.47946  23387946.2504   23387951.5734
      1628.2094
   4591229.79346   7646690.70646  23075442.6224   23075445.4554
     -3629.1514
 06  5  1  0 16 15.0010000  0  9G 1G30G 9G 4G25G 2G 5G 6G14
  -2560642.96046    238905.86046  23438180.3014   23438185.4204
      -803.3534
  -9839540.52148  -7534955.88147  20735418.7164   20735421.6554
      -546.4304
  27911599.02645  21883476.26145  24387756.7564   24387761.9174
     -5640.6694
   1673701.87346   1380288.63946  23411499.6014   23411503.9284
     -2254.7804
   -512228.13545   -325774.09745  24861894.8794   24861899.6904
      1540.2174
  -4973671.84246  -3792144.66046  23128592.1394   23128594.6694
       155.6984
  -1859278.69448  -1313654.57647  20970855.3774   20970859.1744
     -2923.8644
  -4787274.41246  -3605337.32546  23383304.8124   23383309.6984
      1623.9934
   4645734.06846   7689161.57046  23085814.4524   23085817.3314
     -3637.9854
 06  5  1  0 16 30.0010000  0  9G 1G30G 9G 4G25G 2G 5G 6G14
  -2548518.67246    248353.35546  23440487.4694   23440492.1764
      -813.1844
  -9831285.67748  -7528523.53447  20736989.5664   20736992.9524
      -554.1844
  27996224.89645  21949418.45945  24403860.5224   24403866.3764
     -5642.7704
   1707600.30746   1406702.99846  23417950.2684   23417954.9144
     -2264.9984
   -535309.88845   -343759.83845  24857502.5464   24857507.7584
      1537.4064
  -4975940.20446  -3793912.21346  23128160.4584   23128162.8284
       146.7854
  -1815365.79848  -1279436.74547  20979211.7324   20979215.9084
     -2931.1564
  -4811604.89746  -3624296.14246  23378674.8584   23378679.9844
      1620.1134
   4700367.79746   7731733.29746  23096210.9084   23096213.8994
     -3646.4714
 06  5  1  0 16 45.0010000  0  9G 1G30G 9G 4G25G 2G 5G 6G14
  -2536246.10746    257916.42246  23442822.8444   23442827.5284
      -823.0784
  -9822913.63348  -7521999.85347  20738582.7134   20738586.6064
      -562.0124
  28080882.89345  22015385.73945  24419970.4414   24419975.2104
     -5644.8814
   1741652.70646   1433237.34246  23424430.2334   23424434.6214
     -2275.2554
   -558348.37045   -361711.88845  24853118.4114   24853123.8204
      1534.4924
  -4978073.74347  -3795574.68346  23127754.4514   23127757.0034
       137.7774
  -1771342.71348  -1245133.04347  20987589.0594   20987593.1604
     -2938.5014
  -4835876.11346  -3643208.74446  23374056.1914   23374061.2084
      1616.1374
   4755129.47946   7774404.71946  23106631.7184   23106635.2644
     -3654.9944
 06  5  1  0 17  0.0020000  0  9G 1G30G 9G 4G25G 2G 5G 6G14
  -2523823.56446    267596.31546  23445186.7764   23445191.3604
      -833.0934
  -9814422.83148  -7515383.63447  20740198.4484   20740202.4984
      -569.9494
  28165579.26545  22081382.91545  24436087.6404   24436091.7824
     -5647.1294
   1775861.97246   1459893.91846  23430940.0494   23430944.4774
     -2285.6244
   -581344.10445   -379630.59145  24848742.4064   24848746.9464
      1531.4634
  -4980071.64746  -3797131.47846  23127374.2414   23127376.7634
       128.6414
  -1727205.96048  -1210740.76547  20995988.0114   20995992.2154
     -2945.9484
  -4860088.57446  -3662075.57246  23369448.6814   23369453.6504
      1612.0454
   4810023.17546   7817179.00246  23117077.6554   23117081.0144
     -3663.6084
 06  5  1  0 17 15.0020000  0  9G 1G30G 9G 4G25G 2G 5G 6G14
  -2511250.59346    277393.45246  23447579.3214   23447583.8524
      -843.0104
  -9805812.37048  -7508674.18147  20741836.9534   20741841.1134
      -577.7914
  28250304.52345  22147402.60145  24452210.3204   24452215.2844
     -5649.2584
   1810225.54946   1486670.73646  23437479.2164   23437483.6904
     -2295.8984
   -604291.72845   -397511.82745  24844375.6154   24844379.8964
      1528.5164
  -4981931.15747  -3798580.43546  23127020.3504   23127022.6004
       119.5954
  -1682959.34848  -1176262.89047  21004407.8704   21004411.9914
     -2953.2954
  -4884236.81246  -3680892.37246  23364853.4074   23364858.0834
      1608.0474
   4865043.41646   7860051.91046  23127547.6734   23127550.1934
     -3672.1074
 06  5  1  0 17 30.0020000  0  9G 1G30G 9G 4G25G 2G 5G 6G14
  -2498529.83546    287305.72746  23449999.9934   23450004.7574
      -853.2124
  -9797085.28748  -7501873.85347  20743497.6544   20743501.9904
      -585.9394
  28335060.29245  22213446.01645  24468338.7904   24468344.2434
     -5651.6474
   1844741.92746   1513566.62246  23444047.4534   23444052.3434
     -2306.4344
   -627196.08645   -415359.34645  24840017.0524   24840022.3164
      1525.2724
  -4983655.82846  -3799924.32546  23126692.1254   23126694.5714
       110.2434
  -1638603.71148  -1141700.05747  21012848.4714   21012852.6524
     -2960.9064
  -4908325.97746  -3699663.13646  23360269.3594   23360274.0434
      1603.7334
   4920189.92446   7903023.20446  23138041.7204   23138045.0854
     -3680.8644
 06  5  1  0 17 45.0020000  0  9G 1G30G 9G 4G25G 2G 5G 6G14
  -2485657.52046    297336.12246  23452449.5034   23452454.3034
      -863.2114
  -9788237.58548  -7494979.53947  20745181.3134   20745185.4594
      -593.8644
  28419850.13045  22279515.98945  24484473.7664   24484479.7064
     -5653.7784
   1879414.80646   1540584.43746  23450645.4684   23450649.4264
     -2316.7204
   -650053.17345   -433170.05645  24835667.4724   24835671.1544
      1522.2324
  -4985241.67646  -3801160.04046  23126390.3344   23126392.7024
       101.0894
  -1594135.44548  -1107049.46247  21021310.5104   21021314.7394
     -2968.3064
  -4932351.96146  -3718384.64646  23355697.3364   23355702.4724
      1599.6264
   4975465.96646   7946095.43146  23148560.4084   23148563.7034
     -3689.3804
 06  5  1  0 18  0.0020000  0  9G 1G30G 9G 4G25G 2G 5G 6G14
  -2472634.19846    307484.18246  23454927.7424   23454932.2094
      -873.1924
  -9779270.02248  -7487991.82347  20746887.7734   20746891.6734
      -601.7424
  28504673.01245  22345611.70845  24500615.0694   24500620.9804
     -5655.8884
   1914243.37746   1567723.59046  23457273.1094   23457277.8554
     -2327.0154
   -672863.54445   -450944.34345  24831326.7974   24831331.6364
      1519.2004
  -4986689.15346  -3802287.92646  23126114.8764   23126117.3604
        91.9364
  -1549555.37448  -1072311.74147  21029793.8174   21029797.9964
     -2975.6634
  -4956315.32646  -3737057.39046  23351137.2404   23351142.5544
      1595.5394
   5030870.71946   7989267.94346  23159103.5794   23159107.1564
     -3697.8634
 06  5  1  0 18 15.0020000  0  9G 1G30G 9G 4G25G 2G 5G 6G14
  -2459460.77546    317749.19146  23457434.5454   23457439.7244
      -883.2754
  -9770183.40048  -7480911.34147  20748616.8964   20748620.5764
      -609.7934
  28589527.67845  22411732.19245  24516762.3944   24516767.2864
     -5658.0784
   1949226.55546   1594983.18346  23463930.1874   23463934.0584
     -2337.4244
   -695627.88945   -468682.75545  24826994.8944   24826998.9304
      1516.0404
  -4987998.96347  -3803308.52946  23125865.6204   23125868.0084
        82.6794
  -1504864.65948  -1037487.80847  21038298.1754   21038302.2444
     -2983.1224
  -4980216.75346  -3755681.86146  23346588.9334   23346594.3084
      1591.3224
   5086402.79646   8032539.68146  23169670.9794   23169674.6244
     -3706.4264
 06  5  1  0 18 30.0020000  0  9G 1G30G 9G 4G25G 2G 5G 6G14
  -2446137.27046    328131.14646  23459969.9054   23459974.9884
      -893.2574
  -9760977.84548  -7473738.17547  20750368.6504   20750371.8964
      -617.6944
  28674413.69945  22477877.09845  24532915.7254   24532920.7964
     -5660.0944
   1984364.14746   1622363.13546  23470616.6544   23470620.8204
     -2347.6854
   -718346.00845   -486385.16945  24822671.7894   24822675.8094
      1512.9854
  -4989171.00347  -3804221.78646  23125642.5934   23125644.6044
        73.5184
  -1460063.46548  -1002577.78947  21046823.5544   21046827.6824
     -2990.4414
  -5004056.23746  -3774258.07846  23342052.4214   23342057.0834
      1587.2124
   5142061.88746   8075910.40046  23180262.5694   23180265.9694
     -3714.8474
 06  5  1  0 18 45.0020000  0  9G 1G30G 9G 4G25G 2G 5G 6G14
  -2432663.15046    338630.47246  23462533.9334   23462539.1974
      -903.3254
  -9751652.72848  -7466471.85147  20752143.1674   20752146.1884
      -625.6934
  28759331.39945  22544046.75845  24549075.0264   24549081.1154
     -5662.2344
   2019656.48546   1649863.64946  23477332.5814   23477336.6524
     -2357.9914
   -741017.36545   -504051.15445  24818357.5644   24818361.5784
      1509.8234
  -4990204.63147  -3805027.20046  23125445.9154   23125447.7944
        64.2634
  -1415151.49548   -967581.44547  21055370.0124   21055374.0844
     -2997.8304
  -5027833.02346  -3792785.42646  23337527.8644   23337533.1454
      1583.0094
   5197848.02346   8119380.11146  23190878.3214   23190881.7544
     -3723.3224
 06  5  1  0 19  0.0020000  0  9G 1G30G 9G 4G25G 2G 5G 6G14
  -2419038.02346    349247.46146  23465126.7054   23465131.6744
      -913.4324
  -9742207.74448  -7459112.13047  20753940.5034   20753943.3194
      -633.7154
  28844280.68445  22610240.99545  24565240.3444   24565245.8124
     -5664.3984
   2055103.76046   1677484.91246  23484077.9874   23484082.2784
     -2368.3824
   -763641.19745   -521680.07245  24814052.3824   24814056.6034
      1506.6194
  -4991099.14647  -3805724.20746  23125275.6804   23125277.5104
        54.9414
  -1370128.53148   -932498.62047  21063937.5824   21063941.5594
     -3005.2754
  -5051546.67046  -3811263.56646  23333015.3074   23333020.4934
      1578.7634
   5253761.32846   8162948.90846  23201518.2854   23201522.2694
     -3731.8364
 06  5  1  0 19 15.0020000  0  9G 1G30G 9G 4G25G 2G 5G 6G14
  -2405261.66646    359982.28946  23467748.2484   23467753.3484
      -923.4684
  -9732642.65348  -7451658.80147  20755760.6884   20755763.7454
      -641.6774
  28929261.38945  22676459.66845  24581411.6194   24581416.7374
     -5666.4114
   2090706.00546   1705226.91946  23490852.9044   23490857.3864
     -2378.6544
   -786217.23145   -539271.75945  24809756.3034   24809761.3184
      1503.4714
  -4991854.10247  -3806312.48046  23125132.0154   23125134.0174
        45.6834
  -1324994.62148   -897329.33947  21072526.2634   21072530.3604
     -3012.6314
  -5075196.77446  -3829692.20246  23328514.8414   23328520.3484
      1574.5394
   5309801.65646   8206616.68646  23212182.4134   23212185.9024
     -3740.2434
 06  5  1  0 19 30.0020000  0  9G 1G30G 9G 4G25G 2G 5G 6G14
  -2391334.05546    370834.97846  23470398.5814   23470403.5314
      -933.4824
  -9722957.57848  -7444111.99247  20757603.7014   20757606.7464
      -649.6084
  29014272.98345  22742702.45745  24597588.7844   24597594.8674
     -5668.3764
   2126463.11246   1733089.60146  23497657.2824   23497661.1354
     -2388.8934
   -808745.31045   -556826.10745  24805469.3464   24805473.2504
      1500.3344
  -4992469.52347  -3806792.02246  23125014.9074   23125017.6374
        36.4464
  -1279749.93248   -862073.74047  21081136.0394   21081140.6034
     -3019.9424
  -5098783.23646  -3848071.25746  23324026.4924   23324031.3624
      1570.3514
   5365968.52746   8250383.06846  23222870.6274   23222874.7614
     -3748.6004
 06  5  1  0 19 45.0020000  0  9G 1G30G 9G 4G25G 2G 5G 6G14
  -2377257.29646    381803.88746  23473077.3094   23473081.7914
      -943.4064
  -9713154.35448  -7436473.11047  20759469.1954   20759472.1294
      -657.4644
  29099313.33545  22808967.61345  24613771.4804   24613777.4224
     -5670.2774
   2162372.74246   1761071.12746  23504490.6704   23504494.3854
     -2399.0284
   -831227.39445   -574344.58845  24801191.1224   24801195.2814
      1497.2734
  -4992947.28147  -3807164.29546  23124923.9974   23124926.8934
        27.2754
  -1234396.76648   -826733.61447  21089766.4644   21089771.2104
     -3027.1354
  -5122308.17346  -3866402.36446  23319549.8404   23319554.6984
      1566.2934
   5422259.42346   8294246.09446  23233582.4434   23233585.9704
     -3756.8224
 06  5  1  0 20  0.0020000  0  9G 1G30G 9G 4G25G 2G 5G 6G14
  -2363031.01846    392889.30646  23475784.4834   23475789.5614
      -953.4584
  -9703232.74248  -7428741.97747  20761357.2054   20761360.4774
      -665.4634
  29184382.30945  22875255.12245  24629959.6064   24629965.3804
     -5672.2504
   2198435.03346   1789171.61146  23511353.1254   23511357.5884
     -2409.3064
   -853662.90045   -591826.74945  24796921.7544   24796925.8054
      1494.0704
  -4993286.75847  -3807428.82246  23124859.3904   23124861.7694
        17.9534
  -1188935.02448   -791308.87847  21098417.5514   21098422.3694
     -3034.4724
  -5145770.87646  -3884684.96646  23315085.0184   23315089.3164
      1562.0354
   5478674.14446   8338205.58946  23244317.8044   23244321.5464
     -3765.1874
 06  5  1  0 20 15.0020000  0  9G 1G30G 9G 4G25G 2G 5G 6G14
  -2348652.65946    404093.22946  23478520.6004   23478525.8374
      -963.6844
  -9693190.18248  -7420916.60547  20763268.2294   20763271.5074
      -673.5844
  29269482.16545  22941566.68145  24646153.6044   24646159.7684
     -5674.3394
   2234652.33246   1817392.88746  23518245.0564   23518250.2624
     -2419.7184
   -876049.07345   -609270.52945  24792661.7744   24792667.5184
      1490.7014
  -4993485.26947  -3807583.49746  23124821.6274   23124824.0184
         8.4814
  -1143362.25848   -755797.64447  21107089.7694   21107094.4454
     -3041.9404
  -5169168.58646  -3902916.93346  23310632.5454   23310637.1134
      1557.6354
   5535215.26046   8382263.60546  23255077.2274   23255081.3334
     -3773.6714
 06  5  1  0 20 30.0020000  0  9G 1G30G 9G 4G25G 2G 5G 6G14
  -2334122.24646    415415.62546  23481285.6574   23481290.9924
      -973.7884
  -9683026.62348  -7412996.94047  20765202.2804   20765205.7654
      -681.6244
  29354612.41145  23007901.90545  24662353.3664   24662358.9814
     -5676.4064
   2271024.57346   1845734.90346  23525166.4664   23525170.9624
     -2430.0194
   -898385.72545   -626675.66945  24788411.1944   24788417.0814
      1487.4324
  -4993542.64847  -3807628.19846  23124810.7154   23124813.6154
        -0.9114
  -1097678.73648   -720200.09047  21115783.0634   21115787.5914
     -3049.2784
  -5192501.29646  -3921098.24946  23306192.4684   23306197.2154
      1553.3284
   5591882.26946   8426419.70046  23265860.6004   23265864.3394
     -3782.0144
 06  5  1  0 20 45.0020000  0  9G 1G30G 9G 4G25G 2G 5G 6G14
  -2319439.50246    426856.73246  23484079.6904   23484085.2294
      -983.9814
  -9672741.89748  -7404982.86247  20767159.3914   20767163.3274
      -689.7204
  29439773.27445  23074260.97745  24678558.9534   24678565.0324
     -5678.4534
   2307551.92946   1874197.76246  23532117.4044   23532121.5164
     -2440.3624
   -920672.44745   -644041.95345  24784170.1304   24784174.9804
      1484.0514
  -4993458.47047  -3807562.58446  23124826.7334   23124829.8144
       -10.3824
  -1051884.28148   -684516.09447  21124497.4574   21124501.4644
     -3056.7024
  -5215768.71746  -3939228.70246  23301764.8344   23301769.3344
      1548.9324
   5648674.98346   8470673.74846  23276667.9024   23276671.8364
     -3790.4174
 06  5  1  0 21  0.0020000  0  9G 1G30G 9G 4G25G 2G 5G 6G14
  -2304605.78646    438415.48446  23486902.4684   23486907.3324
      -993.8224
  -9662337.29448  -7396875.38647  20769139.3154   20769143.2724
      -697.5284
  29524962.90245  23140642.50245  24694770.0264   24694775.1554
     -5680.1374
   2344232.72446   1902780.20546  23539097.5354   23539101.2474
     -2450.3804
   -942910.41945   -661370.18845  24779938.3364   24779942.7364
      1481.0254
  -4993233.92247  -3807387.59246  23124869.4564   23124872.1234
       -19.5324
  -1005980.54748   -648746.94947  21133232.6404   21133236.5924
     -3063.7584
  -5238971.94446  -3957309.12146  23297349.3984   23297354.1004
      1544.8454
   5705591.68246   8515024.41546  23287498.7954   23287502.3234
     -3798.4514
 06  5  1  0 21 15.0020000  0  9G 1G30G 9G 4G25G 2G 5G 6G14
  -2289621.32446    450091.68046  23489753.9144   23489758.8594
     -1003.9284
  -9651813.02548  -7388674.65547  20771142.0084   20771145.6544
      -705.5464
  29610180.43245  23207045.74345  24710986.4084   24710992.5764
     -5682.0434
   2381066.45746   1931481.81246  23546106.7504   23546111.2754
     -2460.6134
   -965099.75745   -678660.57345  24775715.8224   24775721.8044
      1477.7344
  -4992869.07747  -3807103.27546  23124938.8764   23124941.7994
       -28.9344
   -959967.97348   -612892.99447  21141988.5434   21141992.5874
     -3071.0654
  -5262111.05946  -3975339.59646  23292946.1664   23292951.4284
      1540.5384
   5762631.69446   8559471.15246  23298353.1614   23298357.3764
     -3806.7044
 06  5  1  0 21 30.0020000  0  9G 1G30G 9G 4G25G 2G 5G 6G14
  -2274485.81446    461885.58346  23492634.1174   23492638.5714
     -1014.0824
  -9641168.73548  -7380380.40147  20773167.5434   20773171.2804
      -713.6354
  29695425.97645  23273470.82545  24727208.1194   24727214.5494
     -5683.9714
   2418053.19346   1960302.63046  23553145.0894   23553149.7844
     -2470.8984
   -987239.92545   -695912.63445  24771502.6734   24771507.5524
      1474.3664
  -4992363.46447  -3806709.28746  23125035.0924   23125037.9814
       -38.4144
   -913846.50648   -576954.18247  21150765.1574   21150768.8814
     -3078.4054
  -5285185.59146  -3993319.73346  23288555.2164   23288560.5254
      1536.1484
   5819794.89546   8604013.91046  23309230.9654   23309235.0894
     -3815.0104
 06  5  1  0 21 45.0020000  0  9G 1G30G 9G 4G25G 2G 5G 6G14
  -2259198.22446    473797.99746  23495543.2644   23495548.3324
     -1024.2064
  -9630403.67348  -7371992.03147  20775216.0604   20775219.6594
      -721.6614
  29780700.32345  23339918.34345  24743435.3034   24743439.8074
     -5685.8804
   2455193.98446   1989243.50446  23560212.7634   23560216.7374
     -2481.1434
  -1009329.77445   -713125.47645  24767299.0814   24767305.2764
      1471.0164
  -4991715.88147  -3806204.65346  23125158.3274   23125161.0734
       -47.8744
   -867615.25648   -540929.82647  21159562.6494   21159566.4314
     -3085.7094
  -5308194.54446  -4011248.74646  23284176.7274   23284181.7114
      1531.7744
   5877082.01546   8648653.21546  23320132.3614   23320135.8664
     -3823.2314
 06  5  1  0 22  0.0020000  0  9G 1G30G 9G 4G25G 2G 5G 6G14
  -2243759.34546    485828.29546  23498481.1844   23498486.6394
     -1034.3584
  -9619518.34048  -7363509.95147  20777287.4614   20777291.1804
      -729.7454
  29866002.24645  23406387.37845  24759667.7564   24759674.1034
     -5687.7614
   2492487.72946   2018303.56746  23567309.5524   23567313.2464
     -2491.4204
  -1031369.89745   -730299.56245  24763104.9824   24763109.6694
      1467.6274
  -4990926.87647  -3805589.82446  23125308.4894   23125310.7314
       -57.3784
   -821275.23448   -504820.72347  21168380.8394   21168385.1934
     -3093.0074
  -5331138.42546  -4029127.08946  23279810.6174   23279815.5624
      1527.3794
   5934491.69146   8693388.03146  23331057.0794   23331060.1424
     -3831.4464
 06  5  1  0 22 15.0020000  0  9G 1G30G 9G 4G25G 2G 5G 6G14
  -2228167.17146    497978.04246  23501448.2664   23501453.3944
     -1044.5684
  -9608510.92448  -7354932.74347  20779382.0914   20779385.5614
      -737.8834
  29951333.32045  23472879.10445  24775905.7114   24775911.0314
     -5689.6664
   2529936.24346   2047484.22246  23574435.7764   23574439.9504
     -2501.7074
  -1053358.05245   -747433.18845  24758920.7614   24758925.5454
      1464.1904
  -4989994.35647  -3804863.16846  23125485.9614   23125488.1624
       -66.9224
   -774824.65848   -468625.47847  21177220.0874   21177224.4704
     -3100.3574
  -5354015.17446  -4046953.10746  23275457.2944   23275462.1554
      1522.8984
   5992025.64846   8738219.66746  23342005.4414   23342009.0524
     -3839.7014
 06  5  1  0 22 30.0020000  0  9G 1G30G 9G 4G25G 2G 5G 6G14
  -2212424.06546    510245.40046  23504444.0764   23504448.8284
     -1054.6064
  -9597383.70048  -7346262.17747  20781499.5364   20781502.9444
      -745.8494
  30036690.94845  23539391.52645  24792148.7244   24792154.1474
     -5691.4074
   2567537.01546   2076783.51046  23581590.9804   23581595.3654
     -2511.8194
  -1075296.53145   -764528.07945  24754745.9874   24754750.7314
      1460.8864
  -4988920.53747  -3804026.42246  23125690.3254   23125692.5734
       -76.3464
   -728266.11048   -432346.08847  21186079.8804   21186084.3104
     -3107.5264
  -5376826.86846  -4064728.44046  23271116.3514   23271120.6514
      1518.5944
   6049681.15646   8783146.03646  23352976.9124   23352980.6264
     -3847.7814
 06  5  1  0 22 45.0020000  0  9G 1G30G 9G 4G25G 2G 5G 6G14
  -2196527.05846    522632.68646  23507469.1674   23507473.3544
     -1064.9384
  -9586133.63848  -7337495.89647  20783640.3554   20783643.4884
      -754.1174
  30122077.78745  23605926.70445  24808397.3014   24808403.9114
     -5693.4314
   2605292.68746   2106203.54446  23588775.6354   23588780.0974
     -2522.2294
  -1097182.13145   -781581.79045  24750581.2934   24750586.2844
      1457.2424
  -4987702.21647  -3803077.08346  23125922.1704   23125924.0694
       -86.0534
   -681596.80248   -395980.39747  21194960.7484   21194965.1284
     -3115.0044
  -5399570.72746  -4082450.92146  23266788.3264   23266792.9484
      1513.9604
   6107460.83346   8828169.13546  23363972.0234   23363975.8324
     -3856.1294
 06  5  1  0 23  0.0020000  0  9G 1G30G 9G 4G25G 2G 5G 6G14
  -2180478.84846    535137.79346  23510523.0224   23510527.2244
     -1074.8604
  -9574763.43748  -7328635.99547  20785804.0424   20785807.3694
      -761.9584
  30207490.67445  23672482.19945  24824650.8664   24824656.4684
     -5695.0154
   2643200.47546   2135742.06946  23595989.2244   23595993.4374
     -2532.1764
  -1119017.27145   -798596.15045  24746426.1984   24746429.8914
      1454.0384
  -4986341.95447  -3802017.12346  23126181.0104   23126183.2514
       -95.3644
   -634819.54748   -359530.58947  21203862.1584   21203866.6414
     -3122.0274
  -5422249.06146  -4100122.33946  23262472.7784   23262477.5894
      1509.7574
   6165361.67046   8873286.67246  23374990.1914   23374993.1274
     -3864.0164
 06  5  1  0 23 15.0020000  0  9G 1G30G 9G 4G25G 2G 5G 6G14
  -2164279.66146    547760.53446  23513605.6174   23513610.0634
     -1085.1144
  -9563273.41048  -7319682.72247  20787990.5264   20787994.1244
      -770.1334
  30292929.05645  23739057.56045  24840909.2224   24840915.2664
     -5696.8564
   2681259.89246   2165398.77346  23603231.6674   23603236.8274
     -2542.4704
  -1140802.12745   -815571.35945  24742280.6834   24742285.0724
      1450.5124
  -4984839.90947  -3800846.69346  23126466.8404   23126469.1814
      -105.0084
   -587934.87548   -322997.08447  21212784.0124   21212788.3924
     -3129.3564
  -5444861.92346  -4117742.72846  23258169.6844   23258174.4954
      1505.2134
   6223382.84646   8918497.97546  23386031.2494   23386034.1484
     -3872.2344
 06  5  1  0 23 30.0020000  0  9G 1G30G 9G 4G25G 2G 5G 6G14
  -2147927.86846    560502.19146  23516717.2424   23516722.3514
     -1095.2084
  -9551661.77848  -7310634.69947  20790200.1584   20790204.3354
      -778.1584
  30378394.22445  23805653.73845  24857172.7144   24857177.7294
     -5698.5704
   2719472.59946   2195174.89246  23610503.2914   23610508.2574
     -2552.6194
  -1162534.82445   -832505.92145  24738145.0844   24738150.1984
      1447.0824
  -4983194.25147  -3799564.35346  23126780.0004   23126782.2284
      -114.5124
   -540941.30548   -286378.71847  21221726.5894   21221730.8944
     -3136.5314
  -5467407.69946  -4135310.84746  23253879.3614   23253884.1894
      1500.7944
   6281525.79646   8963804.15446  23397095.4784   23397099.1564
     -3880.2444
 06  5  1  0 23 45.0020000  0  9G 1G30G 9G 4G25G 2G 5G 6G14
  -2131423.53146    573362.71346  23519857.8974   23519863.2174
     -1105.3614
  -9539928.77648  -7301492.09147  20792432.8724   20792436.8464
      -786.2294
  30463885.63145  23872270.42345  24873441.2114   24873448.6294
     -5700.3014
   2757838.04146   2225070.04346  23617803.9754   23617807.7524
     -2562.7804
  -1184215.22345   -849399.71145  24734019.4164   24734024.0214
      1443.6264
  -4981404.83547  -3798169.98746  23127120.5134   23127123.3024
      -124.0814
   -493839.13948   -249675.72447  21230689.8184   21230694.2654
     -3143.7464
  -5489886.18746  -4152826.55546  23249601.8274   23249606.8634
      1496.3454
   6339790.06646   9009204.87346  23408182.8174   23408186.5984
     -3888.2994
 06  5  1  0 24  0.0020000  0  9G 1G30G 9G 4G25G 2G 5G 6G14
  -2114766.39246    586342.29546  23523027.6284   23523032.2624
     -1115.5234
  -9528074.02448  -7292254.62347  20794688.7574   20794692.6734
      -794.3364
  30549403.56445  23938907.71645  24889714.7344   24889720.4364
     -5702.0334
   2796356.44646   2255084.38746  23625133.7664   23625137.6004
     -2572.9434
  -1205842.92145   -866252.42945  24729903.8114   24729909.1184
      1440.1254
  -4979471.19347  -3796663.25846  23127488.4894   23127490.4804
      -133.6844
   -446628.28648   -212888.04647  21239673.7284   21239678.4084
     -3150.9744
  -5512296.94046  -4170289.46246  23245337.1904   23245341.9334
      1491.8274
   6398175.39846   9054699.92046  23419293.1794   23419296.7204
     -3896.3354
 06  5  1  0 24 15.0020000  0  9G 1G30G 9G 4G25G 2G 5G 6G14
  -2097957.19846    599440.38146  23526226.3084   23526231.2494
     -1125.7294
  -9516098.40648  -7282922.96847  20796967.6384   20796971.2964
      -802.4464
  30634946.91445  24005564.87845  24905993.0934   24905998.8724
     -5703.7624
   2835026.90746   2285217.18546  23632492.5074   23632497.2774
     -2583.1184
  -1227418.44345   -883064.51745  24725798.1414   24725803.6164
      1436.5854
  -4977393.85547  -3795044.54246  23127883.8104   23127885.5724
      -143.3394
   -399309.66848   -176016.39947  21248678.1434   21248682.6814
     -3158.2104
  -5534640.64746  -4187700.11246  23241085.3114   23241090.6094
      1487.2924
   6456680.54246   9100288.31946  23430426.3444   23430429.3794
     -3904.3764
 06  5  1  0 24 30.0020000  0  9G 1G30G 9G 4G25G 2G 5G 6G14
  -2080994.07946    612658.38846  23529454.2894   23529459.3704
     -1135.9534
  -9503999.87048  -7273495.53647  20799269.9064   20799273.3124
      -810.6254
  30720516.94845  24072242.77745  24922276.5314   24922281.6104
     -5705.4914
   2873850.90546   2315469.64646  23639880.4674   23639885.2274
     -2593.3344
  -1248939.68545   -899834.27545  24721702.7954   24721706.9774
      1432.9884
  -4975170.83747  -3793312.31146  23128306.8464   23128308.4414
      -153.0134
   -351881.63248   -139059.48147  21257703.3834   21257707.8594
     -3165.4644
  -5556915.28746  -4205056.96046  23236846.5784   23236851.4504
      1482.7284
   6515307.13046   9145971.37346  23441582.6084   23441586.4054
     -3912.4204
 06  5  1  0 24 45.0020000  0  9G 1G30G 9G 4G25G 2G 5G 6G14
  -2063878.81646    625994.96746  23532711.2214   23532715.9494
     -1146.0524
  -9491780.17948  -7263973.69347  20801595.2214   20801598.7854
      -818.6354
  30806111.44545  24138939.79745  24938564.5904   24938569.2434
     -5707.0844
   2912826.57446   2345840.30446  23647297.2744   23647302.3564
     -2603.3954
  -1270408.30446   -916563.04745  24717617.4564   24717622.2834
      1429.5324
  -4972803.77247  -3791467.83846  23128757.2744   23128759.2174
      -162.5734
   -304346.13648   -102018.84347  21266749.0764   21266753.5434
     -3172.5794
  -5579122.49746  -4222361.26346  23232620.6884   23232625.0444
      1478.2724
   6574052.84246   9191747.24546  23452761.5544   23452765.4524
     -3920.3074
 06  5  1  0 25  0.0020000  0  9G 1G30G 9G 4G25G 2G 5G 6G14
  -2046611.81646    639449.77946  23535997.0224   23536001.2564
     -1156.2374
  -9479439.91048  -7254357.89647  20803943.4804   20803946.9444
      -826.7574
  30891730.02945  24205655.55345  24954857.2584   24954863.8544
     -5708.7264
   2951953.44446   2376328.76646  23654742.8534   23654747.8524
     -2613.5344
  -1291824.44745   -933250.95845  24713542.1184   24713546.4164
      1425.9494
  -4970292.87147  -3789511.27346  23129235.0684   23129236.9634
      -172.2364
   -256703.81648    -64894.95747  21275815.0924   21275819.4284
     -3179.7534
  -5601262.48746  -4239613.20746  23228407.5884   23228411.9194
      1473.7034
   6632917.04646   9237615.43446  23463963.0364   23463967.2974
     -3928.2704
 06  5  1  0 25 15.0020000  0  9G 1G30G 9G 4G25G 2G 5G 6G14
  -2029191.95546    653023.69346  23539311.9314   23539316.3504
     -1166.4014
  -9466977.66948  -7244647.05647  20806314.9554   20806318.1184
      -834.8454
  30977373.09745  24272390.39945  24971154.6174   24971161.1964
     -5710.3104
   2991232.39146   2406935.72646  23662217.3814   23662221.5494
     -2623.6314
  -1313186.87745   -949896.97345  24709476.9724   24709481.1484
      1422.3994
  -4967636.74547  -3787441.55646  23129740.4934   23129742.0944
      -181.8894
   -208953.69748    -27687.08347  21284901.6374   21284905.9984
     -3186.9154
  -5623334.01946  -4256811.79646  23224207.5084   23224211.7814
      1469.1644
   6691900.59246   9283576.64046  23475187.2624   23475191.6974
     -3936.1794
 06  5  1  0 25 30.0020000  0  9G 1G30G 9G 4G25G 2G 5G 6G14
  -2011619.50246    666716.52946  23542655.8784   23542660.1884
     -1176.5704
  -9454393.95748  -7234841.57447  20808709.5514   20808712.5004
      -842.9564
  31063040.33345  24339144.06845  24987456.5784   24987461.7884
     -5711.9334
   3030662.83246   2437660.76546  23669720.7494   23669725.7724
     -2633.7324
  -1334495.65145   -966501.19345  24705422.0424   24705426.0164
      1418.8084
  -4964835.67547  -3785258.89046  23130273.4954   23130275.2354
      -191.5694
   -161096.23848      9604.44547  21294008.6094   21294012.8864
     -3194.0594
  -5645337.23546  -4273957.13546  23220020.3944   23220025.1644
      1464.6254
   6751002.65546   9329630.18446  23486434.0024   23486438.1554
     -3944.0654
 06  5  1  0 25 45.0020000  0  9G 1G30G 9G 4G25G 2G 5G 6G14
  -1993894.62846    680528.12846  23546028.8124   23546033.2314
     -1186.7554
  -9441688.90548  -7224941.52647  20811127.2454   20811130.2024
      -851.0784
  31148731.41645  24405916.30945  25003763.0434   25003769.2664
     -5713.5374
   3070244.42746   2468503.55246  23677252.8704   23677257.6124
     -2643.8144
  -1355750.71345   -983063.56745  24701377.2824   24701381.5904
      1415.1904
  -4961889.39847  -3782963.08546  23130834.1384   23130835.8684
      -201.2684
   -113131.83248     46979.30447  21303135.9394   21303140.3914
     -3201.2014
  -5667272.18046  -4291049.28246  23215846.2784   23215850.9814
      1460.0294
   6810222.66846   9375775.62546  23497703.1924   23497707.5464
     -3951.9434
 06  5  1  0 26  0.0020000  0  9G 1G30G 9G 4G25G 2G 5G 6G14
  -1976017.27846    694458.52846  23549430.7784   23549435.0934
     -1196.8974
  -9428862.22548  -7214946.71547  20813568.0814   20813571.1234
      -859.1474
  31234446.01245  24472706.85445  25020073.9514   25020078.9134
     -5715.0594
   3109977.16946   2499464.12346  23684813.7644   23684818.4384
     -2653.8744
  -1376951.76345   -999583.81645  24697342.8214   24697347.0244
      1411.6054
  -4958798.14847  -3780554.31146  23131422.3784   23131424.4614
      -210.9084
    -65060.53648     84437.45447  21312283.6154   21312288.0894
     -3208.3034
  -5689138.50846  -4308087.96346  23211685.2184   23211690.1664
      1455.4814
   6869560.47146   9422012.86646  23508994.7994   23508998.8864
     -3959.7574
 06  5  1  0 26 15.0020000  0  9G 1G30G 9G 4G25G 2G 5G 6G14
  -1957987.26946    708507.88746  23552861.7954   23552865.9314
     -1207.1044
  -9415913.74248  -7204856.98447  20816032.0894   20816034.9754
      -867.3054
  31320183.60545  24539515.36645  25036389.2844   25036394.5234
     -5716.6234
   3149860.96546   2530542.40446  23692403.4204   23692407.8504
     -2663.9464
  -1398098.38445  -1016061.69945  24693318.7054   24693323.2534
      1407.9434
  -4955561.36047  -3778032.13246  23132038.2854   23132040.1094
      -220.6424
    -16882.39348    121978.86647  21321451.6224   21321455.7904
     -3215.4414
  -5710935.82646  -4325072.87746  23207537.3024   23207542.4294
      1450.8484
   6929015.76146   9468341.65446  23520308.7824   23520312.6444
     -3967.6114
 06  5  1  0 26 30.0020000  0  9G 1G30G 9G 4G25G 2G 5G 6G14
  -1939804.33546    722676.42146  23556321.9034   23556326.1774
     -1217.2984
  -9402843.29248  -7194672.22347  20818519.3154   20818522.3944
      -875.4424
  31405944.44745  24606341.98545  25052709.0684   25052715.7084
     -5718.1644
   3189895.89646   2561738.45246  23700021.8174   23700026.6004
     -2674.0444
  -1419190.11945  -1032496.79545  24689305.0404   24689310.7334
      1404.2924
  -4952178.58647  -3775396.19346  23132681.9844   23132684.0654
      -230.4074
     31402.69748    159603.61647  21330639.9714   21330644.0424
     -3222.5724
  -5732663.96546  -4342003.88046  23203402.5654   23203407.1614
      1446.2324
   6988588.39146   9514761.87246  23531645.0954   23531649.1774
     -3975.4174
 06  5  1  0 26 45.0020000  0  9G 1G30G 9G 4G25G 2G 5G 6G14
  -1921468.85546    736963.81146  23559811.0434   23559815.3554
     -1227.3604
  -9389651.19948  -7184392.67047  20821029.6864   20821032.8644
      -883.4394
  31491727.73145  24673186.07845  25069033.1254   25069038.5374
     -5719.5064
   3230081.49146   2593051.89546  23707668.8884   23707674.8934
     -2683.9774
  -1440227.17545  -1048889.25545  24685301.7774   24685308.1234
      1400.7444
  -4948649.86247  -3772646.51946  23133353.4404   23133355.5614
      -240.0264
     79794.19048    197311.26947  21339848.5764   21339852.6254
     -3229.5644
  -5754322.84446  -4358880.91646  23199281.0134   23199285.5914
      1441.7154
   7048277.71646   9561273.02946  23543003.6224   23543008.3104
     -3983.0864
 06  5  1  0 27  0.0020000  0  9G 1G30G 9G 4G25G 2G 5G 6G14
  -1902980.24146    751370.52746  23563329.3174   23563333.4634
     -1237.6944
  -9376336.72948  -7174017.75847  20823563.3424   20823567.0724
      -891.7434
  31577533.71945  24740047.89345  25085361.4764   25085367.6614
     -5721.1744
   3270418.11046   2624483.02746  23715344.7094   23715350.1604
     -2694.1804
  -1461208.65145  -1065238.46145  24681309.0714   24681314.2444
      1396.8944
  -4944974.42647  -3769782.53246  23134052.8114   23134054.4294
      -249.9434
    128292.57348    235102.21747  21349077.5154   21349081.6854
     -3236.8104
  -5775911.90046  -4375703.54246  23195172.7314   23195177.2424
      1436.9264
   7108083.88546   9607875.23746  23554384.3714   23554388.0344
     -3990.9814
 06  5  1  0 27 15.0020000  0  9G 1G30G 9G 4G25G 2G 5G 6G14
  -1884338.19246    765896.81146  23566876.7594   23566880.8664
     -1247.9644
  -9362899.80848  -7163547.42247  20826120.3084   20826124.3734
      -899.8964
  31663362.50745  24806927.44145  25101694.1694   25101701.2604
     -5722.7064
   3310905.85646   2656031.91546  23723049.2744   23723054.2584
     -2704.2344
  -1482134.07445  -1081543.94245  24677327.0304   24677332.8864
      1393.1144
  -4941151.82547  -3766803.87146  23134780.2054   23134782.0604
      -259.7844
    176897.89348    272976.49847  21358326.7954   21358331.0374
     -3243.9494
  -5797430.50846  -4392471.26046  23191077.8564   23191082.4394
      1432.1754
   7168006.90646   9654568.46746  23565787.3544   23565791.5514
     -3998.7994
 06  5  1  0 27 30.0020000  0  9G 1G30G 9G 4G25G 2G 5G 6G14
  -1865540.62746    780544.26246  23570453.7974   23570457.9974
     -1258.4084
  -9349338.11648  -7152979.87147  20828701.0074   20828705.1284
      -908.3254
  31749215.74545  24873826.05945  25118031.4444   25118037.6544
     -5724.4284
   3351546.60846   2687700.02546  23730782.9304   23730788.1904
     -2714.5334
  -1503001.21545  -1097804.02045  24673356.1044   24673360.5534
      1389.1554
  -4937180.00547  -3763708.92246  23135535.9944   23135537.7564
      -269.8014
    225612.02748    310935.56747  21367596.7864   21367601.3014
     -3251.2824
  -5818876.58546  -4409182.48046  23186996.7914   23187001.7564
      1427.2654
   7228048.41746   9701354.05346  23577212.8834   23577216.3964
     -4006.7634
 06  5  1  0 27 45.0020000  0  9G 1G30G 9G 4G25G 2G 5G 6G14
  -1846588.45646    795312.20646  23574060.2654   23574064.1614
     -1268.5304
  -9335652.63948  -7142315.85947  20831305.2684   20831309.1174
      -916.4024
  31835092.31145  24940742.80745  25134373.1934   25134377.5014
     -5725.7574
   3392339.10746   2719486.39446  23738545.4664   23738550.9174
     -2724.4684
  -1523810.77745  -1114019.27045  24669396.1504   24669400.6994
      1385.4774
  -4933059.72847  -3760498.27246  23136320.0274   23136322.2324
      -279.5464
    274433.83148    348978.52447  21376887.2624   21376891.8074
     -3258.2694
  -5840250.83246  -4425837.72646  23182929.3834   23182934.3354
      1422.6584
   7288207.08646   9748230.94746  23588660.7094   23588664.5824
     -4014.3824
 06  5  1  0 28  0.0020000  0  9G 1G30G 9G 4G25G 2G 5G 6G14
  -1827483.78146    810198.95346  23577695.7594   23577700.1104
     -1278.7224
  -9321845.59748  -7131557.11847  20833932.6584   20833936.1344
      -924.5354
  31920989.57845  25007675.72745  25150718.9214   25150722.4594
     -5727.1604
   3433281.23546   2751389.34046  23746336.4814   23746341.6284
     -2734.4464
  -1544564.58545  -1130191.04445  24665446.8204   24665451.8244
      1381.7124
  -4928792.88247  -3757173.44446  23137131.9564   23137133.8574
      -289.3504
    323361.12148    387103.68047  21386197.8114   21386202.3974
     -3265.3234
  -5861555.23446  -4442438.53546  23178875.2744   23178879.9754
      1417.9744
   7348480.38645   9795197.14046  23600130.3254   23600134.0784
     -4022.0304
 06  5  1  0 28 15.0020000  0  9G 1G30G 9G 4G25G 2G 5G 6G14
  -1808226.50246    825204.63046  23581360.2774   23581364.3874
     -1288.9654
  -9307916.57448  -7120703.33547  20836583.2584   20836586.8664
      -932.7094
  32006907.46145  25074624.70545  25167068.5754   25167074.8594
     -5728.6084
   3474372.91346   2783408.82446  23754155.9694   23754160.7064
     -2744.4784
  -1565262.30045  -1146319.12246  24661508.1664   24661511.8434
      1377.9194
  -4924379.05347  -3753734.08546  23137971.8594   23137973.7854
      -299.2284
    372393.83648    425310.99447  21395528.4244   21395533.0314
     -3272.4224
  -5882789.39146  -4458984.61946  23174834.5324   23174839.4524
      1413.2144
   7408868.35345   9842252.69246  23611621.7684   23611626.0384
     -4029.7214
 06  5  1  0 28 30.0020000  0  9G 1G30G 9G 4G25G 2G 5G 6G14
  -1788816.40946    840329.39446  23585053.8764   23585058.5354
     -1299.1484
  -9293865.53448  -7109754.45947  20839257.0734   20839260.7174
      -940.8544
  32092846.07345  25141589.86545  25183422.1954   25183428.0254
     -5729.9684
   3515614.07746   2815544.79346  23762003.9294   23762008.2774
     -2754.4524
  -1585903.53345  -1162403.17145  24657580.2564   24657584.7724
      1374.1364
  -4919817.79447  -3750179.85846  23138839.8384   23138841.6794
      -309.0464
    421531.95048    463600.42747  21404879.0984   21404883.7724
     -3279.4224
  -5903953.05546  -4475475.77046  23170807.2114   23170812.3394
      1408.5044
   7469370.57345   9889397.27146  23623134.9284   23623138.9584
     -4037.3384
 06  5  1  0 28 45.0020000  0  9G 1G30G 9G 4G25G 2G 5G 6G14
  -1769252.71346    855573.82246  23588776.7074   23588781.2674
     -1309.4404
  -9279691.48248  -7098709.72947  20841954.2944   20841957.9714
      -949.1094
  32178805.66745  25208571.36845  25199779.7924   25199784.6654
     -5731.4144
   3557005.42146   2847797.77246  23769880.4644   23769884.6874
     -2764.4834
  -1606487.25145  -1178442.41945  24653663.2824   24653667.3444
      1370.2684
  -4915108.27647  -3746510.10746  23139736.0304   23139737.8324
      -318.9824
    470776.11848    501972.50947  21414249.9524   21414254.5924
     -3286.5524
  -5925045.14146  -4491911.16146  23166793.5164   23166797.9274
      1403.6904
   7529987.46746   9936631.21046  23634669.9624   23634673.9444
     -4045.0044
 06  5  1  0 29  0.0020000  0  9G 1G30G 9G 4G25G 2G 5G 6G14
  -1749534.38846    870938.76046  23592528.9594   23592533.8084
     -1319.6894
  -9265393.57848  -7087568.50647  20844675.0824   20844678.4034
      -957.3034
  32264787.11445  25275569.88045  25216141.5284   25216147.7154
     -5732.7644
   3598547.68146   2880168.37246  23777785.7114   23777790.1334
     -2774.4984
  -1627012.21745  -1194435.86445  24649757.4834   24649762.4734
      1366.3944
  -4910249.26447  -3742723.85146  23140660.6714   23140661.9214
      -328.9014
    520127.21048    540427.90547  21423641.1544   21423645.9394
     -3293.6114
  -5946064.55946  -4508289.91746  23162793.6594   23162798.2044
      1398.8974
   7590719.69146   9983954.99946  23646226.9214   23646231.3244
     -4052.6234
 06  5  1  0 29 15.0020000  0  9G 1G30G 9G 4G25G 2G 5G 6G14
  -1729663.29946    886422.70446  23596310.2854   23596314.6164
     -1329.8994
  -9250973.45248  -7076332.04947  20847419.1324   20847422.4984
      -965.4754
  32350788.10545  25342583.65445  25232506.9614   25232512.8894
     -5734.0894
   3640238.93146   2912655.04246  23785719.3104   23785723.2434
     -2784.4374
  -1647480.05145  -1210384.80345  24645862.5564   24645866.6584
      1362.5484
  -4905242.45647  -3738822.43646  23141613.4474   23141614.9174
      -338.7764
    569583.14948    578964.99847  21433052.3214   21433056.7684
     -3300.6284
  -5967013.01146  -4524613.36046  23158807.2934   23158811.9084
      1394.1364
   7651565.02445  10031366.93446  23657805.3844   23657809.5994
     -4060.1894
 06  5  1  0 29 30.0020000  0  9G 1G30G 9G 4G25G 2G 5G 6G14
  -1709639.12246    902025.97946  23600120.7524   23600124.9504
     -1340.0654
  -9236430.84548  -7065000.14747  20850186.4884   20850189.6204
      -973.5934
  32436808.70245  25409612.63845  25248876.1354   25248880.8874
     -5735.3514
   3682079.20146   2945257.86246  23793681.2644   23793684.8524
     -2794.3274
  -1667890.16646  -1226288.78046  24641978.6454   24641981.7954
      1358.7344
  -4900087.35747  -3734805.44746  23142594.4334   23142596.1014
      -348.6344
    619144.12048    617583.94147  21442483.4634   21442487.6164
     -3307.5794
  -5987889.89646  -4540881.05746  23154834.5624   23154839.3244
      1389.3824
   7712523.49946  10078867.04546  23669405.3934   23669409.9764
     -4067.6744
 06  5  1  0 29 45.0020000  0  9G 1G30G 9G 4G25G 2G 5G 6G14
  -1689462.01846    917748.38446  23603960.3224   23603964.7714
     -1350.3474
  -9221765.77348  -7053572.81447  20852977.1614   20852980.7454
      -981.8554
  32522848.54845  25476656.66445  25265249.0154   25265255.0044
     -5736.7334
   3724068.21646   2977976.56546  23801671.5304   23801675.9794
     -2804.3164
  -1688242.59446  -1242147.80946  24638105.7294   24638109.7024
      1354.7804
  -4894784.00147  -3730672.94846  23143603.6324   23143605.3024
      -358.6194
    668809.73448    656284.42447  21451934.5124   21451938.5494
     -3314.6444
  -6008695.13746  -4557092.92146  23150875.4464   23150880.0564
      1384.5084
   7773594.59045  10126454.88246  23681026.8404   23681031.1304
     -4075.2494
 06  5  1  0 30  0.0020000  0  9G 1G30G 9G 4G25G 2G 5G 6G14
  -1669130.94746    933590.77846  23607829.1914   23607833.3614
     -1360.4324
  -9206977.40748  -7042049.41047  20855791.2984   20855794.5424
      -989.8994
  32608908.39545  25543716.26845  25281625.7084   25281630.8434
     -5737.8744
   3766206.63946   3010811.69646  23809690.2174   23809695.4644
     -2814.1114
  -1708535.99346  -1257960.82546  24634244.0474   24634248.8794
      1351.0414
  -4889331.09247  -3726423.92246  23144641.2734   23144643.3424
      -368.3934
    718580.94348    695067.17047  21461405.6594   21461409.6844
     -3321.4794
  -6029427.80146  -4573248.22746  23146930.1354   23146934.9144
      1379.8614
   7834778.70845  10174130.81646  23692669.8124   23692673.6664
     -4082.5884
 06  5  1  0 30 15.0020000  0  9G 1G30G 9G 4G25G 2G 5G 6G14
  -1648647.15646    949552.17246  23611727.1274   23611732.2804
     -1370.7584
  -9192066.82348  -7030430.77447  20858628.6944   20858631.6554
      -998.1884
  32694986.64945  25610790.27745  25298005.9134   25298012.7404
     -5739.2064
   3808493.32746   3043762.36146  23817737.0984   23817741.6854
     -2824.1124
  -1728771.35346  -1273728.62446  24630393.3974   24630397.6784
      1347.0174
  -4883729.75747  -3722059.24446  23145707.1614   23145709.2084
      -378.4384
    768456.24648    733931.04947  21470896.6264   21470900.6794
     -3328.5574
  -6050088.80246  -4589347.68446  23142998.4574   23143003.7244
      1374.9404
   7896074.41745  10221893.69146  23704334.0184   23704337.8304
     -4090.1694
 06  5  1  0 30 30.0020000  0  9G 1G30G 9G 4G25G 2G 5G 6G14
  -1628009.32746    965633.59846  23615654.3784   23615659.7144
     -1380.9744
  -9177032.63848  -7018715.82347  20861489.6144   20861492.4984
     -1006.3824
  32781084.25445  25677879.25345  25314389.7974   25314395.0204
     -5740.4934
   3850929.25046   3076829.31646  23825812.3834   23825817.4384
     -2834.0474
  -1748947.23946  -1289450.06546  24626554.0374   24626558.0594
      1343.0594
  -4877978.55947  -3717577.77946  23146801.5684   23146803.5894
      -388.4124
    818436.86948    772876.98547  21480407.6344   21480411.7704
     -3335.5424
  -6070676.59446  -4605390.12046  23139080.7324   23139085.8094
      1370.0784
   7957482.78146  10269744.34646  23716019.6734   23716024.1594
     -4097.6294
 06  5  1  0 30 45.0020000  0  9G 1G30G 9G 4G25G 2G 5G 6G14
  -1607219.13546    981833.75146  23619610.6074   23619616.0914
     -1391.1674
  -9161876.50048  -7006905.85347  20864373.7434   20864376.8634
     -1014.5364
  32867199.47345  25744982.04845  25330777.0054   25330782.4684
     -5741.6284
   3893512.59146   3110011.13846  23833915.7184   23833920.1084
     -2843.8374
  -1769064.86946  -1305126.13046  24622725.7754   24622730.8094
      1339.1794
  -4872078.84547  -3712980.59246  23147924.2374   23147926.5894
      -398.3284
    868521.05248    811903.61747  21489938.3564   21489942.5954
     -3342.4544
  -6091192.76546  -4621376.72746  23135176.6284   23135181.5254
      1365.3084
   8019001.63645  10317681.09046  23727726.3314   23727730.0354
     -4104.9924
 06  5  1  0 31  0.0020000  0  9G 1G30G 9G 4G25G 2G 5G 6G14
  -1586275.09846    998153.78046  23623596.1214   23623601.5044
     -1401.3904
  -9146596.95648  -6994999.71447  20867281.3484   20867284.6474
     -1022.7564
  32953333.13945  25812099.17345  25347167.6944   25347173.1784
     -5742.8724
   3936244.50846   3143308.74046  23842047.3224   23842051.0254
     -2853.7674
  -1789122.70646  -1320755.58946  24618908.8874   24618913.8924
      1335.1844
  -4866028.99547  -3708266.42146  23149075.4844   23149077.7794
      -408.3404
    918709.98148    851011.87447  21499489.0074   21499493.2074
     -3349.4244
  -6111635.52546  -4637306.14546  23131286.5054   23131291.6354
      1360.3874
   8080632.11945  10365704.85146  23739454.2304   23739457.9724
     -4112.4234
 06  5  1  0 31 15.0020000  0  9G 1G30G 9G 4G25G 2G 5G 6G14
  -1565178.13046   1014592.97146  23627610.7464   23627615.3134
     -1411.5644
  -9131194.97948  -6982998.17447  20870212.2594   20870216.0474
     -1030.9034
  33039484.17545  25879229.81345  25363561.7124   25363566.6644
     -5743.9634
   3979124.00046   3176721.32646  23850207.0144   23850210.7834
     -2863.5334
  -1809121.37546  -1336338.95746  24615103.2794   24615107.9754
      1331.2734
  -4859829.77547  -3703435.84746  23150255.1474   23150257.3584
      -418.2674
    969002.61648    890200.93847  21509059.3974   21509063.7704
     -3356.3124
  -6132005.62146  -4653178.92946  23127410.2054   23127415.3564
      1355.5784
   8142372.84045  10413814.47446  23751203.1314   23751208.1304
     -4119.7134
 06  5  1  0 31 30.0020000  0  9G 1G30G 9G 4G25G 2G 5G 6G14
  -1543927.29546   1031152.06246  23631654.6594   23631659.2744
     -1421.8614
  -9115669.39548  -6970900.31547  20873166.6824   20873170.6214
     -1039.1574
  33125653.26945  25946374.53045  25379959.2064   25379964.5074
     -5745.2064
   4022151.77846   3210249.45746  23858394.9404   23858398.8444
     -2873.4504
  -1829059.70646  -1351875.30246  24611309.1474   24611313.9884
      1327.2044
  -4853480.24847  -3698488.13946  23151463.4014   23151465.7074
      -428.3184
   1019399.73748    929471.42047  21518649.6694   21518654.1234
     -3363.2914
  -6152301.93246  -4668994.23246  23123547.9304   23123553.0294
      1350.6184
   8204224.56545  10462010.62246  23762973.1274   23762977.5754
     -4127.1344
 06  5  1  0 31 45.0020000  0  9G 1G30G 9G 4G25G 2G 5G 6G14
  -1522522.97346   1047830.75646  23635727.7994   23635732.9444
     -1432.0584
  -9100020.54548  -6958706.40547  20876144.5604   20876148.6504
     -1047.3564
  33211839.91645  26013532.95745  25396360.0254   25396364.0194
     -5746.3154
   4065327.41146   3243892.81046  23866611.0034   23866615.3894
     -2883.2924
  -1848937.86246  -1367364.75546  24607526.4484   24607531.2494
      1323.2214
  -4846980.53047  -3693423.42746  23152700.2514   23152702.7864
      -438.3114
   1069900.78348    968822.88347  21528259.7034   21528263.8484
     -3370.1784
  -6172524.85946  -4684752.33346  23119699.6184   23119704.9064
      1345.7574
   8266186.46445  10510292.61146  23774764.0904   23774768.3854
     -4134.4484
 06  5  1  0 32  0.0020000  0  9G 1G30G 9G 4G25G 2G 5G 6G14
  -1500966.70246   1064627.85646  23639829.8444   23639834.6414
     -1442.2314
  -9084250.11948  -6946417.76247  20879145.5834   20879149.7644
     -1055.5004
  33298042.18545  26080703.52945  25412763.7944   25412768.4304
     -5747.4204
   4108648.99446   3277649.88246  23874854.8514   23874859.4294
     -2893.0664
  -1868757.08346  -1382808.28746  24603754.9694   24603760.2774
      1319.2324
  -4840331.88847  -3688242.65246  23153965.4364   23153968.0714
      -448.2924
   1120504.09948   1008254.04247  21537889.1844   21537893.4684
     -3377.0524
  -6192675.53946  -4700454.15746  23115865.0614   23115870.1184
      1340.8834
   8328256.67545  10558658.98846  23786575.6704   23786581.3524
     -4141.7094
 06  5  1  0 32 15.0020000  0  9G 1G30G 9G 4G25G 2G 5G 6G14
  -1479256.57446   1081544.84046  23643961.1494   23643965.9484
     -1452.4134
  -9068355.98148  -6934032.71147  20882170.1364   20882174.2964
     -1063.6834
  33384261.79045  26147887.65045  25429170.8374   25429176.4604
     -5748.4764
   4152118.36846   3311522.11746  23883126.8124   23883131.8604
     -2902.8194
  -1888515.16945  -1398204.17346  24599995.0964   24600000.0134
      1315.2204
  -4833532.27647  -3682944.24046  23155259.3354   23155262.1014
      -458.2964
   1171211.47948   1047766.27747  21547538.4734   21547542.7674
     -3383.9054
  -6212752.01246  -4716098.13646  23112044.6394   23112049.3714
      1335.9994
   8390436.74145  10607110.98846  23798408.1454   23798413.5524
     -4148.9454
 06  5  1  0 32 30.0020000  0  9G 1G30G 9G 4G25G 2G 5G 6G14
  -1457393.08646   1098581.32046  23648121.6534   23648126.3424
     -1462.7924
  -9052338.67048  -6921551.68547  20885218.1194   20885221.9024
     -1072.0434
  33470497.64345  26215084.42545  25445580.9334   25445583.7864
     -5749.7094
   4195734.79246   3345508.94046  23891426.7524   23891430.7794
     -2912.7754
  -1908212.46745  -1413552.68046  24596246.7884   24596252.2374
      1311.0054
  -4826581.96347  -3677528.39546  23156581.9034   23156584.4654
      -468.5044
   1222022.18948   1087359.03447  21557207.4294   21557211.7084
     -3390.9354
  -6232754.42146  -4731684.42446  23108238.3124   23108243.2474
      1330.8894
   8452725.86645  10655647.93646  23810261.3624   23810266.3934
     -4156.3574
 06  5  1  0 32 45.0020000  0  9G 1G30G 9G 4G25G 2G 5G 6G14
  -1435374.80746   1115738.42546  23652311.5894   23652316.2124
     -1472.9874
  -9036196.82948  -6908973.62647  20888289.8004   20888293.5714
     -1080.2304
  33556750.96445  26282294.77945  25461994.4144   25461998.8674
     -5750.7334
   4239499.50546   3379611.31746  23899754.9124   23899758.5854
     -2922.5264
  -1927847.22545  -1428852.47946  24592510.3784   24592516.6004
      1306.9684
  -4819479.34347  -3671993.85946  23157933.4624   23157936.2074
      -478.5194
   1272937.52748   1127033.31447  21566896.2884   21566900.6594
     -3397.7804
  -6252681.28246  -4747211.84046  23104446.3624   23104450.9244
      1326.0084
   8515124.87245  10704270.54546  23822135.4934   23822139.7884
     -4163.5284
 06  5  1  0 33  0.0030000  0  9G 1G30G 9G 4G25G 2G 5G 6G14
  -1413201.27646   1133016.50646  23656531.0624   23656535.3704
     -1483.2804
  -9019930.03548  -6896298.19947  20891385.2554   20891388.8504
     -1088.4964
  33643026.38345  26349522.39645  25478412.0934   25478416.6104
     -5751.8424
   4283414.30646   3413830.62746  23908111.6434   23908116.1564
     -2932.3484
  -1947421.55645  -1444105.15546  24588785.4744   24588790.7814
      1302.7894
  -4812224.92447  -3666341.03446  23159313.9054   23159316.4124
      -488.6524
   1323959.71448   1166790.85847  21576605.4894   21576609.8854
     -3404.7054
  -6272534.70146  -4762682.01946  23100668.3804   23100673.6554
      1320.9804
   8577636.63145  10752980.99846  23834031.0774   23834036.1784
     -4170.8074
 06  5  1  0 33 15.0030000  0  9G 1G30G 9G 4G25G 2G 5G 6G14
  -1390875.24746   1150413.41546  23660779.5654   23660783.9874
     -1493.4774
  -9003540.53348  -6883527.16047  20894504.0664   20894507.8314
     -1096.7184
  33729312.16945  26416758.06845  25494831.7604   25494836.5324
     -5752.8594
   4327473.14246   3448162.19646  23916495.7804   23916499.9604
     -2942.1164
  -1966932.45146  -1459308.43546  24585072.6424   24585078.5784
      1298.6964
  -4804819.13147  -3660570.26746  23160723.1514   23160725.8064
      -498.7324
   1375081.99248   1206626.40047  21586333.7434   21586337.9764
     -3411.5314
  -6292311.75646  -4778092.70546  23096904.9354   23096909.6724
      1316.0214
   8640252.81345  10801772.78646  23845946.5454   23845951.8924
     -4177.9694
 06  5  1  0 33 30.0030000  0  9G 1G30G 9G 4G25G 2G 5G 6G14
  -1368395.90146   1167929.79746  23665057.2434   23665061.7904
     -1503.7224
  -8987027.56148  -6870659.90847  20897646.3824   20897650.3994
     -1104.9524
  33815613.30444  26484005.72445  25511254.3054   25511260.7054
     -5753.8814
   4371678.37446   3482607.82846  23924907.7694   23924912.6174
     -2951.8714
  -1986381.38946  -1474463.44746  24581371.6094   24581376.7954
      1294.5624
  -4797262.02847  -3654681.60946  23162161.2134   23162163.4494
      -508.8364
   1426307.08448   1246542.05447  21596081.5604   21596085.7334
     -3418.4024
  -6312013.98646  -4793445.08446  23093155.7264   23093161.3364
      1311.0074
   8702976.57245  10850648.44445  23857882.4964   23857888.6614
     -4185.1334
 06  5  1  0 33 45.0030000  0  9G 1G30G 9G 4G25G 2G 5G 6G14
  -1345763.53846   1185565.40346  23669364.0264   23669368.3424
     -1513.9664
  -8970391.54948  -6857696.78447  20900812.1094   20900816.0624
     -1113.2254
  33901929.18744  26551264.73145  25527679.6214   25527685.4464
     -5754.9174
   4416029.33646   3517167.02046  23933347.5114   23933352.1354
     -2961.6244
  -2005768.64945  -1489570.36846  24577682.2874   24577687.2284
      1290.3764
  -4789553.71147  -3648675.12946  23163628.0384   23163630.1224
      -518.9894
   1477634.38848   1286537.35147  21605848.8284   21605852.8254
     -3425.2744
  -6331641.62046  -4808739.32946  23089420.7244   23089426.0644
      1305.9534
   8765807.10345  10899607.28646  23869838.7644   23869843.9874
     -4192.2934
 06  5  1  0 34  0.0030000  0  9G 1G30G 9G 4G25G 2G 5G 6G14
  -1322975.44846   1203322.36546  23673700.4284   23673705.6584
     -1524.3634
  -8953629.88148  -6844635.74647  20904001.7544   20904005.5514
     -1121.6004
  33988262.29643  26618537.35545  25544108.2604   25544112.3444
     -5756.0474
   4460528.56446   3551841.73946  23941815.4624   23941819.0654
     -2971.5094
  -2025091.23145  -1504626.89546  24574005.2674   24574010.4104
      1286.0484
  -4781691.31047  -3642548.56946  23165124.1814   23165126.1534
      -529.2524
   1529066.51148   1326614.32647  21615636.0384   21615640.2944
     -3432.2464
  -6351191.82546  -4823973.24646  23085700.4344   23085705.8494
      1300.8014
   8828746.70845  10948651.12646  23881815.7944   23881821.1194
     -4199.5654
 06  5  1  0 34 15.0030000  0  9G 1G30G 9G 4G25G 2G 5G 6G14
  -1300033.20946   1221199.43746  23678066.1564   23678070.7154
     -1534.6414
  -8936743.86948  -6831477.82447  20907215.0654   20907218.6644
     -1129.8994
  34074610.72744  26685821.80045  25560539.8474   25560545.1094
     -5757.0774
   4505174.40346   3586630.70146  23950311.2884   23950314.8514
     -2981.2854
  -2044350.34246  -1519633.97946  24570340.3274   24570345.2564
      1281.8044
  -4773676.24947  -3636303.06746  23166649.3764   23166652.1274
      -539.4524
   1580601.76948   1366771.66747  21625442.8744   21625446.8374
     -3439.1474
  -6370665.90846  -4839147.84546  23081994.6414   23082000.0264
      1295.6974
   8891793.64645  10997778.59346  23893813.2294   23893818.4494
     -4206.7214
 06  5  1  0 34 30.0030000  0  9G 1G30G 9G 4G25G 2G 5G 6G14
  -1276937.53046   1239196.07546  23682461.0844   23682465.9994
     -1544.7914
  -8919733.97848  -6818223.35947  20910451.9474   20910455.2494
     -1138.0764
  34160973.68744  26753117.62945  25576974.2034   25576980.5994
     -5757.9394
   4549966.02346   3621533.25546  23958834.8584   23958838.8434
     -2990.9364
  -2063546.47746  -1534591.97846  24566687.3924   24566692.1904
      1277.6814
  -4765509.14047  -3629939.08746  23168203.5084   23168206.1574
      -549.5114
   1632239.30248   1407008.70347  21635269.1774   21635273.3514
     -3445.8674
  -6390064.20146  -4854263.38446  23078303.2664   23078308.0214
      1290.7464
   8954946.77845  11046988.84446  23905830.8754   23905835.8254
     -4213.6994
 06  5  1  0 34 45.0030000  0  9G 1G30G 9G 4G25G 2G 5G 6G14
  -1253688.85546   1257311.91546  23686885.1264   23686890.1894
     -1555.0064
  -8902600.94348  -6804872.93947  20913712.2564   20913715.6564
     -1146.2934
  34247350.18644  26820423.95845  25593411.1114   25593416.5424
     -5758.8414
   4594902.58246   3656548.75746  23967386.0114   23967390.6274
     -3000.6164
  -2082679.77846  -1549501.02046  24563046.4484   24563050.6824
      1273.4534
  -4757190.17647  -3623456.77446  23169786.5434   23169789.1804
      -559.6574
   1683978.52148   1447324.96847  21645114.8344   21645119.4764
     -3452.6614
  -6409387.32246  -4869320.35346  23074626.1864   23074631.5794
      1285.6774
   9018205.33345  11096281.19646  23917868.5614   23917874.2314
     -4220.7314
 06  5  1  0 35  0.0030000  0  9G 1G30G 9G 4G25G 2G 5G 6G14
  -1230285.47646   1275548.31846  23691338.6134   23691343.5834
     -1565.3964
  -8885343.00848  -6791425.20147  20916996.3404   20916999.7664
     -1154.7174
  34333741.66444  26887741.99445  25609850.8874   25609856.3894
     -5759.9284
   4639985.85646   3691678.58846  23975965.0724   23975969.4324
     -3010.4284
  -2101748.25446  -1564359.56146  24559417.8354   24559422.4144
      1269.0574
  -4748717.51347  -3616854.69146  23171398.8374   23171401.1004
      -569.9814
   1735820.97848   1487721.68047  21654980.1404   21654984.4324
     -3459.6154
  -6428633.00946  -4884316.98046  23070963.8464   23070969.0194
      1280.4574
   9081570.69545  11145656.78746  23929926.6034   23929932.6624
     -4227.8984
 06  5  1  0 35 15.0030000  0  9G 1G30G 9G 4G25G 2G 5G 6G14
  -1206728.27346   1293904.57946  23695821.3834   23695826.4484
     -1575.5834
  -8867960.75348  -6777880.58847  20920304.0834   20920307.4944
     -1162.9214
  34420147.28044  26955071.07545  25626293.3664   25626298.4204
     -5760.8024
   4685214.57046   3726921.73046  23984571.8084   23984576.0544
     -3020.0864
  -2120752.58346  -1579168.10646  24555801.4234   24555806.0224
      1264.8464
  -4740091.68647  -3610133.27146  23173040.2954   23173042.8304
      -580.1464
   1787765.67248   1528198.06247  21664864.9034   21664869.2414
     -3466.3624
  -6447802.08646  -4899253.91546  23067316.0774   23067320.8044
      1275.4184
   9145041.61145  11195114.62646  23942004.7174   23942010.2104
     -4234.8794
 06  5  1  0 35 30.0030000  0  9G 1G30G 9G 4G25G 2G 5G 6G14
  -1183016.64046   1312381.17846  23700333.5594   23700338.9764
     -1585.9054
  -8850453.77448  -6764238.78547  20923635.5604   20923639.0514
     -1171.3014
  34506567.10444  27022411.13845  25642738.5334   25642743.2374
     -5761.7724
   4730589.13046   3762278.52646  23993206.2834   23993209.7404
     -3029.8174
  -2139691.92646  -1593926.01346  24552197.3854   24552202.0174
      1260.4624
  -4731312.04447  -3603291.98546  23174711.0234   23174713.1584
      -590.4374
   1839813.06948   1568754.46547  21674769.2064   21674773.0564
     -3473.2364
  -6466893.81046  -4914130.55746  23063683.0294   23063687.6694
      1270.2064
   9208618.26045  11244654.86746  23954102.9424   23954106.6824
     -4241.9454
 06  5  1  0 35 45.0030000  0  9G 1G30G 9G 4G25G 2G 5G 6G14
  -1159151.63846   1330977.29446  23704874.9064   23704880.1944
     -1596.1244
  -8832822.94548  -6750500.47847  20926990.6004   20926994.2594
     -1179.5454
  34592999.79244  27089761.25745  25659186.0914   25659189.2434
     -5762.6364
   4776108.38046   3797748.06946  24001868.3084   24001872.2494
     -3039.4634
  -2158566.97846  -1608633.84246  24548605.5824   24548610.7334
      1256.1684
  -4722379.38747  -3596331.46346  23176410.8534   23176413.1414
      -600.6424
   1891961.90848   1609389.92347  21684692.8104   21684696.9154
     -3479.9754
  -6485908.87646  -4928947.49046  23060064.5724   23060069.1314
      1265.1044
   9272299.18145  11294276.34945  23966221.0344   23966226.9054
     -4248.8704
 06  5  1  0 36  0.0030000  0  9G 1G30G 9G 4G25G 2G 5G 6G14
  -1135132.37046   1349693.59746  23709445.6194   23709451.5974
     -1606.4184
  -8815067.30448  -6736664.91547  20930369.3994   20930373.0494
     -1187.8434
  34679446.27244  27157122.17445  25675636.3034   25675642.3974
     -5763.5304
   4821773.07646   3833330.95646  24010557.9854   24010561.8714
     -3049.1514
  -2177376.59846  -1623290.68346  24545026.2514   24545029.8254
      1251.8104
  -4713292.64147  -3589250.87146  23178139.9914   23178142.3464
      -610.9174
   1944213.00548   1650105.06247  21694635.8694   21694639.9124
     -3486.8074
  -6504846.37646  -4943703.96246  23056460.8704   23056465.1594
      1259.9354
   9336084.97545  11343979.55846  23978359.0764   23978365.0714
     -4255.8734
 06  5  1  0 36 15.0030000  0  9G 1G30G 9G 4G25G 2G 5G 6G14
  -1110959.22946   1368529.80346  23714045.6274   23714051.0154
     -1616.6814
  -8797187.28448  -6722732.43047  20933771.8644   20933775.4664
     -1196.1804
  34765905.73444  27224493.20345  25692088.9784   25692094.4244
     -5764.4024
   4867582.59746   3869026.69146  24019275.2164   24019278.9134
     -3058.8274
  -2196120.98246  -1637896.66946  24541459.3094   24541463.3184
      1247.4294
  -4704051.99647  -3582050.35446  23179898.4204   23179900.5804
      -621.1854
   1996565.85448   1690899.48847  21704598.2944   21704602.4174
     -3493.5854
  -6523706.43146  -4958400.09646  23052871.9184   23052876.1534
      1254.7474
   9399975.06345  11393764.02946  23990516.9614   23990522.2494
     -4262.8184
 06  5  1  0 36 30.0030000  0  9G 1G30G 9G 4G25G 2G 5G 6G14
  -1086633.46046   1387484.95046  23718674.6564   23718679.7194
     -1626.8674
  -8779183.91148  -6708703.83447  20937197.8064   20937201.5544
     -1204.3714
  34852376.64945  27291873.08845  25708543.8544   25708549.5584
     -5765.1454
   4913535.48446   3904834.11146  24028019.7464   24028023.1414
     -3068.3604
  -2214801.05546  -1652452.56546  24537904.5934   24537909.3784
      1243.1314
  -4694658.70647  -3574730.89546  23181685.9164   23181687.6754
      -631.3614
   2049019.01848   1731772.08047  21714579.8044   21714583.6834
     -3500.2674
  -6542489.94146  -4973036.58646  23049297.5324   23049301.8634
      1249.6154
   9463967.74145  11443628.44246  24002694.3744   24002699.7804
     -4269.6404
 06  5  1  0 36 45.0030000  0  9G 1G30G 9G 4G25G 2G 5G 6G14
  -1062154.15346   1406559.72446  23723332.9084   23723337.6304
     -1637.0634
  -8761056.47048  -6694578.54947  20940647.3454   20940650.9184
     -1212.6344
  34938859.47645  27359262.28945  25725000.9894   25725007.3014
     -5765.9034
   4959632.53346   3940753.88246  24036791.6964   24036795.7114
     -3077.9254
  -2233415.67746  -1666957.44146  24534362.3374   24534367.3274
      1238.7954
  -4685111.65047  -3567291.63546  23183502.6894   23183504.1534
      -641.5934
   2101573.22648   1772723.41647  21724580.5304   21724584.2854
     -3506.9724
  -6561195.95746  -4987612.66846  23045737.8864   23045742.2664
      1244.4894
   9528063.50945  11493573.18446  24014891.4054   24014896.0794
     -4276.4754
 06  5  1  0 37  0.0030000  0  9G 1G30G 9G 4G25G 2G 5G 6G14
  -1037521.35546   1425754.12546  23728020.3824   23728025.6024
     -1647.3324
  -8742804.67448  -6680356.37047  20944120.5444   20944123.9364
     -1220.9434
  35025354.03844  27426660.67145  25741460.3594   25741465.3794
     -5766.7134
   5005873.36546   3976785.69946  24045591.0294   24045595.9624
     -3087.5304
  -2251964.47046  -1681411.02546  24530832.5884   24530836.9514
      1234.3914
  -4675410.56647  -3559732.34246  23185348.7694   23185349.8854
      -651.8824
   2154228.43948   1813753.44547  21734600.4754   21734604.4234
     -3513.7254
  -6579824.27346  -5002128.22446  23042193.0274   23042197.9014
      1239.2674
   9592262.19145  11543598.12446  24027108.0274   24027112.8494
     -4283.3564
 06  5  1  0 37 15.0030000  0  9G 1G30G 9G 4G25G 2G 5G 6G14
  -1012734.72246   1445068.37946  23732737.1304   23732742.2424
     -1657.5284
  -8724428.36348  -6666037.16547  20947617.4344   20947620.8074
     -1229.2244
  35111860.63845  27494068.35645  25757922.0314   25757926.8214
     -5767.4694
   5052258.29146   4012929.78546  24054417.7694   24054422.1104
     -3097.1034
  -2270446.92646  -1695812.93246  24527315.4624   24527319.9984
      1229.9804
  -4665555.08047  -3552052.73946  23187224.2414   23187225.3644
      -662.1644
   2206984.76248   1854862.26647  21744639.6594   21744643.7074
     -3520.4394
  -6598374.27846  -5016582.74646  23038663.0554   23038668.1864
      1234.0994
   9656563.64545  11593703.12746  24039344.1914   24039348.9144
     -4290.1524
 06  5  1  0 37 30.0030000  0  9G 1G30G 9G 4G25G 2G 5G 6G14
   -987794.55746   1464502.28246  23737483.1054   23737488.1754
     -1667.8844
  -8705927.57848  -6651620.97247  20951138.0134   20951141.1964
     -1237.6274
  35198378.36945  27561484.73645  25774385.8404   25774391.6294
     -5768.2954
   5098786.79746   4049185.76046  24063271.8354   24063276.3414
     -3106.7644
  -2288863.07846  -1710163.15046  24523810.9694   24523815.1174
      1225.4474
  -4655545.32247  -3544252.92146  23189129.0594   23189130.1984
      -672.5494
   2259841.84148   1896049.59647  21754698.0114   21754702.0874
     -3527.2404
  -6616846.06146  -5030976.34046  23035147.9664   23035152.5194
      1228.7614
   9720967.21245  11643887.71546  24051599.7914   24051605.4244
     -4297.0534
 06  5  1  0 37 45.0030000  0  9G 1G30G 9G 4G25G 2G 5G 6G14
   -962700.61846   1484056.00846  23742258.3364   23742264.1854
     -1677.9994
  -8687302.07548  -6637107.58947  20954682.3304   20954685.5974
     -1245.8104
  35284907.57345  27628910.12645  25790851.8614   25790856.7884
     -5768.9314
   5145458.83546   4085553.57746  24072153.2344   24072158.9924
     -3116.1954
  -2307212.29746  -1724461.21546  24520319.2274   24520323.7224
      1221.1054
  -4645380.76847  -3536332.47546  23191063.3194   23191064.8374
      -682.7354
   2312799.71248   1937315.46847  21764775.5594   21764780.0454
     -3533.8174
  -6635239.29246  -5045308.72146  23031647.8294   23031652.2824
      1223.6364
   9785472.63445  11694151.65545  24063874.7604   24063879.6294
     -4303.6834
 06  5  1  0 38  0.0030000  0  9G 1G30G 9G 4G25G 2G 5G 6G14
   -937453.32646   1503729.23546  23747062.7494   23747068.4664
     -1688.3094
  -8668552.23348  -6622497.32447  20958250.3084   20958253.6214
     -1254.1714
  35371447.56145  27696343.82545  25807319.9194   25807325.0554
     -5769.6884
   5192273.79846   4122032.76546  24081061.8364   24081067.1404
     -3125.8054
  -2325494.84746                  24516840.1694
      1216.5514
  -4635061.69147  -3528291.63146  23193026.9614   23193028.5944
      -693.1394
   2365857.78248   1978659.41047  21774872.1754   21774876.6804
     -3540.5864
  -6653553.98846  -5059579.88846  23028162.6444   23028166.8644
      1218.3074
   9850079.21145  11744494.43345  24076169.0034   24076174.2104
     -4310.5274
 06  5  1  0 38 15.0030000  0  9G 1G30G 9G 4G25G 2G 5G 6G14
   -912051.74846   1523522.66746  23751896.5074   23751901.6214
     -1698.5974
  -8649677.03948  -6607789.38347  20961842.1304   20961845.5554
     -1262.5444
  35457998.99245  27763786.53345  25823790.1454   25823795.8484
     -5770.4774
   5239232.58546   4158624.02946  24089997.7854   24090003.1814
     -3135.3904
  -2343709.40546                  24513374.0414
      1212.0114
  -4624587.03147  -3520129.54146  23195020.1934   23195022.1874
      -703.5134
   2419016.98548   2020082.16947  21784988.0384   21784992.8274
     -3547.3354
  -6671789.18646  -5073789.13246  23024692.6024   23024696.7254
      1213.0184
   9914787.72345  11794916.65946  24088482.6484   24088487.4084
     -4317.3054
 06  5  1  0 38 30.0030000  0  9G 1G30G 9G 4G25G 2G 5G 6G14
   -886497.29146   1543435.22146  23756759.3674   23756764.2504
     -1708.6834
  -8630677.90148  -6592984.86047  20965457.5454   20965461.0174
     -1270.7084
  35544560.17445  27831236.78445  25840262.2274   25840266.7704
     -5771.0264
   5286333.61846   4195326.13946  24098960.8094   24098965.2784
     -3144.7654
  -2361857.08746                  24509920.6444
      1207.6594
  -4613957.92547  -3511847.10746  23197042.8024   23197044.6234
      -713.7154
   2472275.77548   2061582.52347  21795122.8594   21795127.4214
     -3553.8554
  -6689946.05646  -5087937.32146  23021237.4624   23021242.1534
      1207.8974
   9979596.39045  11845416.88445  24100815.3064   24100820.6534
     -4323.8724
 06  5  1  0 38 45.0030000  0  9G 1G30G 9G 4G25G 2G 5G 6G14
   -860789.83946   1563467.02346  23761651.3524   23761656.0294
     -1718.9754
  -8611554.46448  -6578083.48547  20969096.6244   20969100.1544
     -1279.0834
  35631131.04645  27898694.57145  25856736.1254   25856742.7114
     -5771.7454
   5333576.72946   4232138.94946  24107950.8604   24107955.3564
     -3154.3154
  -2379937.50946                  24506480.0414
      1203.0614
  -4603174.01547  -3503444.04546  23199094.8894   23199097.0064
      -724.1274
   2525634.16648   2103160.49447  21805276.6274   21805281.2684
     -3560.5844
  -6708024.02746  -5102024.07146  23017797.3294   23017801.7474
      1202.5064
  10044505.02645  11895995.03445  24113167.0034   24113172.6244
     -4330.6054
 06  5  1  0 39  0.0030000  0  9G 1G30G 9G 4G25G 2G 5G 6G14
   -834928.77646   1583618.48346  23766572.5634   23766576.9404
     -1729.1564
  -8592306.31948  -6563084.92947  20972759.4284   20972763.2004
     -1287.3404
  35717711.93145  27966160.19545  25873211.9064   25873217.3354
     -5772.3724
   5380962.37446   4269062.82346  24116968.0334   24116971.9344
     -3163.7824
  -2397949.76846                  24503052.4164
      1198.5804
  -4592234.61147  -3494919.82246  23201176.5654   23201178.3104
      -734.4544
   2579092.51948   2144816.34947  21815449.4194   21815453.9824
     -3567.1834
  -6726022.51746  -5116048.85046  23014372.3304   23014377.3614
      1197.2684
  10109513.82945  11946651.23545  24125537.7734   24125542.8854
     -4337.2034
 06  5  1  0 39 15.0030000  0  9G 1G30G 9G 4G25G 2G 5G 6G14
   -808914.02546   1603889.72946  23771523.0174   23771527.6994
     -1739.3864
  -8572933.21448  -6547988.99747  20976446.0054   20976449.8924
     -1295.6644
  35804302.57045  28033633.41645  25889689.5904   25889694.9334
     -5772.9804
   5428490.44346   4306097.67546  24126012.3124   24126016.7724
     -3173.2344
  -2415893.54846     -5585.80946  24499637.8084   24499640.6494
      1194.0114
  -4581139.46647  -3486274.25246  23203287.8904   23203289.7664
      -744.8324
   2632650.82548   2186550.09947  21825641.2244   21825645.5334
     -3573.8314
  -6743941.23246  -5130011.48846  23010962.5004   23010967.4524
      1191.9634
  10174622.40845  11997385.14445  24137927.5634   24137933.7954
     -4343.8374
 06  5  1  0 39 30.0030000  0  9G 1G30G 9G 4G25G 2G 5G 6G14
   -782745.89046   1624280.48746  23776502.6554   23776507.2054
     -1749.6414
  -8553435.34848  -6532795.85547  20980156.3264   20980160.1074
     -1303.9734
  35890902.48245  28101113.84945  25906169.0324   25906173.5644
     -5773.6384
   5476160.39946   4343243.10546  24135083.5924   24135087.7864
     -3182.7184
  -2433768.85346    -19514.59546  24496236.2604   24496240.4184
      1189.4054
  -4569888.78147  -3477507.47746  23205428.8274   23205430.7334
      -755.2344
   2686308.65448   2228361.40247  21835851.9544   21835856.2464
     -3580.5014
  -6761780.09846  -5143911.89746  23007567.8674   23007572.6954
      1186.5924
  10239830.21045  12048196.42745  24150336.2044   24150341.2474
     -4350.5134
 06  5  1  0 39 45.0030000  0  9G 1G30G 9G 4G25G 2G 5G 6G14
   -756425.47746   1644789.89046  23781511.2664   23781515.5954
     -1759.8344
  -8533814.01448  -6517506.50447  20983890.1374   20983893.7294
     -1312.2744
  35977510.36745  28168600.55445  25922649.9764   25922655.3514
     -5774.1764
   5523971.00546   4380498.11846  24144181.6234   24144185.7604
     -3192.1054
  -2451576.54546    -33390.73346  24492847.5694   24492851.7344
      1184.8694
  -4558483.46147  -3468620.21646  23207599.2024   23207600.4904
      -765.5574
   2740064.78148   2270249.28847  21846081.3924   21846085.8754
     -3587.0704
  -6779540.19246  -5157750.92046  23004188.2114   23004192.8604
      1181.3484
  10305135.76845  12099083.86846  24162763.4544   24162767.5094
     -4356.9974
 06  5  1  0 40  0.0030000  0  9G 1G30G 9G 4G25G 2G 5G 6G14
   -729952.16446   1665418.44046  23786548.9634   23786553.0164
     -1770.0284
  -8514068.02148  -6502120.01347  20987647.6694   20987651.2624
     -1320.5784
  36064126.70445  28236093.74945  25939132.5414   25939136.7394
     -5774.7254
   5571922.76146   4417863.09946  24153306.5324   24153309.8294
     -3201.5004
  -2469315.56046    -47213.31246  24489471.9594   24489475.8474
      1180.2614
  -4546922.67947  -3459611.80846  23209799.1584   23209800.2204
      -775.9504
   2793919.75648   2312214.20247  21856329.6524   21856334.2854
     -3593.6584
  -6797220.53646  -5171527.81046  23000823.7444   23000828.7374
      1176.0004
  10370539.36845  12150047.70245  24175209.3954   24175213.7204
     -4363.5424
 06  5  1  0 40 15.0030000  0  9G 1G30G 9G 4G25G 2G 5G 6G14
   -703324.90646   1686166.93446  23791615.9574   23791620.9104
     -1780.3214
  -8494196.67948  -6486635.84747  20991429.0584   20991432.7034
     -1328.9894
  36150752.13343  28303594.09545  25955616.7974   25955621.7554
     -5775.3584
   5620016.52546   4455338.75946  24162458.4714   24162463.0214
     -3211.0224
  -2486984.57646    -60981.37346  24486109.6494   24486114.2694
      1175.5524
  -4535205.16847  -3450481.28446  23212028.9274   23212030.5544
      -786.4324
   2847874.53948   2354256.89347  21866596.9094   21866601.6104
     -3600.3384
  -6814819.84146  -5185241.54046  22997474.6954   22997479.6984
      1170.5454
  10436041.86845  12201088.59545  24187674.1274   24187677.9334
     -4370.1614
 06  5  1  0 40 30.0030000  0  9G 1G30G 9G 4G25G 2G 5G 6G14
   -676544.14246   1707035.06146  23796712.1664   23796717.5874
     -1790.5074
  -8474200.07048  -6471054.07447  20995234.2814   20995238.0264
     -1337.2834
  36237386.21343  28371101.14245  25972102.6364   25972107.2964
     -5775.9044
   5668251.60846   4492924.53146  24171637.3124   24171641.9164
     -3220.3754
  -2504583.78946    -74695.01446  24482760.5974   24482765.5444
      1170.9344
  -4523331.23547  -3441228.85546  23214288.4554   23214290.0684
      -796.8294
   2901928.49448   2396376.85547  21876883.0394   21876887.4024
     -3606.9064
  -6832338.30746  -5198892.29046  22994141.0314   22994145.7054
      1165.2014
  10501642.46845  12252205.94345  24200157.5194   24200162.0524
     -4376.6424
 06  5  1  0 40 45.0030000  0  9G 1G30G 9G 4G25G 2G 5G 6G14
   -649610.06846   1728022.65746  23801837.5464   23801842.3194
     -1800.6824
  -8454078.52848  -6455374.95247  20999063.2824   20999066.9514
     -1345.5734
  36324028.38943  28438614.51745  25988590.0564   25988598.3684
     -5776.3824
   5716627.59346   4530620.09246  24180842.9664   24180846.8404
     -3229.7284
  -2522113.10246    -88354.21546  24479424.8494   24479429.7274
      1166.3344
  -4511300.86847  -3431854.54546  23216577.7454   23216579.1214
      -807.2084
   2956081.32648   2438573.86547  21887187.9814   21887192.3614
     -3613.4464
  -6849776.01346  -5212480.10146  22990822.7214   22990827.6134
      1159.8454
  10567340.45945  12303399.16045  24212659.4864   24212663.3304
     -4383.0744
 06  5  1  0 41  0.0030000  0  9G 1G30G 9G 4G25G 2G 5G 6G14
   -622522.84246   1749129.60846  23806992.0624   23806997.1854
     -1810.9204
  -8433832.08448  -6439598.50147  21002916.0534   21002919.4374
     -1353.9504
  36410678.37143  28506133.96745  26005078.9864   26005084.7154
     -5776.9294
   5765144.37846   4568425.36546  24190075.4204   24190079.6794
     -3239.1644
  -2539572.35146   -101958.80546  24476102.4374   24476107.4834
      1161.6024
  -4499114.09347  -3422358.33846  23218896.7754   23218898.3924
      -817.6884
   3010332.83848   2480847.76947  21897511.7024   21897516.1574
     -3620.0654
  -6867132.71746  -5226004.79046  22987519.8424   22987524.9944
      1154.4014
  10633135.59545  12354668.08945  24225179.9034   24225183.9894
     -4389.5874
 06  5  1  0 41 15.0030000  0  9G 1G30G 9G 4G25G 2G 5G 6G14
   -595281.55746   1770356.56146  23812175.9014   23812180.3864
     -1821.1594
  -8413459.65048  -6423723.87547  21006792.7934   21006796.0774
     -1362.2854
  36497336.67743  28573659.90745  26021569.5144   26021573.9174
     -5777.4494
   5813802.50646   4606340.78546  24199334.7664   24199340.4204
     -3248.5034
  -2556960.23346   -115507.79246  24472793.6364   24472798.5394
      1156.8754
  -4486769.72047  -3412739.34146  23221245.8024   23221247.8244
      -828.1364
   3064683.81248   2523199.18247  21907854.3404   21907858.7784
     -3626.6234
  -6884407.40846  -5239465.58146  22984232.5674   22984237.1344
      1148.9724
  10699028.38245  12406013.12045  24237718.8914   24237722.6294
     -4396.0214
 06  5  1  0 41 30.0030000  0  9G 1G30G 9G 4G25G 2G 5G 6G14
   -567887.42446   1791702.62446  23817388.8314   23817393.4074
     -1831.3854
  -8392962.35348  -6407751.95747  21010693.3044   21010696.6164
     -1370.6674
  36584002.08043  28641191.34245  26038061.3924   26038064.6094
     -5777.8974
   5862600.75846   4644365.41846  24208620.7764   24208626.0944
     -3257.8794
  -2574277.74446   -129001.94646  24469498.2284   24469503.2934
      1152.1464
  -4474268.88047  -3402998.41546  23223624.5984   23223627.1214
      -838.6234
   3119132.86448   2565627.01347  21918215.6384   21918220.2664
     -3633.2264
  -6901600.97746  -5252863.16646  22980960.7354   22980965.5864
      1143.5144
  10765017.24945  12457432.99645  24250276.1754   24250279.8954
     -4402.4584
 06  5  1  0 41 45.0030000  0  9G 1G30G 9G 4G25G 2G 5G 6G14
   -540338.99546   1813168.94646  23822631.1304   23822635.6804
     -1841.6454
  -8372338.81148  -6391681.66347  21014617.8364   21014621.2514
     -1379.0694
  36670675.78943  28708729.35745  26054554.8324   26054557.5184
     -5778.4614
   5911540.22046   4682500.04446  24217933.6564   24217938.8274
     -3267.2914
  -2591523.09846   -142439.86946  24466216.5274   24466221.8724
      1147.3534
  -4461609.89647  -3393134.26046  23226033.4974   23226036.1194
      -849.1434
   3173681.40148   2608132.35947  21928595.8714   21928600.6834
     -3639.8214
  -6918711.90647  -5266196.35146  22977704.6274   22977709.0454
      1138.0334
  10831103.27045  12508928.60745  24262851.9344   24262855.7954
     -4408.9004
 06  5  1  0 42  0.0030000  0  9G 1G30G 9G 4G25G 2G 5G 6G14
   -512636.07046   1834755.63546  23827902.8304   23827907.5414
     -1852.0854
  -8351588.70448  -6375512.74647  21018566.4514   21018569.7054
     -1387.6334
  36757357.58543  28776273.58145  26071049.7984   26071057.6144
     -5779.1154
   5960620.95446   4720744.76846  24227273.4234   24227278.1494
     -3276.8154
  -2608695.83346   -155821.21746  24462948.6574   24462953.6954
      1142.3464
  -4448792.50147  -3383146.67546  23228472.5534   23228474.8814
      -859.8524
   3228329.45848   2650715.25447  21938995.0454   21938999.8354
     -3646.5884
  -6935739.57947  -5279464.65046  22974464.3764   22974468.6514
      1132.3284
  10897286.36845  12560499.80245  24275446.1664   24275450.9174
     -4415.4874
 06  5  1  0 42 15.0030000  0  9G 1G30G 9G 4G25G 2G 5G 6G14
   -484779.09446   1856462.38446  23833203.8334   23833208.3164
     -1862.1824
  -8330712.34548  -6359245.45247  21022539.0894   21022542.4414
     -1395.8644
  36844046.98743  28843823.74845  26087546.2454   26087553.6184
     -5779.4374
   6009842.40646   4759099.14046  24236639.9774   24236644.7834
     -3286.0354
  -2625795.98246   -169145.99146  24459694.5914   24459699.1654
      1137.6934
  -4435816.80147  -3373035.74046  23230941.7484   23230943.8934
      -870.2254
   3283076.59148   2693375.35347  21949413.0804   21949417.5624
     -3653.0024
  -6952684.18847  -5292668.23046  22971239.9254   22971244.1494
      1126.9754
  10963565.77245  12612146.09745  24288058.7524   24288062.7534
     -4421.7384
 06  5  1  0 42 30.0030000  0  9G 1G30G 9G 4G25G 2G 5G 6G14
   -456769.62246   1878287.95146  23838533.8684   23838539.7634
     -1872.4214
  -8309711.36948  -6342881.04947  21026535.4364   21026539.0074
     -1404.2554
  36930742.09643  28911378.37745  26104043.7554   26104050.3664
     -5779.8474
   6059202.91046   4797561.88146  24246032.9794   24246038.8384
     -3295.3784
  -2642824.82146   -182415.20146  24456454.1164   24456459.0424
      1132.8344
  -4422684.21747  -3362802.55346  23233440.7944   23233442.3054
      -880.7584
   3337921.02948   2736111.27947  21959849.6324   21959853.9884
     -3659.5684
  -6969547.22846  -5305808.24846  22968030.9884   22968035.8214
      1121.4354
  11029939.68745  12663866.01745  24300689.2794   24300693.2224
     -4428.0974
 06  5  1  0 42 45.0030000  0  9G 1G30G 9G 4G25G 2G 5G 6G14
   -428606.22946   1900233.44846  23843893.1814   23843898.1394
     -1882.6514
  -8288584.21448  -6326418.33447  21030555.7924   21030559.2364
     -1412.6504
  37017444.20043  28978938.37645  26120542.5904   26120549.3844
     -5780.3394
   6108703.45946   4836133.73746  24255452.6244   24255458.5724
     -3304.6514
  -2659780.68246   -195627.55246  24453227.5314   24453231.8614
      1127.9924
  -4409393.25147  -3352445.94846  23235969.9914   23235971.7474
      -891.3124
   3392864.09148   2778924.05247  21970304.9494   21970309.5014
     -3666.1244
  -6986326.89046  -5318883.28546  22964837.9254   22964842.7944
      1115.9254
  11096408.98245  12715660.26445  24313337.9404   24313342.1074
     -4434.4264
 06  5  1  0 43  0.0030000  0  9G 1G30G 9G 4G25G 2G 5G 6G14
   -400290.77546   1922297.44146  23849281.4404   23849286.9834
     -1892.8274
  -8267332.40948  -6309858.48347  21034599.8684   21034603.3984
     -1421.0124
  37104151.33643  29046502.41445  26137042.3794   26137046.9614
     -5780.7034
   6158342.15546   4874813.22246  24264898.5614   24264904.0294
     -3313.9224
  -2676665.07646   -208784.21946  24450014.5434   24450019.2434
      1123.1574
  -4395945.59647  -3341967.25846  23238528.9994   23238530.5734
      -901.8154
   3447903.85048   2821812.16947  21980778.6804   21980782.9154
     -3672.6074
  -7003025.03946  -5331894.81546  22961660.3704   22961665.8054
      1110.4024
  11162971.61545  12767527.24145  24326004.3834   24326009.7534
     -4440.6794
 06  5  1  0 43 15.0030000  0  9G 1G30G 9G 4G25G 2G 5G 6G14
   -371823.79246   1944479.51546  23854698.5274   23854703.6934
     -1902.7944
  -8245956.71748  -6293202.09947  21038667.5254   21038670.9944
     -1429.1384
  37190862.59843  29114069.60745  26153542.9864   26153547.5654
     -5780.8224
   6208118.28746   4913599.81646  24274370.6404   24274375.9574
     -3322.9394
  -2693478.13846   -221885.27446  24446815.1244   24446820.0724
      1118.5474
  -4382341.42947  -3331366.60246  23241117.7974   23241119.5754
      -912.1174
   3503039.68348   2864775.15947  21991270.6884   21991274.4964
     -3678.8784
  -7019641.70246  -5344842.83946  22958498.3224   22958503.4444
      1105.0944
  11229626.72445  12819466.26845  24338688.4114   24338692.8074
     -4446.6924
 06  5  1  0 43 30.0030000  0  9G 1G30G 9G 4G25G 2G 5G 6G14
   -343205.07246   1966779.81246  23860144.5024   23860149.3934
     -1913.0594
  -8224456.65148  -6276448.80047  21042758.8434   21042762.5104
     -1437.5674
  37277578.14643  29181640.23045  26170044.3974   26170047.9264
     -5781.2584
   6258031.98946   4952493.60546  24283868.9104   24283872.8344
     -3332.2524
  -2710219.35246   -234930.37646  24443629.3514   24443634.7134
      1113.5954
  -4368580.41847  -3320643.71946  23243736.4314   23243738.2384
      -922.7184
   3558271.71548   2907813.10547  22001781.0064   22001785.0174
     -3685.4254
  -7036176.49546  -5357727.08146  22955351.8434   22955356.9644
      1099.4984
  11296374.28945  12871477.34545  24351390.0584   24351394.0134
     -4453.0034
 06  5  1  0 43 45.0030000  0  9G 1G30G 9G 4G25G 2G 5G 6G14
   -314433.55246   1989199.17546  23865619.5594   23865624.4634
     -1923.1814
  -8202831.15148  -6259597.75947  21046874.0324   21046877.8714
     -1445.8694
  37364298.62343  29249214.55345  26186546.7694   26186552.3304
     -5781.5304
   6308084.08946   4991495.24346  24293393.5164   24293397.4934
     -3341.3794
  -2726887.44846   -247918.48146  24440457.5014   24440461.6674
      1108.7654
  -4354661.39247  -3309797.71446  23246385.1374   23246387.3324
      -933.1844
   3613600.85348   2950926.71247  22012309.7864   22012313.7084
     -3691.8324
  -7052628.10946  -5370546.50946  22952221.1894   22952225.9424
      1094.0074
  11363214.97245  12923560.98445  24364109.4174   24364112.5014
     -4459.1354
 06  5  1  0 44  0.0030000  0  9G 1G30G 9G 4G25G 2G 5G 6G14
   -285509.16446   2011737.66246  23871123.6934   23871128.6704
     -1933.3414
  -8181080.06148  -6242648.85847  21051013.1224   21051017.0014
     -1454.2114
  37451024.03743  29316792.85945  26203050.0804   26203055.2214
     -5781.8494
   6358274.52646   5030604.66846  24302944.4284   24302949.4564
     -3350.6144
  -2743481.93446   -260849.24046  24437299.6624   24437304.2384
      1103.8914
  -4340584.12647  -3298828.41246  23249063.9654   23249066.0874
      -943.7074
   3669027.10948   2994115.99647  22022857.0484   22022861.4524
     -3698.2684
  -7068996.25247  -5383300.89646  22949106.4254   22949111.2074
      1088.4654
  11430148.59045  12975717.05145  24376846.4584   24376850.3224
     -4465.2844
 06  5  1  0 44 15.0030000  0  8G 1G30G 4G25G 2G 5G 6G14
   -256432.42146   2034394.85146  23876656.8124   23876662.1214
     -1943.4814
  -8159203.77748  -6225602.40547  21055176.0404   21055179.9774
     -1462.5404
   6408602.47846   5069821.25246  24312521.5244   24312524.8944
     -3359.7464
  -2760003.04246   -273722.82146  24434155.7964   24434160.4844
      1098.9974
  -4326348.94547  -3287736.05146  23251772.8314   23251774.9344
      -954.2424
   3724549.84748   3037380.46947  22033422.6874   22033427.2854
     -3704.6854
  -7085281.16646  -5395990.42346  22946007.4894   22946011.8104
      1082.9164
  11497174.25045  13027944.84145  24389601.0264   24389605.3634
     -4471.3884
 06  5  1  0 44 30.0030000  0  8G 1G30G 4G25G 2G 5G 6G14
   -227203.34546   2057170.76246  23882218.9254   23882223.8094
     -1953.6964
  -8137202.31148  -6208458.40147  21059362.7784   21059366.5474
     -1470.9624
   6459067.90746   5109144.95446  24322124.7854   24322128.7554
     -3368.9524
  -2776450.41746   -286538.95446  24431025.9624   24431029.9304
      1093.9984
  -4311955.52847  -3276520.39846  23254511.8134   23254513.8184
      -964.8434
   3780168.97448   3080720.04747  22044006.6654   22044011.0174
     -3711.1704
  -7101482.57846  -5408614.88946  22942924.4364   22942928.9304
      1077.3024
  11564291.65145  13080244.08545  24402373.0384   24402376.6824
     -4477.5504
 06  5  1  0 44 45.0030000  0  8G 1G30G 4G25G 2G 5G 6G14
   -197822.13446   2080065.22646  23887809.9774   23887814.3744
     -1963.8734
  -8115075.69148  -6191216.87647  21063573.3324   21063576.8684
     -1479.3474
   6509670.34946   5148575.42746  24331754.1224   24331758.1414
     -3378.1374
  -2792823.95446   -299297.53946  24427910.1824   24427914.5834
      1089.0324
  -4297404.06947  -3265181.60446  23257280.8694   23257282.8914
      -975.4294
   3835884.23048   3124134.53247  22054608.9354   22054613.1954
     -3717.6064
  -7117600.52746  -5421174.32346  22939857.2854   22939861.6354
      1071.6814
  11631500.32645  13132614.45745  24415162.4194   24415166.1384
     -4483.6604
 06  5  1  0 45  0.0030000  0  8G 1G30G 4G25G 2G 5G 6G14
   -168288.98646   2103078.07246  23893429.9264   23893434.3944
     -1973.9214
  -8092824.02048  -6173877.91147  21067807.6764   21067811.2704
     -1487.5774
   6560409.47546   5188112.39246  24341409.4594   24341413.9504
     -3387.1334
  -2809123.50946   -311998.48546  24424808.4694   24424812.8324
      1084.1944
  -4282694.69647  -3253719.74946  23260079.9734   23260082.0094
      -985.8734
   3891695.19548   3167623.59547  22065229.4174   22065233.5204
     -3723.9064
  -7133635.03747  -5433668.73746  22936806.0084   22936810.1024
      1066.1854
  11698799.72445  13185055.52945  24427969.0694   24427972.2594
     -4489.5974
 06  5  1  0 45 15.0030000  0  8G 1G30G 4G25G 2G 5G 6G14
   -138603.88846   2126209.32546  23899078.8134   23899083.6784
     -1984.0444
  -8070447.31848  -6156441.52647  21072065.8164   21072069.2204
     -1495.9254
   6611285.10446   5227755.73846  24351090.7764   24351095.1334
     -3396.2314
  -2825348.71046   -324641.49246  24421720.9294   24421725.4104
      1079.2134
  -4267827.05047  -3242134.56546  23262909.1734   23262911.0444
      -996.4294
   3947601.96548   3211187.30647  22075868.1354   22075872.3514
     -3730.2804
  -7149585.75446  -5446097.86046  22933770.6784   22933775.3774
      1060.6084
  11766189.48345  13237567.04445  24440792.9334   24440796.5254
     -4495.6284
 06  5  1  0 45 30.0030000  0  8G 1G30G 4G25G 2G 5G 6G14
   -108766.88546   2149458.94246  23904756.6084   23904760.9624
     -1994.2134
  -8047945.40548  -6138907.56147  21076347.7814   21076351.2524
     -1504.3174
   6662296.99146   5267505.25346  24360798.0104   24360801.8734
     -3405.3404
  -2841499.30446   -337226.35346  24418647.5754   24418652.4664
      1074.2024
  -4252801.03047  -3230425.97046  23265768.5114   23265770.8474
     -1007.0324
   4003604.29948   3254825.49147  22086525.0384   22086529.0724
     -3736.6934
  -7165452.41847  -5458461.48246  22930751.3374   22930755.7374
      1054.9434
  11833669.38245  13290148.74645  24453633.9474   24453639.1024
     -4501.6654
 06  5  1  0 45 45.0030000  0  8G 1G30G 4G25G 2G 5G 6G14
    -78777.19746   2172827.53646  23910463.4604   23910467.5584
     -2004.3904
  -8025317.44448  -6121275.39047  21080653.7434   21080657.5574
     -1512.7244
   6713445.94146   5307361.57346  24370531.3604   24370535.3294
     -3414.4674
  -2857574.15146   -349752.20246  24415588.6344   24415593.5404
      1069.1434
  -4237615.54647  -3218593.11446  23268658.1774   23268660.2054
     -1017.6704
   4059702.98148   3298538.74447  22097200.2794   22097204.2714
     -3743.1064
  -7181233.89246  -5470758.73946  22927748.2154   22927752.4374
      1049.2864
  11901239.89845  13342801.09645  24466492.2214   24466497.0304
     -4507.6994
 06  5  1  0 46  0.0030000  0  8G 1G30G 4G25G 2G 5G 6G14
    -48635.18346   2196314.81046  23916199.2904   23916203.5624
     -2014.5604
  -8002563.82948  -6103545.30147  21084983.6124   21084987.3294
     -1521.1294
   6764731.27646   5347324.16746  24380290.6674   24380294.9964
     -3423.5514
  -2873573.29346   -362219.05646  24412544.0974   24412549.2624
      1064.0534
  -4222270.87347  -3206636.21546  23271578.1574   23271580.2214
     -1028.3014
   4115897.55448   3342326.72447  22107893.7704   22107897.4034
     -3749.5014
  -7196930.58347  -5482989.91146  22924761.2214   22924765.2524
      1043.5834
  11968900.28645  13395523.46645  24479367.5754   24479371.1864
     -4513.6924
 06  5  1  0 46 15.0030000  0  8G 1G30G 4G25G 2G 5G 6G14
    -18338.55646   2219922.56546  23921964.5354   23921969.3134
     -2024.8444
  -7979681.83848  -6085715.17847  21089337.9054   21089341.7674
     -1529.6544
   6816155.07546   5387394.64946  24390076.2854   24390081.1124
     -3432.7714
  -2889494.08546   -374624.85046  24409514.4594   24409519.2684
      1058.8554
  -4206764.60947  -3194553.40546  23274528.8984   23274530.9664
     -1039.0574
   4172190.14948   3386191.08747  22118605.8994   22118609.7604
     -3756.0304
  -7212539.75847  -5495152.90646  22921790.8894   22921795.3514
      1037.7534
  12036652.42645  13448317.32445  24492260.3964   24492265.9284
     -4519.7934
 06  5  1  0 46 30.0030000  0  8G 1G30G 4G25G 2G 5G 6G14
     12110.26046   2243648.91546  23927758.7524   23927763.5284
     -2034.8594
  -7956674.14848  -6067787.10547  21093716.1234   21093719.7094
     -1537.9054
   6867714.76746   5427571.02046  24399887.7894   24399891.7014
     -3441.6994
  -2905338.67346   -386971.27846  24406499.3154   24406503.6564
      1053.8904
  -4191098.93847  -3182346.38846  23277509.9654   23277511.6514
     -1049.5634
   4228578.26148   3430129.87647  22129336.1944   22129340.2444
     -3762.2594
  -7228063.54447  -5507249.34846  22918836.7954   22918840.8934
      1032.2224
  12104493.71545  13501180.64945  24505170.1774   24505173.9414
     -4525.5774
 06  5  1  0 46 45.0030000  0  8G 1G30G 4G25G 2G 5G 6G14
     42710.92246   2267493.59446  23933581.8614   23933586.7114
     -2045.1234
  -7933541.04648  -6049761.30847  21098118.2034   21098121.6934
     -1546.4164
   6919409.82846   5467852.87246  24409725.0384   24409727.6704
     -3450.8704
  -2921107.03346   -399258.29946  24403498.6864   24403503.0294
      1048.6524
  -4175274.07347  -3170015.31546  23280521.3224   23280522.8824
     -1060.3384
   4285061.45848   3474142.75647  22140084.5854   22140088.9284
     -3768.7254
  -7243502.22447  -5519279.47746  22915898.9084   22915903.3774
      1026.3854
  12172423.44945  13554112.88045  24518096.7874   24518101.5754
     -4531.5884
 06  5  1  0 47  0.0030000  0  8G 1G30G 4G25G 2G 5G 6G14
     73461.71146   2291455.24946  23939433.5434   23939438.0174
     -2055.0934
  -7910283.95548  -6031638.89847  21102543.8754   21102547.4814
     -1554.6474
   6971238.51246   5508238.88246  24419587.7384   24419591.3954
     -3459.7644
  -2936800.57246   -411487.02546  24400512.2814   24400516.6894
      1043.7004
  -4159291.33047  -3157561.22546  23283562.7014   23283564.6204
     -1070.7984
   4341637.94348   3518228.32447  22150850.7204   22150855.1744
     -3774.9124
  -7258857.15646  -5531244.34946  22912976.9444   22912981.5684
      1020.8284
  12240439.51245  13607112.40945  24531039.8684   24531043.7494
     -4537.3304
 06  5  1  0 47 15.0030000  0  8G 1G30G 4G25G 2G 5G 6G14
    104363.71046   2315534.73946  23945314.0034   23945318.4874
     -2065.2124
  -7886901.72548  -6013418.97647  21106993.3584   21106996.9184
     -1563.0214
   7023201.59746   5548729.59146  24429475.9614   24429480.0954
     -3468.7204
  -2952417.79046   -423656.27046  24397540.4104   24397544.8264
      1038.5534
  -4143149.84347  -3144983.43246  23286634.2794   23286636.5034
     -1081.4404
   4398308.76948   3562387.39947  22161634.8164   22161639.3624
     -3781.2284
  -7274126.90846  -5543142.84446  22910071.2034   22910075.6494
      1015.0904
  12308542.76845  13660179.86645  24543999.4674   24544003.2754
     -4543.1414
 06  5  1  0 47 30.0030000  0  8G 1G30G 4G25G 2G 5G 6G14
    135418.85746   2339733.54746  23951223.6034   23951228.7344
     -2075.4024
  -7863392.38748  -5995100.01147  21111467.0314   21111470.5934
     -1571.4564
   7075300.91046   5589326.43846  24439390.1294   24439395.5184
     -3477.7914
  -2967956.42646   -435764.28546  24394583.4824   24394588.5014
      1033.3264
  -4126847.39447  -3132280.21946  23289736.5004   23289739.2184
     -1092.1514
   4455075.76348   3606621.41747  22172437.2124   22172441.5714
     -3787.6284
  -7289309.30947  -5554973.27346  22907182.0744   22907186.6054
      1009.2694
  12376734.97645  13713316.63445  24556975.9884   24556979.6724
     -4549.0374
 06  5  1  0 47 45.0030000  0  8G 1G30G 4G25G 2G 5G 6G14
    166623.57046   2364048.91646  23957161.6734   23957166.6574
     -2085.3734
  -7839759.33848  -5976684.64547  21115964.2434   21115967.8204
     -1579.7234
   7127532.79046   5630026.60646  24449329.4944   24449333.6914
     -3486.6074
  -2983419.69146   -447813.57746  24391640.8984   24391645.8784
      1028.2944
  -4110387.24447  -3119454.13046  23292868.7444   23292871.5204
     -1102.6724
   4511935.32048   3650927.55947  22183257.2234   22183261.5984
     -3793.7844
  -7304407.67747  -5566738.22046  22904308.9314   22904313.4024
      1003.6904
  12445012.18345  13766519.64145  24569968.7244   24569973.8334
     -4554.7074
 06  5  1  0 48  0.0030000  0  8G 1G30G 4G25G 2G 5G 6G14
    197978.52846   2388481.36446  23963128.3344   23963132.6474
     -2095.3124
  -7816001.81048  -5958172.28247  21120485.1414   21120488.6914
     -1587.9674
   7179897.55346   5670830.30945  24459294.1524   24459299.5524
     -3495.4184
  -2998806.61446   -459803.37246  24388712.8524   24388717.1634
      1023.2694
  -4093768.56847  -3106504.51046  23296031.1754   23296033.9044
     -1113.1704
   4568887.95448   3695306.22547  22194094.9494   22194099.3504
     -3799.9114
  -7319421.17446  -5578437.03846  22901451.9434   22901456.6554
       998.1044
  12513374.87145  13819789.25345  24582977.7074   24582981.8314
     -4560.3194
 06  5  1  0 48 15.0030000  0  8G 1G30G 4G25G 2G 5G 6G14
    229484.56346   2413031.51946  23969123.7334   23969128.0254
     -2105.3474
  -7792119.03948  -5939562.32947  21125029.8724   21125033.6164
     -1596.2884
   7232396.04445   5711738.21645  24469284.2594   24469289.8414
     -3504.2844
  -3014116.03546   -471732.78346  24385799.5664   24385803.4984
      1018.1334
  -4076990.46747  -3093430.64946  23299223.9514   23299226.1074
     -1123.7704
   4625934.42548   3739758.01047  22204950.5374   22204955.0394
     -3806.1404
  -7334348.83047  -5590068.96246  22898611.2984   22898616.1194
       992.3734
  12581823.45945  13873125.78345  24596003.0604   24596007.2124
     -4566.0264
 06  5  1  0 48 30.0030000  0  8G 1G30G 4G25G 2G 5G 6G14
    261140.71046   2437698.64746  23975147.7074   23975151.6674
     -2115.4194
  -7768111.75948  -5920855.35947  21129598.3004   21129602.0554
     -1604.6274
   7285026.92245   5752749.31045  24479299.5274   24479304.4554
     -3513.1464
  -3029348.54546   -483602.26746  24382900.9274   24382904.7364
      1012.9224
  -4060053.68647  -3080233.15346  23302446.9254   23302448.8204
     -1134.4104
   4683073.68248   3784282.10147  22215823.7854   22215828.0764
     -3812.3854
  -7349191.12947  -5601634.38946  22895786.8944   22895791.2094
       986.6234
  12650356.64445  13926528.24845  24609044.5204   24609048.9964
     -4571.6874
 06  5  1  0 48 45.0030000  0  8G 1G30G 4G25G 2G 5G 6G14
    292948.81446   2462484.19046  23981200.5824   23981205.1574
     -2125.6684
  -7743978.07448  -5902049.89047  21134190.7864   21134194.1984
     -1613.1754
   7337792.01345   5793864.95245  24489340.3824   24489345.8764
     -3522.1994
  -3044501.94246   -495410.09946  24380017.3354   24380021.6254
      1007.5284
  -4042956.25247  -3066910.46946  23305700.4824   23305702.7054
     -1145.2514
   4740307.50948   3828879.87947  22226715.0294   22226719.3174
     -3818.8044
  -7363946.05847  -5613131.73146  22892979.1334   22892983.2974
       980.6624
  12718975.86845  13979997.78645  24622102.3184   24622106.4074
     -4577.5364
 06  5  1  0 49  0.0040000  0  8G 1G30G 4G25G 2G 5G 6G14
    324911.98746   2487390.56546  23987282.9804   23987287.9824
     -2135.6044
  -7719715.44048  -5883143.94647  21138807.8104   21138811.2544
     -1621.4344
   7390695.72845   5835088.61145  24499407.5974   24499413.3364
     -3530.9634
  -3059575.85946   -507156.00446  24377148.8574   24377153.1464
      1002.4054
  -4025695.75147  -3053460.72946  23308985.0654   23308987.2894
     -1155.7974
   4797640.68848   3873555.08147  22237625.1754   22237629.5974
     -3824.9064
  -7378613.29047  -5624560.73746  22890188.0564   22890192.0974
       975.0304
  12787686.53545  14033538.53145  24635177.5334   24635181.1194
     -4583.0614
 06  5  1  0 49 15.0040000  0  8G 1G30G 4G25G 2G 5G 6G14
    357020.83946   2512410.43446  23993393.0774   23993397.4624
     -2145.5434
  -7695331.78448  -5864143.69247  21143447.8724   21143451.3144
     -1629.7014
   7443725.58245   5876410.55245  24509498.8454   24509503.9064
     -3539.6734
  -3074573.10946   -518842.16246  24374294.9744   24374299.2684
       997.2654
  -4008279.51647  -3039889.63046  23312299.2714   23312301.0634
     -1166.3504
   4855060.33648   3918297.65947  22248551.7714   22248556.3404
     -3831.0234
  -7393195.79247  -5635923.71846  22887413.0904   22887417.3494
       969.3294
  12856474.01345  14087139.13745  24648267.3614   24648271.7714
     -4588.5774
 06  5  1  0 49 30.0040000  0  8G 1G30G 4G25G 2G 5G 6G14
    389281.82146   2537548.86546  23999532.1204   23999537.1814
     -2155.7894
  -7670821.13448  -5845044.48447  21148112.1004   21148115.6994
     -1638.2704
   7496889.17346   5917836.73145  24519615.5604   24519621.0034
     -3548.7054
  -3089490.08746   -530465.77046  24371456.3654   24371460.4194
       991.7814
  -3990701.83147  -3026192.72346  23315644.1924   23315645.9704
     -1177.2224
   4912574.49548   3963113.88547  22259496.3624   22259501.2194
     -3837.4154
  -7407689.91347  -5647217.82646  22884654.9294   22884659.5344
       963.3254
  12925346.99445  14140806.38545  24661373.5214   24661377.0354
     -4594.3714
 06  5  1  0 49 45.0040000  0  8G 1G30G 4G25G 2G 5G 6G14
    421693.57546   2562804.78846  24005699.8624   24005705.4534
     -2165.8644
  -7646185.00048  -5825847.50147  21152800.2094   21152803.7064
     -1646.6604
   7550185.24246   5959366.13446  24529757.4504   24529762.7384
     -3557.5164
  -3104327.63546   -542027.46946  24368632.8604   24368636.8614
       986.4684
  -3972963.86247  -3012370.92346  23319019.6034   23319021.3044
     -1187.9184
   4970181.82548   4008002.71247  22270458.6804   22270463.3394
     -3843.6374
  -7422096.72646  -5658443.90746  22881913.3904   22881918.1994
       957.4724
  12994303.80445  14194538.96645  24674495.6034   24674498.9504
     -4599.9604
 06  5  1  0 50  0.0040000  0  8G 1G30G 4G25G 2G 5G 6G14
    454255.30146   2588177.56846  24011896.1554   24011900.9914
     -2175.6814
  -7621423.88448  -5806553.12347  21157512.0974   21157515.5444
     -1654.7874
   7603612.70846   6000997.91046  24539924.3824   24539929.6844
     -3566.0934
  -3119086.31846   -553527.74146  24365824.3694   24365828.2714
       981.3654
  -3955066.38647  -2998424.83346  23322425.3514   23322427.1394
     -1198.3934
   5027881.40448   4052963.41647  22281438.5464   22281442.8644
     -3849.6134
  -7436416.82447  -5669602.40646  22879188.3534   22879193.4394
       951.8604
  13063343.44345  14248336.07945  24687633.4094   24687637.5484
     -4605.3174
 06  5  1  0 50 15.0040000  0  8G 1G30G 4G25G 2G 5G 6G14
    486965.10446   2613665.72946  24018120.6304   24018125.4624
     -2185.6194
  -7596539.47248  -5787162.67247  21162247.4474   21162250.9984
     -1663.0964
   7657169.60046   6042730.53846  24550115.9654   24550120.4934
     -3574.8134
  -3133767.57346   -564967.67446  24363030.6104   24363034.8024
       976.1204
  -3937010.85147  -2984355.58346  23325861.1624   23325862.6584
     -1209.0154
   5085671.29648   4097994.49147  22292435.5964   22292439.9994
     -3855.7064
  -7450651.67647  -5680694.49946  22876479.5594   22876484.2004
       946.1104
  13132463.74445  14302196.00545  24700786.5594   24700790.5994
     -4610.7314
 06  5  1  0 50 30.0040000  0  8G 1G30G 4G25G 2G 5G 6G14
    519823.69746   2639269.83346  24024373.4204   24024378.4094
     -2195.5694
  -7571531.06848  -5767675.60747  21167006.3914   21167010.1114
     -1671.4114
   7710856.36746   6084564.39546  24560332.2404   24560337.4954
     -3583.5024
  -3148370.37646   -576346.46946  24360251.7874   24360255.9994
       970.8524
  -3918796.51347  -2970162.58846  23329327.2014   23329329.2474
     -1219.6384
   5143552.15548   4143096.45247  22303449.9674   22303454.2614
     -3861.7924
  -7464800.49647  -5691719.54046  22873787.1284   22873792.3004
       940.3094
  13201665.03644  14356119.11745  24713955.1344   24713959.4874
     -4616.1784
 06  5  1  0 50 45.0040000  0  8G 1G30G 4G25G 2G 5G 6G14
    552833.45846   2664991.70446  24030654.9804   24030659.2884
     -2205.5364
  -7546396.23448  -5748090.01047  21171789.3854   21171792.9894
     -1679.7404
   7764675.26946   6126501.18046  24570573.6654   24570578.0004
     -3592.1974
  -3162891.93246   -587661.96946  24357488.4174   24357492.1844
       965.5264
  -3900420.91447  -2955843.95046  23332823.9434   23332826.4084
     -1230.2814
   5201526.29048   4188271.09947  22314482.0894   22314486.2514
     -3867.8984
  -7478860.58447  -5702675.43946  22871111.5684   22871116.9244
       934.5124
  13270949.36445  14410106.88245  24727139.5234   24727143.2954
     -4621.5654
 06  5  1  0 51  0.0040000  0  8G 1G30G 4G25G 2G 5G 6G14
    585990.47946   2690828.35046  24036964.5654   24036969.0444
     -2215.3414
  -7521138.63848  -5728408.76647  21176595.7394   21176599.2774
     -1687.8934
   7818622.44346   6168537.94646  24580839.4794   24580843.0814
     -3600.6994
  -3177335.80746   -598916.91046  24354739.8184   24354744.2884
       960.3674
  -3881887.70647  -2941402.47946  23336350.6814   23336352.7944
     -1240.7574
   5259589.72348   4233515.32347  22325531.1984   22325535.1514
     -3873.8314
  -7492835.30347  -5713564.81946  22868452.2504   22868457.4084
       928.8454
  13340312.77645  14464156.25145  24740338.9524   24740342.9614
     -4626.8374
 06  5  1  0 51 15.0040000  0  8G 1G30G 4G25G 2G 5G 6G14
    619295.74946   2716780.51446  24043302.3484   24043307.0454
     -2225.1184
  -7495757.27748  -5708631.08547  21181425.6464   21181429.0924
     -1696.0574
   7872698.25746   6210674.92746  24591129.7714   24591134.1964
     -3609.1564
  -3191700.65046   -610110.29446  24352006.2504   24352010.7274
       955.1874
  -3863195.80047  -2926837.35046  23339907.6354   23339909.2714
     -1251.2624
   5317743.38848   4278829.86247  22336597.4664   22336601.7634
     -3879.7384
  -7506723.75747  -5724386.98146  22865809.3564   22865814.2674
       923.1894
  13409755.95345  14518267.83745  24753553.5794   24753556.0034
     -4632.0114
 06  5  1  0 51 30.0040000  0  8G 1G30G 4G25G 2G 5G 6G14
    652746.65646   2742846.15446  24049667.8244   24049672.2994
     -2234.9354
  -7470254.74248  -5688758.97947  21186278.6104   21186282.0024
     -1704.2364
   7926900.08846   6252910.12146  24601444.0314   24601448.3144
     -3617.7034
  -3205988.81046   -621243.89946  24349287.2854   24349291.6334
       949.9674
  -3844347.56447  -2912150.40146  23343494.3484   23343496.2434
     -1261.7874
   5375984.57648   4324212.59347  22347680.3874   22347684.9314
     -3885.6754
  -7520528.07346  -5735143.57946  22863182.4624   22863187.7764
       917.4574
  13479275.57545  14572438.97345  24766782.7154   24766785.8904
     -4637.2064
 06  5  1  0 51 45.0040000  0  8G 1G30G 4G25G 2G 5G 6G14
    686344.97246   2769026.69146  24056061.3374   24056066.4894
     -2244.7474
  -7444629.08148  -5668790.93647  21191155.0144   21191158.5584
     -1712.4234
   7981229.77246   6295244.91946  24611782.6334   24611787.1854
     -3626.1684
  -3220198.02346   -632316.01246  24346583.3474   24346588.0824
       944.7024
  -3825341.04447  -2897340.11446  23347111.1724   23347112.7194
     -1272.3274
   5434315.02648   4369664.88047  22358780.3114   22358784.5824
     -3891.6174
  -7534246.17846  -5745832.99746  22860571.9774   22860577.0744
       911.6914
  13548873.32245  14626670.94945  24780026.7454   24780031.2404
     -4642.4044
 06  5  1  0 52  0.0040000  0  8G 1G30G 4G25G 2G 5G 6G14
    720090.37246   2795321.81346  24062482.8464   24062488.8974
     -2254.6214
  -7418880.51248  -5648727.10947  21196054.8094   21196058.5384
     -1720.7124
   8035686.71146   6337678.88446  24622145.4654   24622150.1454
     -3634.7364
  -3234328.23746   -643326.55446  24343894.4414   24343899.0764
       939.3494
  -3806176.47747  -2882406.68446  23350758.0734   23350760.1564
     -1282.9444
   5492734.37648   4415186.44947  22369897.1414   22369901.1954
     -3897.6144
  -7547878.23546  -5756455.36746  22857977.8724   22857982.7264
       905.9244
  13618548.75145  14680963.49045  24793285.5694   24793291.7354
     -4647.6384
 06  5  1  0 52 15.0040000  0  8G 1G30G 4G25G 2G 5G 6G14
    753984.15046   2821732.54146  24068932.6014   24068937.4444
     -2264.5604
  -7393007.51248  -5628566.33547  21200978.2784   21200981.9504
     -1729.0354
   8090272.02146   6380212.88046  24632532.7104   24632536.8944
     -3643.3164
  -3248377.80046   -654274.25646  24341220.9054   24341225.0564
       933.9164
  -3786852.26147  -2867348.85746  23354435.3674   23354437.2534
     -1293.6354
   5551243.89448   4460778.26647  22381031.1354   22381035.3384
     -3903.6644
  -7561422.70847  -5767009.48446  22855400.4244   22855405.1104
       900.0094
  13688302.76145  14735317.25045  24806559.3494   24806563.6964
     -4652.8904
 06  5  1  0 52 30.0040000  0  8G 1G30G 4G25G 2G 5G 6G14
    788026.74146   2848259.24446  24075410.6324   24075416.0054
     -2274.4284
  -7367009.65748  -5608308.27247  21205925.5104   21205928.7784
     -1737.3244
   8144986.07646   6422847.20246  24642944.4594   24642951.1514
     -3651.8504
  -3262345.99046   -665158.55546  24338562.8404   24338566.6544
       928.5304
  -3767367.81047  -2852166.16046  23358143.1514   23358145.2834
     -1304.2634
   5609843.83548   4506440.54647  22392182.3394   22392186.4004
     -3909.6334
  -7574878.80647  -5777494.74746  22852839.8044   22852844.3944
       894.1644
  13758135.38145  14789732.22745  24819848.0844   24819851.7674
     -4658.1034
 06  5  1  0 52 45.0040000  0  8G 1G30G 4G25G 2G 5G 6G14
    822217.21546   2874901.16646  24081916.8384   24081922.0664
     -2284.3204
  -7340887.85848  -5587953.62347  21210896.3304   21210899.6064
     -1745.6224
   8199827.64846   6465580.89246  24653380.4644   24653386.2924
     -3660.3894
  -3276233.29046   -675979.82846  24335920.1904   24335923.3264
       923.0954
  -3747724.03447  -2836859.32346  23361881.2474   23361883.4044
     -1314.9264
   5668533.29748   4552172.58447  22403350.5714   22403355.1584
     -3915.6334
  -7588247.20047  -5787911.66746  22850295.8644   22850300.1044
       888.2714
  13828045.59045  14844207.73445  24833151.5524   24833155.8774
     -4663.2824
 06  5  1  0 53  0.0040000  0  8G 1G30G 4G25G 2G 5G 6G14
    856554.63146   2901657.58846  24088451.0124   24088456.3884
     -2294.0834
  -7314642.82948  -5567502.94647  21215890.5944   21215894.2184
     -1753.7894
   8254795.69846   6508413.13846  24663840.5544   24663845.9694
     -3668.7664
  -3290040.33846   -686738.54746  24333292.8084   24333296.9094
       917.7574
  -3727921.58347  -2821428.84146  23365649.5424   23365652.0094
     -1325.4774
   5727311.33348   4597973.64647  22414535.6504   22414540.0994
     -3921.4994
  -7601528.54747  -5798260.75646  22847768.4984   22847772.9024
       882.4824
  13898032.34245  14898742.84445  24846469.5824   24846474.8044
     -4668.3414
 06  5  1  0 53 15.0040000  0  8G 1G30G 4G25G 2G 5G 6G14
    891039.40246   2928528.83046  24095013.2194   24095018.6904
     -2303.9094
  -7288273.95848  -5546955.77447  21220908.4274   21220911.7674
     -1762.0654
   8309890.55946   6551344.18446  24674324.7734   24674329.7734
     -3677.2104
  -3303766.21846   -697434.03246  24330680.8564   24330684.6784
       912.3554
  -3707959.86647  -2805874.24546  23369448.1444   23369450.2144
     -1336.0954
   5786178.22048   4643843.93947  22425737.6534   22425742.3564
     -3927.4294
  -7614722.06847  -5808541.41346  22845257.8424   22845262.4294
       876.6314
  13968095.52745  14953337.51845  24859802.1944   24859806.9134
     -4673.4344
 06  5  1  0 53 30.0040000  0  8G 1G30G 4G25G 2G 5G 6G14
    925671.58546   2955514.92846  24101603.5104   24101608.4344
     -2313.7144
  -7261781.14148  -5526312.01947  21225949.8474   21225953.5564
     -1770.3264
   8365111.98946   6594373.85845  24684833.0624   24684838.2734
     -3685.6234
  -3317410.57846   -708065.99346  24328084.4224   24328088.4664
       906.8934
  -3687838.66147  -2790195.37946  23373277.0764   23373279.1054
     -1346.7354
   5845134.03048   4689783.52147  22436956.5774   22436961.0654
     -3933.3434
  -7627827.49247  -5818753.42846  22842763.9554   22842768.9604
       870.7334
  14038234.96545  15007991.58945  24873149.3064   24873154.7074
     -4678.4914
 06  5  1  0 53 45.0040000  0  8G 1G30G 4G25G 2G 5G 6G14
    960452.18846   2982616.70646  24108222.0354   24108227.2544
     -2323.7954
  -7235163.26948  -5505570.82347  21231015.0644   21231018.6554
     -1778.8254
   8420461.00746   6637502.97046  24695365.6374   24695370.0944
     -3694.3064
  -3330971.98846   -718633.31246  24325503.7614   24325507.8824
       901.1774
  -3667556.78947  -2774391.32546  23377136.5774   23377138.0664
     -1357.6194
   5904179.72648   4735793.14847  22448192.6074   22448196.8304
     -3939.5144
  -7640843.54247  -5828895.79546  22840287.0814   22840292.1904
       864.6194
  14108451.40245  15062705.71645  24886511.0674   24886515.2464
     -4683.8164
 06  5  1  0 54  0.0040000  0  8G 1G30G 4G25G 2G 5G 6G14
    995381.66246   3009834.48146  24114868.8874   24114874.7944
     -2333.5354
  -7208419.79648  -5484731.74947  21236104.1814   21236107.6484
     -1787.0374
   8475937.91346   6680731.72545  24705922.5504   24705928.1794
     -3702.6614
  -3344449.60646   -729135.34146  24322939.0454   24322942.8334
       895.7664
  -3647113.64447  -2758461.60746  23381026.7624   23381028.8404
     -1368.1954
   5963315.73948   4781873.15447  22459445.8244   22459450.0224
     -3945.3444
  -7653769.41647  -5838967.89546  22837827.3624   22837832.4174
       858.7834
  14178745.10145  15117480.00345  24899887.5294   24899891.0534
     -4688.7474
 06  5  1  0 54 15.0040000  0  8G 1G30G 4G25G 2G 5G 6G14
   1030457.10346   3037165.98246  24121543.5484   24121548.1784
     -2343.3364
  -7181553.48848  -5463796.95347  21241216.6714   21241220.1964
     -1795.3004
   8531539.49346   6724057.62546  24716503.1754   24716508.5114
     -3711.0434
  -3357845.94046   -739574.02946  24320389.7954   24320393.3794
       890.2564
  -3626511.81447  -2742408.22646  23384947.1414   23384949.2034
     -1378.8534
   6022539.05348   4828021.19447  22470715.6434   22470719.5574
     -3951.2344
  -7666607.69347  -5848971.74246  22835384.3194   22835389.6154
       852.8494
  14249112.89745  15172312.04245  24913278.0774   24913280.9024
     -4693.7604
 06  5  1  0 54 30.0040000  0  8G 1G30G 4G25G 2G 5G 6G14
   1065679.95246   3064612.36246  24128246.2544   24128251.1244
     -2353.0914
  -7154562.62148  -5442765.10347  21246352.8614   21246356.3544
     -1803.5274
   8587267.24346   6767481.83146  24727107.8284   24727113.1264
     -3719.3664
  -3371159.18346   -749947.99046  24317856.3674   24317860.5934
       884.7924
  -3605749.78047  -2726230.01646  23388898.0164   23388900.2064
     -1389.4684
   6081851.10848   4874238.36747  22482002.3504   22482006.4154
     -3957.0784
  -7679356.70747  -5858906.03046  22832958.2604   22832963.3114
       846.9514
  14319555.90845  15227202.68145  24926682.9594   24926686.8574
     -4698.7004
 06  5  1  0 54 45.0040000  0  8G 1G30G 4G25G 2G 5G 6G14
   1101049.34846   3092172.93046  24134976.8474   24134981.3174
     -2362.7874
  -7127448.02748  -5421636.84247  21251512.6004   21251515.8474
     -1811.7154
   8643119.98246   6811003.43445  24737736.2904   24737739.9534
     -3727.6264
  -3384389.81746   -760257.56046  24315338.6364   24315342.6474
       879.3424
  -3584828.25147  -2709927.52246  23392879.2564   23392881.4334
     -1400.0334
   6141251.01348   4920523.99347  22493305.7814   22493309.8084
     -3962.8704
  -7692016.94947  -5868771.15346  22830549.0814   22830554.3194
       841.1214
  14390072.95745  15282151.01245  24940101.9374   24940104.6574
     -4703.5454
 06  5  1  0 55  0.0040000  0  8G 1G30G 4G25G 2G 5G 6G14
   1136567.13846   3119849.12946  24141735.6944   24141740.4334
     -2372.7384
  -7100207.87848  -5400410.75547  21256696.2284   21256699.5184
     -1820.1424
   8699099.48346   6854623.82346  24748388.8574   24748393.4234
     -3736.1044
  -3397535.64346   -770501.03846  24312837.0494   24312841.4534
       873.6084
  -3563745.22647  -2693499.18746  23396891.2334   23396893.3964
     -1410.8524
   6200740.59048   4966879.49947  22504626.2784   22504630.2314
     -3968.8884
  -7704586.51447  -5878565.60946  22828157.1534   22828161.9444
       835.0104
  14460665.70745  15337158.34845  24953535.3154   24953538.3234
     -4708.6104
 06  5  1  0 55 15.0040000  0  8G 1G30G 4G25G 2G 5G 6G14
   1172231.55446   3147639.58146  24148522.4444   24148526.9774
     -2382.4554
  -7072843.80348  -5379088.09347  21261903.4334   21261906.7024
     -1828.3584
   8755203.85846   6898341.51245  24759065.1874   24759070.0864
     -3744.3954
  -3410597.98846   -780679.47446  24310351.3614   24310355.5864
       868.0774
  -3542502.31547  -2676946.26846  23400933.6304   23400935.4684
     -1421.4744
   6260317.92748   5013303.38947  22515963.4694   22515967.6464
     -3974.7044
  -7717066.65747  -5888290.38246  22825782.2504   22825786.7234
       829.0764
  14531332.01645  15392222.99145  24966982.6754   24966986.8644
     -4713.4854
 06  5  1  0 55 30.0040000  0  8G 1G30G 4G25G 2G 5G 6G14
   1208041.08346   3175543.11346  24155336.7774   24155341.0114
     -2392.2234
  -7045357.00148  -5357669.80447  21267134.0004   21267137.7654
     -1836.5914
   8811431.37546   6942155.14746  24769764.9484   24769769.2344
     -3752.6694
  -3423577.96946   -790793.72846  24307881.3454   24307885.5894
       862.5184
  -3521100.81747  -2660269.76146  23405006.2024   23405008.0604
     -1432.1264
   6319981.54648   5059794.50647  22527317.0914   22527321.2764
     -3980.5174
  -7729458.67947  -5897946.49646  22823424.1174   22823428.7154
       823.1154
  14602070.20145  15447343.62045  24980443.7044   24980448.0044
     -4718.3454
 06  5  1  0 55 45.0040000  0  8G 1G30G 4G25G 2G 5G 6G14
   1243996.19246   3203560.08146  24162178.8134   24162182.8264
     -2401.9564
  -7017747.11948  -5336155.60647  21272387.9814   21272391.9514
     -1844.8734
   8867782.25246   6986064.91246  24780488.1834   24780492.6934
     -3760.9414
  -3436474.77246   -800843.17946  24305427.1634   24305430.8904
       856.9134
  -3499540.20447  -2643469.29346  23409109.0504   23409110.6934
     -1442.7774
   6379731.88148   5106353.19947  22538687.2134   22538691.4034
     -3986.3334
  -7741761.77947  -5907533.32046  22821082.9114   22821087.4664
       817.1414
  14672880.40944  15502520.40945  24993918.4464   24993921.3594
     -4723.1674
 06  5  1  0 56  0.0040000  0  8G 1G30G 4G25G 2G 5G 6G14
   1280098.57446   3231691.81046  24169048.8694   24169053.2264
     -2411.7474
  -6990012.20948  -5314543.98347  21277665.7564   21277669.5364
     -1853.1574
   8924258.28746   7030072.21446  24791235.2304   24791240.2904
     -3769.2364
  -3449286.28946   -810826.17646  24302989.2214   24302993.4034
       851.2384
  -3477818.49947  -2626543.28346  23413242.5604   23413244.3954
     -1453.4994
   6439570.57448   5152980.74847  22550074.1334   22550078.3654
     -3992.1984
  -7753974.04147  -5917049.35746  22818758.9944   22818763.6534
       811.1024
  14743764.03844  15557754.38545  25007407.1254   25007411.7034
     -4728.0254
 06  5  1  0 56 15.0040000  0  8G 1G30G 4G25G 2G 5G 6G14
   1316347.73746   3259937.89346  24175946.8354   24175951.8924
     -2421.5034
  -6962152.59148  -5292835.18647  21282967.2604   21282970.7024
     -1861.4714
   8980858.64246   7074176.37446  24802005.9444   24802009.9154
     -3777.5134
  -3462012.70046   -820742.84246  24300567.4734   24300571.4414
       845.5684
  -3455936.09047  -2609492.05346  23417406.6474   23417408.6444
     -1464.1904
   6499497.03948   5199676.68347  22561477.7654   22561482.2334
     -3998.0244
  -7766095.64747  -5926494.75846  22816452.3224   22816457.2734
       805.0744
  14814720.35844  15613044.99745  25020909.6874   25020913.9624
     -4732.8454
 06  5  1  0 56 30.0040000  0  8G 1G30G 4G25G 2G 5G 6G14
   1352742.68346   3288297.59046  24182872.5604   24182878.1464
     -2431.0924
  -6934169.36248  -5271030.07147  21288292.2904   21288295.8794
     -1869.5704
   9037582.25946   7118376.57546  24812800.0874   24812804.1364
     -3785.5874
  -3474654.44546   -830593.54746  24298161.8394   24298165.7444
       840.0494
  -3433893.69447  -2592316.16746  23421601.1724   23421603.3194
     -1474.7324
   6559510.34948   5246440.29547  22572897.9204   22572902.1994
     -4003.6724
  -7778127.20447  -5935869.99446  22814162.7944   22814167.4094
       799.2174
  14885748.25344  15668391.42745  25034425.8314   25034431.5884
     -4737.4694
 06  5  1  0 56 45.0040000  0  8G 1G30G 4G25G 2G 5G 6G14
   1389282.44446   3316770.13446  24189825.8264   24189830.9914
     -2440.8194
  -6906063.12148  -5249129.09547  21293640.7304   21293644.3474
     -1877.8614
   9094428.11446   7162672.03646  24823617.5154   24823622.0574
     -3793.7744
  -3487212.25346   -840378.84846  24295772.1754   24295776.0494
       834.3814
  -3411692.18847  -2575016.28646  23425825.9664   23425828.2624
     -1485.4134
   6619609.36948   5293270.70047  22584334.3834   22584338.6404
     -4009.4694
  -7790069.51147  -5945175.67946  22811890.2504   22811894.6244
       793.1684
  14956846.47744  15723792.61345  25047955.3794   25047960.5074
     -4742.2164
 06  5  1  0 57  0.0040000  0  8G 1G30G 4G25G 2G 5G 6G14
   1425967.40646   3345355.80846  24196806.7444   24196812.1484
     -2450.5294
  -6877833.45048  -5227131.93347  21299012.6654   21299016.4714
     -1886.1124
   9151396.25546   7207062.79946  24834458.1804   24834462.9384
     -3801.9774
  -3499685.25846   -850098.06946  24293398.6364   24293402.5884
       828.6574
  -3389330.99247  -2557591.97246  23430081.1374   23430083.1264
     -1496.1074
   6679794.53248   5340168.21147  22595787.2414   22595791.6054
     -4015.2454
  -7801921.87847  -5954411.28646  22809634.8224   22809639.2974
       787.1204
  15028015.11144  15779248.65845  25061498.3254   25061503.5274
     -4746.9474
 06  5  1  0 57 15.0040000  0  8G 1G30G 4G25G 2G 5G 6G14
   1462798.79246   3374055.60246  24203815.5144   24203820.8374
     -2460.2924
  -6849478.94248  -5205037.50647  21304408.3424   21304411.6854
     -1894.4364
   9208487.83946   7251549.71845  24845322.3384   24845326.8324
     -3810.1794
  -3512071.81446   -859749.91546  24291041.5514   24291045.0304
       822.9014
  -3366808.69747  -2540042.12946  23434366.9674   23434368.8204
     -1506.8414
   6740067.08548   5387133.82747  22607256.7324   22607261.1144
     -4021.0664
  -7813682.71747  -5963575.57446  22807396.8184   22807401.3154
       781.0124
  15099255.08544  15834760.35545  25075054.8494   25075058.8254
     -4751.7134
 06  5  1  0 57 30.0040000  0  8G 1G30G 4G25G 2G 5G 6G14
   1499776.41246   3402869.34946  24210852.1074   24210857.5024
     -2470.0294
  -6820999.77748  -5182845.94447  21309827.7374   21309830.7434
     -1902.7124
   9265702.37646   7296132.47146  24856209.9114   24856215.0854
     -3818.3774
  -3524371.84146   -869334.33746  24288700.9254   24288704.7514
       817.1294
  -3344125.38147  -2522366.81146  23438683.4564   23438685.7024
     -1517.5644
   6800426.72748   5434167.30447  22618742.8034   22618747.2664
     -4026.8484
  -7825351.88847  -5972668.42946  22805176.2644   22805180.7604
       774.9124
  15170565.88544  15890327.17845  25088624.8074   25088628.3684
     -4756.3884
 06  5  1  0 57 45.0040000  0  8G 1G30G 4G25G 2G 5G 6G14
   1536900.01246   3431796.83546  24217916.4954   24217922.1034
     -2479.7694
  -6792396.09648  -5160557.35847  21315270.8384   21315273.5974
     -1911.0714
   9323039.86046   7340811.01746  24867120.8634   24867126.1444
     -3826.5994
  -3536585.07746   -878851.14446  24286376.8104   24286380.6634
       811.3194
  -3321281.15447  -2504566.11646  23443030.5834   23443032.2544
     -1528.3254
   6860873.17948   5481268.42847  22630245.3844   22630249.8144
     -4032.6604
  -7836929.38747  -5981689.85046  22802973.1574   22802977.5344
       768.7704
  15241947.07145  15945948.84445  25102208.2304   25102212.7534
     -4761.0994
 06  5  1  0 58  0.0040000  0  8G 1G30G 4G25G 2G 5G 6G14
   1574168.11146   3460836.89546  24225008.3884   24225013.3044
     -2489.4014
  -6763669.10348  -5138172.68247  21320737.4044   21320740.6174
     -1919.2924
   9380498.40746   7385583.90146  24878054.8724   24878060.2494
     -3834.6364
  -3548712.63446   -888301.18246  24284068.9904   24284072.9454
       805.6014
  -3298277.24847  -2486640.98946  23447408.0984   23447409.6924
     -1538.9654
   6921404.99548   5528436.06547  22641764.2054   22641768.4424
     -4038.3494
  -7848416.36647  -5990640.72746  22800787.2744   22800791.2254
       762.7264
  15313397.01045  16001624.10845  25115804.7094   25115808.3184
     -4765.6514
 06  5  1  0 58 15.0040000  0  8G 1G30G 4G25G 2G 5G 6G14
   1611581.13846   3489989.90946  24232127.8724   24232132.4694
     -2499.1344
  -6734818.33748  -5115691.56447  21326227.5254   21326231.0864
     -1927.6114
   9438078.42346   7430451.44846  24889012.0054   24889017.5884
     -3842.8114
  -3560753.58846   -897683.72146  24281777.6534   24281781.9264
       799.7404
  -3275113.01747  -2468590.94146  23451816.1244   23451818.2774
     -1549.7264
   6982022.58848   5575670.54747  22653299.3464   22653303.5314
     -4044.1404
  -7859812.01947  -5999520.45046  22798618.7634   22798622.6244
       756.5774
  15384915.87244  16057353.08345  25129414.3004   25129418.9254
     -4770.3224
 06  5  1  0 58 30.0040000  0  8G 1G30G 4G25G 2G 5G 6G14
   1649139.55746   3519256.20546  24239274.9994   24239280.1604
     -2508.7374
  -6705843.11248  -5093113.45447  21331741.3194   21331744.6354
     -1935.8334
   9495780.08346   7475413.77046  24899992.2814   24899996.9984
     -3850.8094
  -3572707.18946   -906998.20446  24279502.9434   24279507.0254
       793.9924
  -3251787.95947  -2450415.56946  23456254.7424   23456256.6424
     -1560.3764
   7042726.34548   5622972.16547  22664850.8934   22664855.4514
     -4049.7844
  -7871115.76447  -6008328.54046  22796467.7294   22796471.9744
       750.5184
  15456503.79045  16113135.85645  25143037.0754   25143041.3014
     -4774.8264
 06  5  1  0 58 45.0040000  0  8G 1G30G 4G25G 2G 5G 6G14
   1686842.83346   3548635.39046  24246449.7004   24246454.7494
     -2518.3994
  -6676743.90948  -5070438.74147  21337278.7074   21337281.6134
     -1944.1034
   9553602.80646   7520470.40946  24910995.6014   24911000.4554
     -3858.9124
  -3584573.53546   -916244.69846  24277244.8394   24277249.3214
       788.1494
  -3228302.34847  -2432115.08146  23460723.9004   23460725.9604
     -1571.0844
   7103515.71148   5670340.49547  22676418.7234   22676423.0264
     -4055.5004
  -7882327.72447  -6017065.11946  22794334.1494   22794338.2554
       744.3754
  15528159.92444  16168971.80345  25156672.8234   25156676.7694
     -4779.3774
 06  5  1  0 59  0.0040000  0  8G 1G30G 4G25G 2G 5G 6G14
   1724691.20446   3578127.61146  24253652.0204   24253657.3714
     -2528.0564
  -6647520.33048  -5047667.11847  21342839.7704   21342842.4074
     -1952.3444
   9611546.70246   7565621.49346  24922021.9774   24922026.3474
     -3866.9664
  -3596351.94746   -925422.67446  24275003.4634   24275007.9234
       782.3064
  -3204655.84047  -2413689.23046  23465223.6754   23465225.9234
     -1581.7904
   7164390.93947   5717775.73147  22688002.8834   22688007.0824
     -4061.1914
  -7893447.35347  -6025729.74246  22792218.1464   22792222.3724
       738.2404
  15599884.35745  16224860.94845  25170321.5494   25170324.4424
     -4783.8964
 06  5  1  0 59 15.0040000  0  8G 1G30G 4G25G 2G 5G 6G14
   1762684.06546   3607732.44246  24260881.8064   24260885.9424
     -2537.6754
  -6618172.93348  -5024799.01447  21348424.3834   21348427.4734
     -1960.6414
   9669610.90446   7610866.32546  24933071.2374   24933076.9704
     -3874.9644
  -3608042.62546   -934532.27446  24272778.7854   24272783.1254
       776.4414
  -3180848.78547  -2395138.26546  23469753.9934   23469756.1484
     -1592.4844
   7225351.35347   5765277.34647  22699603.2554   22699607.8264
     -4066.8674
  -7904474.97347  -6034322.68746  22790119.6484   22790123.8984
       732.1184
  15671676.26445  16280802.67345  25183983.1304   25183986.8904
     -4788.3814
 06  5  1  0 59 30.0040000  0  8G 1G30G 4G25G 2G 5G 6G14
   1800820.83046   3637449.38346  24268138.9874   24268143.4354
     -2547.2704
  -6588701.96248  -5001834.62247  21354032.5264   21354035.8764
     -1968.8494
   9727794.94346   7656204.52646  24944143.3174   24944147.8234
     -3882.9364
  -3619645.73946   -943573.65746  24270570.7884   24270575.0764
       770.5934
  -3156881.63747  -2376462.55946  23474314.7814   23474316.7004
     -1603.1694
   7286396.42847   5812844.93747  22711219.7344   22711224.6124
     -4072.5124
  -7915410.81347  -6042844.10446  22788038.6114   22788043.3564
       725.9814
  15743534.84144  16336796.35145  25197657.4064   25197660.7374
     -4792.8234
 06  5  1  0 59 45.0040000  0  8G 1G30G 4G25G 2G 5G 6G14
   1839103.29546   3667279.86646  24275423.8824   24275428.0324
     -2556.9504
  -6559105.62748  -4978772.52647  21359664.5114   21359668.0084
     -1977.1764
   9786100.29446   7701637.24546  24955238.4724   24955243.8094
     -3891.0024
  -3631159.05446   -952545.06846  24268379.8884   24268384.2444
       764.6364
  -3132752.47547  -2357660.61346  23478906.4114   23478908.2034
     -1613.9444
   7347527.95347   5860479.87747  22722852.6734   22722857.5364
     -4078.2534
  -7926252.73847  -6051292.35246  22785975.4534   22785980.2064
       719.7324
  15815461.69444  16392843.24245  25211344.6314   25211348.4774
     -4797.3214
 06  5  1  1  0  0.0040000  0  8G 1G30G 4G25G 2G 5G 6G14
   1877530.88546   3697223.40846  24282736.3954   24282741.0764
     -2566.5994
  -6529384.26648  -4955613.01847  21365320.2904   21365323.7844
     -1985.5124
   9844526.16546   7747163.89146  24966356.5364   24966362.0564
     -3898.9834
  -3642582.82446   -961446.70546  24266206.0064   24266210.2884
       758.6644
  -3108461.63947  -2338732.69046  23483528.8014   23483530.4574
     -1624.7074
   7408745.25547   5908181.66147  22734501.9444   22734506.9644
     -4083.9334
  -7937001.05547  -6059667.65146  22783930.1024   22783934.7284
       713.5014
  15887455.82044  16448942.56545  25225044.7054   25225048.7504
     -4801.7534
 06  5  1  1  0 15.0040000  0  8G 1G30G 4G25G 2G 5G 6G14
   1916102.15446   3727278.93246  24290076.2814   24290081.0054
     -2576.2004
  -6499539.35648  -4932357.24547  21370999.5804   21371002.5544
     -1993.7874
   9903071.23846   7792783.40545  24977497.3204   24977503.0494
     -3906.9594
  -3653917.99546   -970279.28646  24264048.9824   24264053.4184
       752.7344
  -3084010.49547  -2319679.84546  23488181.7004   23488183.9514
     -1635.4194
   7470046.91548   5955949.18347  22746167.2864   22746172.1214
     -4089.5834
  -7947656.86147  -6067970.86646  22781902.3504   22781906.4934
       707.2934
  15959515.63844  16505093.04345  25238757.2584   25238762.4694
     -4806.1754
 06  5  1  1  0 30.0040000  0  8G 1G30G 4G25G 2G 5G 6G14
   1954817.46446   3757446.69246  24297443.5564   24297448.5454
     -2585.7444
  -6469570.25248  -4909004.69747  21376702.5134   21376705.2574
     -2001.9864
   9961735.57446   7838495.87446  24988660.7904   24988665.8184
     -3914.8454
  -3665163.83946   -979042.27646  24261908.9504   24261913.3754
       746.8114
  -3059398.51847  -2300501.67346  23492865.2244   23492867.7024
     -1646.0864
   7531433.27948   6003782.70947  22757848.7444   22757853.3984
     -4095.1744
  -7958219.56847  -6076201.53146  22779892.3204   22779896.7674
       701.1384
  16031641.29644  16561294.83245  25252482.3474   25252486.5464
     -4810.4994
 06  5  1  1  0 45.0040000  0  8G 1G30G 4G25G 2G 5G 6G14
   1993677.13346   3787726.93946  24304838.3424   24304843.6474
     -2595.4094
  -6439476.61248  -4885555.10647  21382429.1474   21382432.3304
     -2010.3654
  10020519.38146   7884301.43045  24999846.9714   24999851.3904
     -3922.8434
  -3676319.54846   -987735.03646  24259786.0774   24259790.6244
       740.7554
  -3034625.10747  -2281197.71446  23497579.4434   23497581.7004
     -1656.9014
   7592904.64648   6051682.46447  22769546.3714   22769550.6704
     -4100.8734
  -7968688.46747  -6084359.10446  22777900.1374   22777904.6884
       694.8444
  16103832.88344  16617548.02145  25266219.9614   25266223.4574
     -4814.9124
 06  5  1  1  1  0.0040000  0  8G 1G30G 4G25G 2G 5G 6G14
   2032682.12446   3818120.43746  24312260.7784   24312265.8894
     -2605.2214
  -6409257.35748  -4862007.63447  21388179.6914   21388183.4414
     -2018.8544
  10079423.52346   7930200.74845  25011056.0384   25011060.4344
     -3930.9904
  -3687383.80146   -996356.53646  24257680.6114   24257685.0244
       734.5154
  -3009689.14247  -2261767.09246  23502324.6024   23502326.7284
     -1667.8654
   7654461.93148   6099649.16747  22781260.3414   22781264.6164
     -4106.7304
  -7979062.38847  -6092442.67146  22775926.0284   22775930.9514
       688.3804
  16176091.07944  16673853.09145  25279970.2204   25279976.0214
     -4819.4684
 06  5  1  1  1 15.0040000  0  8G 1G30G 4G25G 2G 5G 6G14
   2071832.29746   3848627.07646  24319710.8294   24319715.1754
     -2614.7994
  -6378912.33148  -4838362.14847  21393954.1604   21393958.3204
     -2027.1344
  10138447.54646   7976193.47845  25022287.9334   25022292.0004
     -3938.8774
  -3698356.36446  -1004906.57046  24255592.5834   24255596.8044
       728.4994
  -2984590.67847  -2242209.86146  23507100.6864   23507102.7104
     -1678.6024
   7716104.99448   6147682.71047  22792990.6334   22792994.9924
     -4112.3414
  -7989341.06047  -6100452.00946  22773970.0384   22773974.5934
       682.1434
  16248415.56044  16730209.81145  25293733.0974   25293737.7294
     -4823.7764
 06  5  1  1  1 30.0040000  0  8G 1G30G 4G25G 2G 5G 6G14
   2111126.06346   3879245.59546  24327188.2154   24327193.2064
     -2624.3694
  -6348443.04148  -4814619.84247  21399752.2694   21399756.1244
     -2035.3964
  10197589.92446   8022278.43945  25033542.3714   25033547.3644
     -3946.7614
  -3709238.38246  -1013386.06146  24253521.8044   24253525.7514
       722.4334
  -2959331.11047  -2222527.07446  23511907.4184   23511908.8724
     -1689.3414
   7777832.24648   6195781.85947  22804736.9454   22804741.3714
     -4117.9574
  -7999525.85947  -6108388.20646  22772031.9114   22772036.4284
       675.8484
  16320804.46244  16786616.78845  25307508.2474   25307510.3864
     -4828.0644
 06  5  1  1  1 45.0040000  0  8G 1G30G 4G25G 2G 5G 6G14
   2150563.19646   3909975.83346  24334692.8974   24334697.1554
     -2633.9524
  -6317849.52248  -4790780.73347  21405574.0144   21405577.1554
     -2043.7364
  10256850.29746   8068455.32545  25044819.2814   25044823.8934
     -3954.6434
  -3720029.64646  -1021794.83746  24251468.2884   24251472.4794
       716.3584
  -2933910.52447  -2202718.81846  23516744.7934   23516746.1104
     -1700.1104
   7839643.52548   6243946.48247  22816499.2464   22816503.8944
     -4123.5734
  -8009616.55847  -6116251.08146  22770111.7004   22770116.3064
       669.5504
  16393257.29644  16843073.46345  25321295.5714   25321299.9604
     -4832.3364
 06  5  1  1  2  0.0040000  0  8G 1G30G 4G25G 2G 5G 6G14
   2190143.97246   3940818.00646  24342224.8874   24342229.8324
     -2643.4734
  -6287131.64348  -4766844.72547  21411419.4314   21411422.3504
     -2051.9934
  10316228.72746   8114724.25345  25056118.6514   25056123.4634
     -3962.4804
  -3730729.43846  -1030132.32746  24249432.1864   24249436.6344
       710.2944
  -2908328.47947  -2182784.75446  23521612.9044   23521614.5414
     -1710.8334
   7901538.98247   6292176.68947  22828277.5674   22828282.5544
     -4129.1374
  -8019612.60947  -6124040.19546  22768209.5074   22768214.3944
       663.2674
  16465774.15944  16899580.10945  25335095.0584   25335097.9114
     -4836.5424
 06  5  1  1  2 15.0040000  0  8G 1G30G 4G25G 2G 5G 6G14
   2229868.13146   3971771.89846  24349784.1824   24349788.9754
     -2653.0804
  -6256289.31548  -4742811.74247  21417288.5294   21417291.5984
     -2060.3374
  10375724.80246   8161084.81045  25067440.4064   25067446.0794
     -3970.3474
  -3741337.65646  -1038398.46546  24247413.4964   24247417.7214
       704.1394
  -2882585.10547  -2162724.97446  23526511.7074   23526513.2704
     -1721.6294
   7963518.37847   6340472.31347  22840071.8614   22840076.7824
     -4134.7864
  -8029514.02247  -6131755.57146  22766325.3254   22766330.2454
       656.8984
  16538354.51744  16956136.21945  25348906.7084   25348912.2424
     -4840.8024
 06  5  1  1  2 30.0040000  0  8G 1G30G 4G25G 2G 5G 6G14
   2269735.38146   4002837.28446  24357370.6834   24357375.2214
     -2662.5814
  -6225322.63348  -4718681.85847  21423181.2974   21423184.5954
     -2068.5964
  10435338.23446   8207536.83145  25078784.5144   25078789.7874
     -3978.1514
  -3751854.04146  -1046593.05846  24245412.2864   24245416.3904
       698.0374
  -2856680.43447  -2142539.51246  23531441.2134   23531443.2784
     -1732.3614
   8025581.53847   6388833.20047  22851882.1044   22851886.6614
     -4140.3214
  -8039320.60947  -6139397.04546  22764459.1854   22764464.2644
       650.6254
  16610997.97744  17012741.47545  25362730.3114   25362734.1634
     -4844.9904
 06  5  1  1  2 45.0040000  0  8G 1G30G 4G25G 2G 5G 6G14
   2309745.47746   4034013.97346  24364984.3444   24364988.8774
     -2672.0564
  -6194231.77748  -4694455.21647  21429097.6964   21429101.0194
     -2076.8184
  10495068.44246   8254079.84845  25090150.8034   25090156.7144
     -3985.8774
  -3762278.54446  -1054716.03046  24243428.5684   24243433.0334
       691.9434
  -2830614.62047  -2122228.49546  23536401.3904   23536403.9584
     -1743.0494
   8087728.09547   6437259.07947  22863708.2134   22863712.8104
     -4145.8304
  -8049032.51147  -6146964.75446  22762611.0714   22762616.3364
       644.3414
  16683703.93244  17069395.46945  25376565.8044   25376571.2704
     -4849.1004
 06  5  1  1  3  0.0040000  0  8G 1G30G 4G25G 2G 5G 6G14
   2349897.75846   4065301.45646  24372625.0744   24372628.9364
     -2681.5894
  -6163017.15348  -4670132.13547  21435037.6394   21435040.6554
     -2085.1444
  10554914.88946   8300713.42645  25101539.2044   25101544.7274
     -3993.6594
  -3772611.30046  -1062767.51646  24241462.2974   24241466.5214
       685.7484
  -2804388.06047  -2101792.19946  23541392.1344   23541394.1464
     -1753.8384
   8149957.39847   6485749.44447  22875550.0754   22875554.6814
     -4151.4154
  -8058649.90747  -6154458.82046  22760780.9374   22760785.9684
       637.9604
  16756471.71244  17126097.61145  25390413.0654   25390417.9404
     -4853.2814
 06  5  1  1  3 15.0040000  0  8G 1G30G 4G25G 2G 5G 6G14
   2390193.31046   4096700.58646  24380293.0444   24380297.4104
     -2691.0724
  -6131677.60848  -4645711.70947  21441001.3594   21441004.4754
     -2093.3854
  10614878.36546   8347438.20145  25112949.8774   25112955.1024
     -4001.3764
  -3782850.77846  -1070746.32546  24239513.7864   24239517.9194
       679.5964
  -2777999.50647  -2081229.68046  23546413.6794   23546415.1694
     -1764.5574
   8212270.58747   6534305.16847  22887407.8924   22887412.3694
     -4156.9264
  -8068171.45847  -6161878.20446  22758969.0494   22758973.8004
       631.6574
  16829301.94144  17182848.37545  25404272.2284   25404275.2044
     -4857.3394
 06  5  1  1  3 30.0040000  0  8G 1G30G 4G25G 2G 5G 6G14
   2430630.86046   4128210.35046  24387988.0054   24387992.6624
     -2700.5674
  -6100214.39048  -4621194.92647  21446988.6134   21446991.6334
     -2101.6934
  10674957.51846   8394253.12345  25124382.5314   25124386.7004
     -4009.1224
  -3792998.00046  -1078653.25446  24237582.8484   24237586.6234
       673.3954
  -2751450.18047  -2060541.90146  23551465.8174   23551467.3344
     -1775.3234
   8274666.29448   6582925.19347  22899281.4084   22899285.9344
     -4162.4694
  -8077598.09347  -6169223.62846  22757175.2314   22757179.7774
       625.2644
  16902193.05944  17239646.67845  25418142.9854   25418145.4524
     -4861.4304
 06  5  1  1  3 45.0040000  0  8G 1G30G 4G25G 2G 5G 6G14
   2471211.86146   4159831.89846  24395710.2944   24395714.8554
     -2710.1444
  -6068625.69348  -4596580.35347  21452999.7464   21453002.9664
     -2110.0564
  10735153.70046   8441159.22945  25135837.4554   25135840.8694
     -4016.9544
  -3803050.99246  -1086486.75646  24235669.8404   24235674.0724
       667.0744
  -2724738.46547  -2039727.57346  23556548.8544   23556550.5314
     -1786.1644
   8337146.06148   6631610.71747  22911170.9134   22911175.6164
     -4168.0924
  -8086928.04247  -6176493.71046  22755399.8004   22755404.1864
       618.7934
  16975146.43143  17296493.42545  25432025.5594   25432027.9604
     -4865.5934
 06  5  1  1  4  0.0040000  0  8G 1G30G 4G25G 2G 5G 6G14
   2511934.81246   4191564.08246  24403459.5814   24403464.9014
     -2719.5674
  -6036912.98348  -4571869.15047  21459034.4784   21459038.0134
     -2118.2864
  10795465.14446   8488155.12445  25147314.3154   25147317.4694
     -4024.5594
  -3813010.81046  -1094247.63846  24233774.5584   24233778.9124
       660.9134
  -2697865.65947  -2018787.73046  23561662.5574   23561664.2704
     -1796.8624
   8399708.27947   6680360.48747  22923076.1224   22923080.8634
     -4173.5394
  -8096162.52647  -6183689.39046  22753642.5354   22753646.6564
       612.4684
  17048160.32343  17353387.34045  25445919.6224   25445922.6224
     -4869.5664
 06  5  1  1  4 15.0040000  0  8G 1G30G 4G25G 2G 5G 6G14
   2552799.15946   4223406.41746  24411235.7824   24411241.5064
     -2729.0854
  -6005076.59348  -4547061.56847  21465092.7434   21465096.2134
     -2126.6154
  10855891.31146   8535240.43745  25158813.0494   25158817.0664
     -4032.3014
  -3822877.54346  -1101935.99046  24231896.9714   24231901.2714
       654.5864
  -2670832.08147  -1997722.60446  23566806.8704   23566808.6134
     -1807.6734
   8462352.55547   6729174.18947  22934996.9474   22935001.5444
     -4179.0904
  -8105301.71847  -6190810.83346  22751903.4084   22751907.6564
       606.0114
  17121233.99943  17410327.86045  25459825.0604   25459827.6084
     -4873.6374
 06  5  1  1  4 30.0040000  0  8G 1G30G 4G25G 2G 5G 6G14
   2593806.22746   4255359.98346  24419039.1494   24419043.9504
     -2738.5204
  -5973115.09748  -4522156.50447  21471174.8094   21471178.2284
     -2134.8974
  10916433.42746   8582416.12245  25170333.8484   25170337.4444
     -4039.9434
  -3832649.38846  -1109550.41846  24230037.4434   24230041.5254
       648.3304
  -2643636.22847  -1976531.03246  23571982.0674   23571983.8564
     -1818.4244
   8525080.16948   6778052.84547  22946933.6334   22946937.9834
     -4184.5714
  -8114343.84547  -6197856.63846  22750182.7434   22750186.8704
       599.6114
  17194368.66444  17467315.88945  25473742.1614   25473745.4604
     -4877.6284
 06  5  1  1  4 45.0040000  0  8G 1G30G 4G25G 2G 5G 6G14
   2634955.99046   4287424.72646  24426869.6814   24426875.2944
     -2748.1604
  -5941028.41548  -4497153.89247  21477280.6904   21477283.9684
     -2143.3754
  10977091.34745   8629682.01045  25181876.6504   25181880.9884
     -4047.7984
  -3842325.96346  -1117090.59846  24228196.0424   24228200.2134
       641.8524
  -2616277.95547  -1955212.88946  23577188.1624   23577190.1504
     -1829.3814
   8587891.16747   6826996.48547  22958886.1854   22958890.5874
     -4190.2514
  -8123288.72247  -6204826.65546  22748480.5874   22748484.6014
       592.9864
  17267564.02744  17524351.20745  25487670.8054   25487675.3934
     -4881.7914
 06  5  1  1  5  0.0050000  0  8G 1G30G 4G25G 2G 5G 6G14
   2676251.03946   4319602.68046  24434727.8854   24434733.2544
     -2757.5124
  -5908814.24148  -4472051.93347  21483410.8304   21483414.0094
     -2151.5794
  11037868.76945   8677041.01345  25193442.2064   25193447.1494
     -4055.3444
  -3851907.64146  -1124556.83246  24226372.7014   24226377.1564
       635.5954
  -2588755.54747  -1933766.85646  23582425.5054   23582428.5564
     -1840.0544
   8650789.52547   6876008.18447  22970855.3554   22970859.8534
     -4195.6614
  -8132136.84647  -6211721.29446  22746796.8404   22746801.1184
       586.6354
  17340824.63844  17581437.42245  25501611.8514   25501616.8024
     -4885.6494
 06  5  1  1  5 15.0050000  0  8G 1G30G 4G25G 2G 5G 6G14
   2717683.91146   4351888.02646  24442612.3264   24442617.0854
     -2766.9564
  -5876478.69648  -4446855.40447  21489564.0814   21489567.2494
     -2159.8894
  11098755.56745   8724485.25445  25205028.5914   25205032.9144
     -4062.9814
  -3861394.66446  -1131949.31146  24224567.3754   24224571.5404
       629.2584
  -2561074.49247  -1912197.20346  23587693.0374   23587695.3624
     -1850.8334
   8713764.90747   6925079.90447  22982839.1804   22982843.9014
     -4201.1424
  -8140888.49747  -6218540.74446  22745131.4444   22745135.6804
       580.1634
  17414138.39743  17638564.98845  25515563.0084   25515567.8164
     -4889.5844
 06  5  1  1  5 30.0050000  0  8G 1G30G 4G25G 2G 5G 6G14
   2759258.58646   4384283.89246  24450523.7394   24450527.7524
     -2776.3364
  -5844018.53048  -4421561.77047  21495741.0524   21495744.3994
     -2168.1504
  11159756.74845   8772018.60945  25216636.7214   25216643.1124
     -4070.5454
  -3870786.06646  -1139267.28846  24222780.2424   24222784.6014
       622.9214
  -2533231.49447  -1890501.35046  23592991.3834   23592993.2714
     -1861.5674
   8776822.61647   6974215.76147  22994838.6724   22994843.1514
     -4206.5594
  -8149542.82847  -6225284.37146  22743484.5644   22743488.8374
       573.7594
  17487511.12443  17695738.53645  25529525.3494   25529528.8234
     -4893.4474
 06  5  1  1  5 45.0050000  0  8G 1G30G 4G25G 2G 5G 6G14
   2800974.89946   4416790.10346  24458462.1344   24458466.5804
     -2785.7614
  -5811433.48848  -4396170.82347  21501941.7884   21501944.9534
     -2176.4294
  11220872.25545   8819641.10345  25228266.6464   25228271.7654
     -4078.1334
  -3880081.52646  -1146510.49346  24221011.3574   24221015.0594
       616.5324
  -2505226.54247  -1868679.30646  23598320.5564   23598321.9034
     -1872.3624
   8839962.68547   7023415.80147  23006853.8304   23006858.2614
     -4212.0404
  -8158099.64347  -6231952.00446  22741856.2524   22741860.7064
       567.2304
  17560942.63643  17752957.89545  25543498.9094   25543503.7854
     -4897.3484
 06  5  1  1  6  0.0050000  0  8G 1G30G 4G25G 2G 5G 6G14
   2842833.45546   4449407.16246  24466427.5924   24466431.5074
     -2795.2804
  -5778723.06248  -4370682.17947  21508166.3734   21508169.4834
     -2184.8464
  11282102.52145   8867352.98145  25239918.3744   25239922.4674
     -4085.7964
  -3889280.02446  -1153678.14746  24219260.9274   24219264.6474
       610.0354
  -2477058.69247  -1846730.33146  23603680.7214   23603682.2144
     -1883.2504
   8903185.69348   7072680.46547  23018884.7884   23018889.2264
     -4217.5874
  -8166557.97447  -6238542.90546  22740246.6744   22740251.4114
       560.6294
  17634433.36244  17810223.36245  25557483.7804   25557487.6104
     -4901.3024
 06  5  1  1  6 15.0050000  0  8G 1G30G 4G25G 2G 5G 6G14
   2884832.45746   4482133.64746  24474419.7374   24474424.4624
     -2804.6534
  -5745888.77348  -4345097.01747  21514414.5294   21514417.7344
     -2193.1254
  11343445.41545   8915152.63545  25251591.5284   25251597.0804
     -4093.3354
  -3898382.90946  -1160771.30246  24217528.7114   24217532.5064
       603.6314
  -2448729.88947  -1824655.93746  23609071.5174   23609073.3474
     -1893.9954
   8966489.76048   7122008.29947  23030931.1664   23030935.4984
     -4223.0104
  -8174919.46147  -6245058.33546  22738655.5284   22738660.0404
       554.1644
  17707981.20643  17867533.33845  25571479.4664   25571482.5884
     -4905.1334
 06  5  1  1  6 30.0050000  0  8G 1G30G 4G25G 2G 5G 6G14
   2926972.96846   4514970.41646  24482438.8294   24482444.1674
     -2814.0874
  -5712929.22848  -4319414.25447  21520686.5214   21520689.3934
     -2201.4804
  11404902.17745   8963040.97845  25263286.3614   25263291.1414
     -4100.9284
  -3907388.64747  -1167788.75446  24215814.9884   24215819.0544
       597.1504
  -2420238.82247  -1802455.10246  23614493.1714   23614494.9964
     -1904.8114
   9029876.10647   7171400.24547  23042993.2004   23042997.3744
     -4228.4964
  -8183182.46047  -6251497.03046  22737083.1174   22737087.1664
       547.5914
  17781587.07443  17924888.53545  25585486.1774   25585490.8014
     -4908.9814
 06  5  1  1  6 45.0050000  0  8G 1G30G 4G25G 2G 5G 6G14
   2969253.86646   4547916.57546  24490484.6034   24490489.2944
     -2823.3274
  -5679845.47448  -4293634.70647  21526982.1554   21526984.9504
     -2209.6384
  11466471.33645   9011016.95545  25275002.6084   25275007.4054
     -4108.2744
  -3916297.92347  -1174731.03646  24214119.6144   24214123.4614
       590.8144
  -2391586.47447  -1780128.59846  23619945.5264   23619947.9794
     -1915.4614
   9093343.51847   7220855.35847  23055070.6684   23055075.0814
     -4233.7904
  -8191347.88947  -6257859.69046  22735529.2714   22735533.5414
       541.1734
  17855249.58143  17982287.89145  25599503.7214   25599508.6844
     -4912.6314
 06  5  1  1  7  0.0050000  0  8G 1G30G 4G25G 2G 5G 6G14
   3011674.25446   4580971.40846  24498556.8974   24498561.4844
     -2832.7084
  -5646638.39248  -4267759.05547  21533301.2524   21533304.3404
     -2217.9404
  11528152.01945   9059079.79645  25286740.0654   25286744.8684
     -4115.7814
  -3925111.20747  -1181598.53146  24212442.5084   24212446.4414
       584.3114
  -2362773.58147  -1757677.00146  23625428.4444   23625430.3874
     -1926.2424
   9156891.17148   7270372.99347  23067163.4004   23067167.6034
     -4239.2164
  -8199416.32647  -6264146.77746  22733993.8794   22733998.6414
       534.6174
  17928967.71143  18039730.53845  25613531.8264   25613535.2964
     -4916.4144
 06  5  1  1  7 15.0050000  0  8G 1G30G 4G25G 2G 5G 6G14
   3054234.60946   4614135.30846  24506655.8394   24506660.7834
     -2842.0074
  -5613307.26248  -4241786.74647  21539643.9584   21539647.4144
     -2226.2004
  11589944.46645   9107229.75645  25298498.7844   25298503.4444
     -4123.2024
  -3933827.57847  -1188390.50146  24210783.8434   24210787.8754
       577.8544
  -2333799.47147  -1735099.76446  23630942.0304   23630943.9724
     -1936.9774
   9220519.54847   7319953.53547  23079271.4874   23079275.8624
     -4244.5804
  -8207386.88247  -6270357.58346  22732477.1194   22732482.1214
       528.1274
  18002741.65443  18097216.71545  25627570.5294   25627572.5944
     -4920.1004
 06  5  1  1  7 30.0050000  0  8G 1G30G 4G25G 2G 5G 6G14
   3096935.16346   4647408.45346  24514781.4464   24514785.5174
     -2851.3374
  -5579851.76648  -4215717.52447  21546010.3294   21546013.8834
     -2234.4944
  11651849.00445   9155467.01445  25310278.8404   25310283.7574
     -4130.6624
  -3942446.33947  -1195106.42046  24209143.7614   24209147.6704
       571.3564
  -2304663.61047  -1712396.50746  23636486.4124   23636488.3354
     -1947.7534
   9284228.87147   7369597.15646  23091394.9854   23091399.4214
     -4249.9484
  -8215259.01147  -6276491.69646  22730979.0874   22730984.2444
       521.5564
  18076571.56443  18154746.51245  25641619.8794   25641623.6634
     -4923.8374
 06  5  1  1  7 45.0050000  0  8G 1G30G 4G25G 2G 5G 6G14
   3139774.96446   4680790.10046  24522933.5484   24522938.9804
     -2860.6304
  -5546272.68148  -4189552.00447  21552400.2114   21552403.4284
     -2242.7444
  11713864.31545   9203790.64045  25322079.9514   25322083.6264
     -4138.0684
  -3950967.98347  -1201746.65446  24207522.1564   24207526.9374
       564.8634
  -2275366.98347  -1689567.94446  23642061.3894   23642063.2234
     -1958.4794
   9348018.29447   7419303.19247  23103533.7304   23103538.1234
     -4255.3034
  -8223033.33447  -6282549.60846  22729499.6804   22729504.6094
       515.0264
  18150456.17543  18212318.89945  25655679.6304   25655685.1114
     -4927.4324
 06  5  1  1  8  0.0050000  0  8G 1G30G 4G25G 2G 5G 6G14
   3182755.30446   4714281.25346  24531112.4204   24531117.4474
     -2870.0784
  -5512568.30448  -4163288.85447  21558813.9374   21558816.8064
     -2251.1774
  11775991.79345   9252201.64345  25333902.3884   25333906.9134
     -4145.5834
  -3959390.82447  -1208309.90246  24205919.3584   24205923.7384
       558.1894
  -2245908.00147  -1666612.89346  23647667.2534   23647668.8374
     -1969.3924
   9411889.06447   7469072.61647  23115687.9474   23115692.4024
     -4260.8114
  -8230708.18647  -6288530.00946  22728039.2034   22728043.9424
       508.2974
  18224396.64443  18269934.83145  25669750.0024   25669754.6094
     -4931.2294
 06  5  1  1  8 15.0050000  0  8G 1G30G 4G25G 2G 5G 6G14
   3225874.95746   4747880.97046  24539317.8214   24539322.0884
     -2879.2354
  -5478739.95248  -4136929.09847  21565251.2564   21565254.3694
     -2259.3084
  11838229.94045   9300698.85745  25345745.9524   25345750.7804
     -4152.8694
  -3967715.59547  -1214796.74246  24204335.2174   24204339.2064
       551.7634
  -2216287.88447  -1643532.28346  23653303.7774   23653305.9054
     -1980.0024
   9475839.95647   7518904.46946  23127857.4034   23127861.7244
     -4266.0114
  -8238284.47947  -6294433.60247  22726597.4834   22726601.9344
       501.8404
  18298391.49543  18327593.13045  25683830.7634   25683837.6364
     -4934.7554
 06  5  1  1  8 30.0050000  0  8G 1G30G 4G25G 2G 5G 6G14
   3269132.74646   4781588.31446  24547549.5274   24547554.7334
     -2888.5154
  -5444788.78448  -4110473.63847  21571711.9514   21571715.0854
     -2267.5794
  11900577.57445   9349281.44445  25357610.2964   25357612.5034
     -4160.2094
  -3975943.07447  -1221207.76146  24202769.5844   24202773.8534
       545.1884
  -2186507.61647  -1620326.87146  23658970.7994   23658973.2224
     -1990.7584
   9539869.81047   7568797.85347  23140041.8734   23140046.3764
     -4271.3394
  -8245763.22047  -6300261.17947  22725174.3214   22725178.8044
       495.2774
  18372439.32543  18385292.69545  25697921.6574   25697926.2854
     -4938.3554
 06  5  1  1  8 45.0050000  0  8G 1G30G 4G25G 2G 5G 6G14
   3312530.41446   4815404.69846  24555807.8784   24555812.7644
     -2897.7654
  -5410712.59648  -4083920.76347  21578196.4264   21578199.8544
     -2275.8294
  11963036.18145   9397950.46345  25369495.7444   25369500.2354
     -4167.5284
  -3984071.07347  -1227541.25846  24201222.8804   24201226.9514
       538.6104
  -2156565.16847  -1596995.09846  23664668.6614   23664670.6824
     -2001.4974
   9603980.48447   7618754.20646  23152241.7394   23152246.7504
     -4276.6774
  -8253142.15047  -6306010.98346  22723770.1454   22723774.5744
       488.6684
  18446541.68243  18443034.82345  25712022.9164   25712030.2774
     -4941.8874
 06  5  1  1  9  0.0050000  0  8G 1G30G 4G25G 2G 5G 6G14
   3356065.88546   4849328.44446  24564092.4244   24564097.5684
     -2906.9824
  -5376513.51148  -4057272.12747  21584704.2984   21584707.6354
     -2284.0614
  12025603.78345   9446704.39645  25381401.9734   25381405.7634
     -4174.8234
  -3992101.18747  -1233798.48746  24199694.7884   24199698.8344
       532.0414
  -2126462.67147  -1573538.60746  23670396.9744   23670398.6864
     -2012.2014
   9668169.82547   7668771.86247  23164456.5674   23164461.4544
     -4281.9294
  -8260423.03547  -6311684.38146  22722384.6304   22722389.2574
       482.0634
  18520696.36643  18500817.67945  25726134.0854   25726140.7184
     -4945.3994
 06  5  1  1  9 15.0050000  0  8G 1G30G 4G25G 2G 5G 6G14
   3399740.80246   4883360.83346  24572403.5174   24572408.9214
     -2916.2264
  -5342189.67448  -4030526.27647  21591235.9054   21591239.5034
     -2292.3374
  12088281.74945   9495544.37645  25393329.2134   25393334.9044
     -4182.1314
  -4000031.26747  -1239977.76646  24198185.7404   24198189.6474
       525.4134
  -2096198.22047  -1549955.91446  23676156.1244   23676157.6454
     -2022.9424
   9732439.59747   7718852.19546  23176686.7014   23176691.4914
     -4287.2494
  -8267603.84647  -6317279.81047  22721018.1654   22721023.1974
       475.4574
  18594904.77943  18558642.37545  25740255.4774   25740260.3494
     -4948.9004
 06  5  1  1  9 30.0050000  0  8G 1G30G 4G25G 2G 5G 6G14
   3443552.95746   4917500.17846  24580740.7454   24580745.5274
     -2925.3964
  -5307743.00248  -4003684.71147  21597790.8744   21597794.4564
     -2300.5494
  12151067.88545   9544468.62545  25405277.0384   25405281.3484
     -4189.3334
  -4007863.13347  -1246080.51046  24196695.3694   24196699.0374
       518.8384
  -2065773.83947  -1526248.61346  23681945.6954   23681946.8124
     -2033.6284
   9796787.56247   7768993.45146  23188931.7224   23188936.4644
     -4292.4764
  -8274686.47747  -6322798.73146  22719670.3794   22719675.2264
       468.9054
  18669164.59143  18616507.18045  25754386.6724   25754390.8784
     -4952.3724
 06  5  1  1  9 45.0050000  0  8G 1G30G 4G25G 2G 5G 6G14
   3487503.12446   4951747.06046  24589104.2354   24589109.1044
     -2934.6334
  -5273172.69348  -3976746.81047  21604369.3724   21604372.7664
     -2308.8374
  12213962.75245   9593477.62845  25417245.5524   25417251.4744
     -4196.6404
  -4015595.51147  -1252105.73546  24195223.9384   24195227.6674
       512.1464
  -2035188.55147  -1502415.92146  23687765.9014   23687767.1164
     -2044.4104
   9861214.56347   7819196.29446  23201191.7734   23201196.5754
     -4297.7924
  -8281669.84547  -6328240.29846  22718341.4834   22718346.1924
       462.2204
  18743476.41443  18674412.45945  25768527.7634   25768532.7454
     -4955.8724
 06  5  1  1 10  0.0050000  0  8G 1G30G 4G25G 2G 5G 6G14
   3531590.83546   4986101.11646  24597493.9034   24597498.9064
     -2943.7984
  -5238478.89648  -3949712.68447  21610971.3774   21610974.7804
     -2317.0424
  12276965.89045   9642570.93845  25429234.6654   25429238.1284
     -4203.8484
  -4023228.42147  -1258053.44346  24193771.4244   24193775.8094
       505.5054
  -2004442.70047  -1478458.11446  23693616.6454   23693618.1114
     -2055.1044
   9925720.11247   7869460.33546  23213466.7694   23213471.8804
     -4303.0164
  -8288554.02347  -6333604.58746  22717031.4534   22717036.0594
       455.6064
  18817839.49443  18732357.66345  25782678.6234   25782683.0934
     -4959.2704
 06  5  1  1 10 15.0050000  0  8G 1G30G 4G25G 2G 5G 6G14
   3575816.78946   5020562.87646  24605909.8514   24605914.3714
     -2953.0544
  -5203661.01348  -3922581.86647  21617596.9974   21617600.2004
     -2325.4014
  12340077.74045   9691749.00545  25441244.4774   25441248.1984
     -4211.1374
  -4030760.70147  -1263922.74346  24192338.0674   24192342.3834
       498.7254
  -1973535.49547  -1454374.57846  23699498.0974   23699500.2884
     -2065.9144
   9990305.00747   7919786.20646  23225756.8744   23225761.7244
     -4308.3554
  -8295338.06747  -6338890.83946  22715740.4784   22715745.1344
       448.8674
  18892254.32743  18790343.28645  25796839.3404   25796845.5404
     -4962.7654
 06  5  1  1 10 30.0050000  0  8G 1G30G 4G25G 2G 5G 6G14
   3620180.63846   5055132.11746  24614351.9964   24614356.5464
     -2962.1504
  -5168719.07248  -3895354.37847  21624246.2294   21624249.4354
     -2333.5604
  12403297.84845   9741011.40345  25453274.8854   25453278.3974
     -4218.2354
  -4038192.31847  -1269713.60746  24190923.8644   24190927.9184
       492.1114
  -1942467.12347  -1430165.45246  23705410.2154   23705412.6724
     -2076.5614
  10054968.91247   7970173.65446  23238062.0194   23238066.9254
     -4313.5214
  -8302021.79947  -6344098.92146  22714468.5954   22714473.0094
       442.2714
  18966720.59243  18848368.92545  25811009.8094   25811015.9244
     -4966.1044
 06  5  1  1 10 45.0050000  0  8G 1G30G 4G25G 2G 5G 6G14
   3664681.46846   5089808.08646  24622820.2054   24622825.6504
     -2971.3004
  -5133653.79048  -3868030.78347  21630918.9334   21630922.1184
     -2341.8194
  12466625.35645   9790357.51145  25465325.7224   25465330.8814
     -4225.4184
  -4045523.60447  -1275426.29646  24189528.7604   24189532.8164
       485.3914
  -1911238.30547  -1405831.30546  23711352.8444   23711355.1954
     -2087.2934
  10119710.90547   8020621.94846  23250382.0294   23250386.3484
     -4318.7504
  -8308605.87247  -6349229.36246  22713215.6744   22713220.4704
       435.5834
  19041236.97343  18906433.59845  25825189.8074   25825194.1674
     -4969.4604
 06  5  1  1 11  0.0050000  0  8G 1G30G 4G25G 2G 5G 6G14
   3709318.94946   5124590.51246  24631314.4244   24631319.7884
     -2980.3574
  -5098465.39948  -3840611.25347  21637615.0604   21637618.4144
     -2349.9714
  12530059.78145   9839786.93845  25477396.8914   25477400.8144
     -4232.4914
  -4052754.53747  -1281060.77646  24188152.7524   24188156.1114
       478.7234
  -1879849.26347  -1381372.30346  23717325.9684   23717328.8104
     -2097.9354
  10184530.75947   8071130.92046  23262716.8424   23262721.2744
     -4323.9074
  -8315090.36347  -6354282.19847  22711981.7104   22711986.4454
       428.9874
  19115803.04743  18964537.04445  25839379.2624   25839384.8344
     -4972.6994
 06  5  1  1 11 15.0050000  0  8G 1G30G 4G25G 2G 5G 6G14
   3754094.54346   5159480.58546  24639834.9024   24639839.0894
     -2989.5974
  -5063152.26148  -3813094.51947  21644334.9314   21644338.1444
     -2358.3294
  12593602.38445   9889300.63645  25489488.6574   25489492.8694
     -4239.7254
  -4059883.13647  -1286615.52946  24186796.2224   24186800.0974
       471.8754
  -1848298.33347  -1356787.16546  23723329.9014   23723332.2374
     -2108.7544
  10249429.96247   8121701.72146  23275066.7714   23275071.7304
     -4329.2114
  -8321473.45547  -6359256.02746  22710767.0454   22710771.7534
       422.1994
  19190420.01943  19022680.11745  25853578.4484   25853582.9854
     -4976.1164
 06  5  1  1 11 30.0050000  0  8G 1G30G 4G25G 2G 5G 6G14
   3799006.50046   5194476.91346  24648381.3524   24648386.0804
     -2998.6694
  -5027715.90548  -3785481.77247  21651078.2474   21651081.4474
     -2366.5404
  12657251.34745   9938897.19745  25501600.6484   25501606.7954
     -4246.8074
  -4066910.70247  -1292091.54746  24185458.9194   24185462.4814
       465.1384
  -1816587.05647  -1332077.06946  23729364.3414   23729366.2244
     -2119.4284
  10314406.77847   8172332.99046  23287431.4684   23287436.2684
     -4334.3674
  -8327756.41747  -6364151.83646  22709571.4294   22709575.9694
       415.5284
  19265085.97043  19080861.30445  25867786.9124   25867790.5994
     -4979.3464
 06  5  1  1 11 45.0050000  0  8G 1G30G 4G25G 2G 5G 6G14
   3844054.72546   5229579.40946  24656953.7244   24656958.3934
     -3007.7154
  -4992156.29048  -3757772.97947  21657845.0184   21657848.2554
     -2374.7224
  12721006.53645   9988576.59345  25513732.8874   25513737.4714
     -4253.8294
  -4073836.89147  -1297488.57446  24184140.9054   24184144.5644
       458.3964
  -1784715.42547  -1307242.03646  23735429.3084   23735431.4654
     -2130.0834
  10379461.17247   8223024.71546  23299810.9224   23299815.4504
     -4339.5094
  -8333939.00547  -6368969.43246  22708394.9224   22708399.0184
       408.8634
  19339800.74643  19139080.62945  25882004.6884   25882007.5814
     -4982.5494
 06  5  1  1 12  0.0050000  0  8G 1G30G 4G25G 2G 5G 6G14
   3889238.70546   5264787.70146  24665551.9204   24665557.0264
     -3016.8134
  -4956473.69348  -3729968.35947  21664635.1944   21664638.6354
     -2382.9684
  12784867.25745  10038338.15445  25525885.1924   25525890.1574
     -4260.9344
  -4080661.77347  -1302806.66646  24182842.1734   24182846.0154
       451.5854
  -1752683.87247  -1282282.38546  23741524.7014   23741526.8424
     -2140.7884
  10444592.57247   8273776.43646  23312205.0494   23312209.7544
     -4344.6754
  -8340021.51747  -6373709.04347  22707237.4594   22707241.4724
       402.1344
  19414563.54643  19197337.38445  25896231.6194   25896236.3354
     -4985.8104
 06  5  1  1 12 15.0050000  0  8G 1G30G 4G25G 2G 5G 6G14
   3934559.77246   5300102.79546  24674176.2274   24674181.6874
     -3025.9344
  -4920666.86248  -3702066.93047  21671449.0094   21671452.3374
     -2391.2244
  12848834.89945  10088183.04145  25538057.8414   25538063.3084
     -4268.0344
  -4087383.53347  -1308044.39846  24181563.0544   24181566.7654
       444.7074
  -1720490.89047  -1257196.94646  23747650.8224   23747653.3134
     -2151.5574
  10509802.43547   8324589.30446  23324614.0954   23324618.5864
     -4349.8994
  -8346002.26247  -6378369.36047  22706099.3604   22706103.3604
       395.3444
  19489375.63243  19255632.47145  25910467.8784   25910470.4524
     -4989.0694
 06  5  1  1 12 30.0050000  0  8G 1G30G 4G25G 2G 5G 6G14
   3980016.16246   5335523.36446  24682826.2964   24682831.9724
     -3034.9424
  -4884737.06748  -3674069.68247  21678286.2214   21678289.5434
     -2399.4334
  12912907.45345  10138109.69745  25550250.4654   25550254.9684
     -4275.0184
  -4094003.47747  -1313202.78746  24180303.3104   24180307.7164
       437.9314
  -1688138.05147  -1231986.94546  23753807.3674   23753809.3914
     -2162.1914
  10575089.09147   8375462.01946  23337037.7534   23337042.1964
     -4355.0024
  -8351882.52447  -6382951.37547  22704980.3774   22704984.2024
       388.6524
  19564234.92543  19313964.38245  25924713.1624   25924714.3614
     -4992.1874
 06  5  1  1 12 45.0050000  0  8G 1G30G 4G25G 2G 5G 6G14
   4025607.72546   5371049.23846  24691502.1064   24691507.7094
     -3043.9504
  -4848684.46548  -3645976.74647  21685146.7994   21685149.8154
     -2407.5924
  12977084.59945  10188117.83945  25562462.9954   25562467.2124
     -4281.9694
  -4100521.22647  -1318281.55246  24179063.0044   24179067.2924
       431.0974
  -1655625.37947  -1206652.39546  23759994.3404   23759996.0634
     -2172.8514
  10640452.34747   8426394.41346  23349475.9984   23349480.4934
     -4360.1094
  -8357662.14147  -6387454.96847  22703880.5614   22703884.2874
       381.9284
  19639141.13543  19372332.93045  25938967.2694   25938974.3354
     -4995.3144
 06  5  1  1 13  0.0050000  0  8G 1G30G 4G25G 2G 5G 6G14
   4071332.57746   5406678.99646  24700203.2824   24700208.2434
     -3052.7954
  -4812510.71148  -3617789.41047  21692030.4354   21692033.6134
     -2415.6594
  13041364.51945  10238206.07545  25574695.0984   25574700.3124
     -4288.7744
  -4106938.22847  -1323281.80546  24177841.8784   24177846.0084
       424.4104
  -1622954.47047  -1181194.54146  23766211.4194   23766212.9584
     -2183.3714
  10705890.44647   8477385.12446  23361928.4724   23361932.9154
     -4365.0544
  -8363342.62647  -6391881.32347  22702799.5974   22702803.2234
       375.3714
  19714092.33543  19430736.33945  25953230.0064   25953234.8234
     -4998.2714
 06  5  1  1 13 15.0050000  0  8G 1G30G 4G25G 2G 5G 6G14
   4117191.74546   5442413.41346  24708930.0164   24708935.7194
     -3061.8524
  -4776214.67848  -3589506.78547  21698937.3344   21698940.5104
     -2423.9064
  13105748.14345  10288375.10345  25586946.9034   25586949.4994
     -4295.7714
  -4113253.06347  -1328202.45446  24176640.2094   24176644.6794
       417.4864
  -1590124.20247  -1155612.51946  23772458.8304   23772459.9964
     -2194.0904
  10771404.38247   8528434.94046  23374395.3744   23374399.3494
     -4370.2064
  -8368922.68647  -6396229.41947  22701737.7484   22701741.6734
       368.5584
  19789089.21243  19489175.46345  25967501.4724   25967506.7914
     -5001.3904
 06  5  1  1 13 30.0050000  0  8G 1G30G 4G25G 2G 5G 6G14
   4163186.43646   5478253.43546  24717682.5094   24717686.9104
     -3070.7434
  -4739794.99748  -3561127.81747  21705867.7674   21705870.9154
     -2432.0304
  13170236.41245  10338625.67145  25599218.6214   25599223.5324
     -4302.6134
  -4119463.93747  -1333042.09146  24175458.3094   24175462.4274
       410.6784
  -1557133.31047  -1129905.33246  23778736.8044   23778737.9704
     -2204.6634
  10836995.46347   8579544.86746  23386876.9484   23386881.3604
     -4375.2324
  -8374400.75047  -6400498.05147  22700695.3074   22700699.1474
       361.8674
  19864132.86643  19547651.03845  25981781.8134   25981786.4004
     -5004.3784
 06  5  1  1 13 45.0050000  0  8G 1G30G 4G25G 2G 5G 6G14
   4209314.73546   5514197.55046  24726460.4364   24726465.9854
     -3079.7254
  -4703253.39248  -3532653.83447  21712821.3944   21712824.5384
     -2440.2194
  13234827.43845  10388956.31945  25611509.8704   25611514.6554
     -4309.5614
  -4125572.37047  -1337801.91746  24174295.9034   24174299.8994
       403.7524
  -1523983.44047  -1104074.25246  23785045.0264   23785046.4434
     -2215.3524
  10902661.82047   8630713.45046  23399372.8484   23399377.2854
     -4380.3264
  -8379778.27347  -6404688.32747  22699672.0024   22699675.9944
       355.0924
  19939221.23143  19606161.42345  25996070.6464   25996074.6664
     -5007.4494
 06  5  1  1 14  0.0050000  0  8G 1G30G 4G25G 2G 5G 6G14
   4255578.20546   5550246.99846  24735264.1194   24735268.4864
     -3088.6344
  -4666588.14948  -3504083.51347  21719798.5514   21719801.9804
     -2448.3744
  13299522.68345  10439368.17245  25623821.0124   25623825.3474
     -4316.3864
  -4131576.37347  -1342480.35346  24173153.3844   24173157.6184
       396.8594
  -1490673.06747  -1078118.12446  23791383.7984   23791385.4784
     -2225.9454
  10968405.03647   8681941.91946  23411883.3594   23411888.0924
     -4385.3504
  -8385053.40247  -6408798.81047  22698668.1834   22698672.0444
       348.3434
  20014355.79043  19664707.83745  26010368.3014   26010375.2104
     -5010.3914
 06  5  1  1 14 15.0050000  0  8G 1G30G 4G25G 2G 5G 6G14
   4301975.42546   5586400.67046  24744093.2174   24744098.0864
     -3097.6364
  -4629800.29348  -3475417.64847  21726799.0364   21726802.6424
     -2456.6274
  13364320.63345  10489860.06945  25636151.7134   25636155.8044
     -4323.3074
  -4137476.72047  -1347078.02646  24172030.5884   24172034.7114
       389.8714
  -1457203.30847  -1052037.79646  23797752.8954   23797754.6724
     -2236.6614
  11034223.84047   8733229.29446  23424408.2484   23424412.3714
     -4390.4704
  -8390227.12247  -6412830.27247  22697683.6484   22697687.7274
       341.5034
  20089534.78443  19723288.85245  26024674.4524   26024680.4784
     -5013.4514
 06  5  1  1 14 30.0050000  0  8G 1G30G 4G25G 2G 5G 6G14
   4348506.85746   5622658.90946  24752947.8784   24752953.4394
     -3106.5764
  -4592889.34448  -3446655.86947  21733822.9484   21733826.6244
     -2464.8294
  13429221.80245  10540432.37645  25648502.0424   25648508.0404
     -4330.1744
  -4143272.58947  -1351594.28346  24170927.6694   24170932.4144
       382.8804
  -1423573.68147  -1025832.89146  23804152.4014   23804154.6404
     -2247.3274
  11100118.74147   8784575.96246  23436947.6214   23436951.7644
     -4395.5414
  -8395298.68847  -6416782.13447  22696718.5574   22696722.4714
       334.6824
  20164758.62343  19781904.80145  26038989.0574   26038993.4274
     -5016.4224
 06  5  1  1 14 45.0050000  0  8G 1G30G 4G25G 2G 5G 6G14
   4395172.72846   5659021.91746  24761828.1624   24761832.2964
     -3115.5094
  -4555854.85448  -3417797.82447  21740870.3624   21740874.1264
     -2473.0474
  13494226.09545  10591085.06245  25660871.9404   25660876.8014
     -4337.0474
  -4148963.22546  -1356028.54146  24169844.7654   24169849.5324
       375.8904
  -1389783.62047   -999502.97446  23810582.4344   23810584.4384
     -2257.9964
  11166089.87947   8835982.03246  23449501.5084   23449505.8834
     -4400.5894
  -8400267.51347  -6420653.94747  22695773.0074   22695777.0504
       327.8254
  20240027.34043  19840555.71145  26053312.2234   26053317.5434
     -5019.3934
 06  5  1  1 15  0.0050000  0  8G 1G30G 4G25G 2G 5G 6G14
   4441973.13546   5695489.76246  24770734.0074   24770738.4784
     -3124.5114
  -4518696.73648  -3388843.44547  21747941.3044   21747944.9224
     -2481.3444
  13559333.62144  10641818.16245  25673261.4914   25673266.3544
     -4343.9574
  -4154548.14047  -1360380.42846  24168781.9834   24168786.5364
       368.7904
  -1355832.93247   -973047.88546  23817043.0224   23817045.0564
     -2268.7324
  11232137.49447   8887447.69446  23462069.9594   23462074.6204
     -4405.7244
  -8405133.13847  -6424445.34347  22694847.1044   22694851.4054
       320.9424
  20315340.88743  19899241.67145  26067643.9044   26067648.3254
     -5022.4004
 06  5  1  1 15 15.0050000  0  8G 1G30G 4G25G 2G 5G 6G14
   4488906.00246   5732060.81546  24779665.0474   24779669.8134
     -3133.2624
  -4481416.75348  -3359794.11947  21755035.4454   21755038.9724
     -2489.3994
  13624542.22245  10692630.03245  25685670.2894   25685675.6684
     -4350.6154
  -4160028.90247  -1364651.14346  24167739.0234   24167744.0544
       361.9084
  -1321723.60747   -946469.17846  23823533.7914   23823535.7174
     -2279.2344
  11298259.64647   8938971.44346  23474652.6004   23474657.2024
     -4410.6144
  -8409897.31747  -6428157.68447  22693940.4984   22693944.7904
       314.2164
  20390697.11042  19957960.71445  26081983.6954   26081987.9334
     -5025.1734
 06  5  1  1 15 30.0050000  0  8G 1G30G 4G25G 2G 5G 6G14
   4535971.69646   5768735.36346  24788621.3774   24788625.6814
     -3142.0994
  -4444014.26148  -3330649.31747  21762152.8954   21762155.9154
     -2497.5454
  13689852.22445  10743520.96945  25698098.3894   25698102.4934
     -4357.3574
  -4165404.63647  -1368840.01846  24166716.0514   24166720.8194
       354.9084
  -1287454.97147   -919766.33846  23830054.8754   23830056.8684
     -2289.8534
  11364456.68247   8990553.55046  23487249.4844   23487254.2544
     -4415.5914
  -8414559.20247  -6431790.31247  22693053.3754   22693057.9474
       307.4174
  20466096.14343  20016713.19945  26096331.6864   26096334.6224
     -5027.9934
 06  5  1  1 15 45.0050000  0  8G 1G30G 4G25G 2G 5G 6G14
   4583169.71646   5805513.04346  24797602.8544   24797607.7874
     -3150.9404
  -4406489.72848  -3301409.41947  21769293.5724   21769296.6764
     -2505.7054
  13755262.84445  10794490.21145  25710545.6454   25710549.2294
     -4364.0644
  -4170675.46047  -1372947.15046  24165713.0314   24165717.1924
       347.8954
  -1253027.53747   -892939.76346  23836606.1784   23836608.7574
     -2300.4484
  11430728.09147   9042193.60846  23499860.5234   23499865.2634
     -4420.5574
  -8419119.02747  -6435343.40847  22692185.6614   22692190.3474
       300.5804
  20541537.37343  20075498.56045  26110687.6714   26110693.0174
     -5030.7974
 06  5  1  1 16  0.0050000  0  8G 1G30G 4G25G 2G 5G 6G14
   4630500.46946   5842394.13946  24806609.5804   24806615.2844
     -3159.7824
  -4368842.50748  -3272073.91447  21776457.5934   21776460.4204
     -2513.8934
  13820774.56145  10845538.29245  25723012.1164   25723016.5514
     -4370.7924
  -4175840.43447  -1376971.79846  24164730.1624   24164734.0554
       340.8054
  -1218440.84347   -865989.09846  23843187.8004   23843190.4334
     -2311.0774
  11497074.38047   9093892.00746  23512485.8104   23512490.5734
     -4425.5624
  -8423576.03047  -6438816.38947  22691337.5054   22691341.7614
       293.7294
  20617021.00943  20134316.95845  26125051.7394   26125057.1704
     -5033.6154
 06  5  1  1 16 15.0050000  0  8G 1G30G 4G25G 2G 5G 6G14
   4677963.84146   5879378.56946  24815641.5734   24815646.8174
     -3168.6614
  -4331072.66548  -3242642.86447  21783644.9384   21783647.9374
     -2522.0994
  13886387.09545  10896664.95045  25735497.7854   25735501.8714
     -4377.5674
  -4180899.21847  -1380913.70746  24163767.5084   24163771.0974
       333.6874
  -1183694.74347   -838914.21446  23849799.7584   23849802.2064
     -2321.7424
  11563495.46247   9145648.68346  23525125.3274   23525130.3764
     -4430.5864
  -8427929.98447  -6442209.07447  22690508.9694   22690513.4154
       286.7934
  20692546.77143  20193168.15845  26139423.8454   26139426.4704
     -5036.4914
 06  5  1  1 16 30.0050000  0  8G 1G30G 4G25G 2G 5G 6G14
   4725559.06446   5916465.75946  24824698.6384   24824703.1174
     -3177.3664
  -4293180.66448  -3213116.63147  21790855.5364   21790858.9814
     -2530.1584
  13952099.69345  10947869.53245  25748002.5154   25748005.1774
     -4384.1254
  -4185852.08547  -1384773.08546  24162825.0114   24162828.5954
       326.7024
  -1148789.90447   -811715.63446  23856441.9174   23856444.0244
     -2332.2324
  11629990.67547   9197463.12646  23537778.9554   23537783.8894
     -4435.4364
  -8432181.19347  -6445521.69447  22689699.9824   22689704.1684
       280.0304
  20768113.69943  20252051.45845  26153803.7354   26153807.3734
     -5039.1324
 06  5  1  1 16 45.0050000  0  8G 1G30G 4G25G 2G 5G 6G14
   4773285.47246   5953655.14346  24833780.6584   24833785.9444
     -3186.1024
  -4255167.06648  -3183495.64547  21798089.2684   21798092.7374
     -2538.2464
  14017911.46645  10999151.41245  25760526.0854   25760530.0574
     -4390.7184
  -4190699.24347  -1388550.08646  24161902.6304   24161906.6854
       319.6494
  -1113726.82747   -784393.75846  23863114.1864   23863116.2664
     -2342.7874
  11696559.42047   9249334.87346  23550446.5734   23550451.3074
     -4440.3334
  -8436330.11347  -6448754.61947  22688910.4524   22688914.7074
       273.2164
  20843721.00643  20310966.24345  26168191.3314   26168196.4314
     -5041.7954
 06  5  1  1 17  0.0050000  0  8G 1G30G 4G25G 2G 5G 6G14
   4821143.14946   5990946.81946  24842887.6704   24842891.6454
     -3194.9614
  -4217031.41848  -3153779.55847  21805346.2404   21805349.6104
     -2546.5314
  14083822.52245  11050510.65445  25773068.5514   25773074.7274
     -4397.4604
  -4195440.07847  -1392244.23946  24161000.4754   24161004.6744
       312.4164
  -1078505.16447   -756948.29946  23869816.6284   23869818.7174
     -2353.4614
  11763201.84447   9301264.03446  23563128.2064   23563133.0894
     -4445.3504
  -8440376.21747  -6451907.42047  22688140.4834   22688144.9234
       266.2224
  20919368.67043  20369912.49545  26182586.6354   26182592.6194
     -5044.5774
 06  5  1  1 17 15.0050000  0  8G 1G30G 4G25G 2G 5G 6G14
   4869132.22246   6028340.90646  24852019.6374   24852024.0944
     -3203.6674
  -4178773.61448  -3123968.28047  21812626.4514   21812629.8164
     -2554.6064
  14149832.85945  11101947.26745  25785629.9224   25785634.7384
     -4404.0074
  -4200074.07247  -1395855.14446  24160118.6554   24160122.5054
       305.3524
  -1043124.79447   -729379.18846  23876549.2744   23876551.0724
     -2363.9994
  11829918.11247   9353250.72446  23575823.8844   23575828.7164
     -4450.2254
  -8444318.97447  -6454979.69447  22687390.1954   22687394.8184
       259.3854
  20995056.63943  20428890.09945  26196989.5534   26196991.5924
     -5047.2184
 06  5  1  1 17 30.0050000  0  8G 1G30G 4G25G 2G 5G 6G14
   4917253.36746   6065837.89646  24861176.7504   24861181.8774
     -3212.3834
  -4140392.76048  -3094061.12047  21819930.0704   21819933.4884
     -2562.7364
  14215943.00945  11153461.66345  25798210.3124   25798215.8634
     -4410.6054
  -4204600.03447  -1399381.86046  24159257.3844   24159261.1874
       298.2234
  -1007584.76147   -701685.64746  23883312.3074   23883314.1934
     -2374.5714
  11896708.99347   9405295.55446  23588533.7604   23588538.6664
     -4455.1164
  -8448157.53347  -6457970.77247  22686659.7254   22686663.8334
       252.4984
  21070785.33843  20487899.45145  26211400.2664   26211404.3344
     -5049.8534
 06  5  1  1 17 45.0050000  0  8G 1G30G 4G25G 2G 5G 6G14
   4965503.69546   6103435.54046  24870358.4904   24870363.2504
     -3220.9414
  -4101891.60748  -3064060.22047  21827256.5924   21827260.0404
     -2570.7014
  14282150.03845  11205051.49045  25810809.1324   25810814.1944
     -4416.9874
  -4209020.33547  -1402826.24446  24158416.2084   24158420.7534
       291.2034
   -971887.94647   -673869.94646  23890105.1874   23890106.8224
     -2384.9704
  11963571.60147   9457396.26846  23601257.2894   23601262.2324
     -4459.8514
  -8451894.14447  -6460882.41247  22685948.6524   22685952.6594
       245.7644
  21146551.75743  20546938.18545  26225818.1304   26225821.1764
     -5052.3044
 06  5  1  1 18  0.0050000  0  8G 1G30G 4G25G 2G 5G 6G14
   5013884.04146   6141134.50946  24879564.9584   24879569.8774
     -3229.7994
  -4063269.08848  -3033964.75247  21834606.2064   21834609.7404
     -2578.9854
  14348454.89145  11256717.62245  25823426.5364   25823432.5244
     -4423.6684
  -4213333.70047  -1406187.29846  24157595.3864   24157599.7954
       283.8874
   -936033.32447   -645931.28346  23896928.0874   23896929.5404
     -2395.6634
  12030506.95547   9509553.67346  23613994.6594   23613999.4054
     -4464.8844
  -8455527.74547  -6463713.78047  22685257.1784   22685261.5524
       238.6994
  21222356.76343  20606007.03545  26240243.3494   26240247.5754
     -5055.0634
 06  5  1  1 18 15.0050000  0  8G 1G30G 4G25G 2G 5G 6G14
   5062395.34646   6178935.51346  24888796.3534   24888802.3604
     -3238.3884
  -4024523.96948  -3003773.75247  21841979.1524   21841982.9394
     -2587.0384
  14414858.03945  11308460.28945  25836062.6794   25836068.7224
     -4430.1204
  -4217538.70647  -1409463.92046  24156795.1814   24156799.9364
       276.7714
   -900019.82447   -617868.80346  23903781.2214   23903782.7764
     -2406.1384
  12097516.00347   9561768.50946  23626746.0544   23626750.6024
     -4469.6714
  -8459056.98147  -6466463.83247  22684585.5754   22684590.0004
       231.8614
  21298201.04443  20665106.42245  26254676.0154   26254680.5754
     -5057.5364
 06  5  1  1 18 30.0050000  0  8G 1G30G 4G25G 2G 5G 6G14
   5111036.01846   6216837.33046  24898052.4074   24898056.6104
     -3247.0264
  -3985657.88648  -2973488.49647  21849375.1264   21849378.5634
     -2595.1354
  14481358.18045  11360278.57045  25848717.2894   25848721.4814
     -4436.5654
  -4221636.40547  -1412656.93346  24156015.4064   24156019.5614
       269.5804
   -863848.81647   -589683.61246  23910664.3394   23910666.4244
     -2416.6794
  12164597.21047   9614039.56346  23639511.1914   23639515.8414
     -4474.5004
  -8462483.22747  -6469133.62247  22683933.5704   22683937.7644
       224.9644
  21374082.90643  20724235.15945  26269115.9354   26269120.1424
     -5060.0564
 06  5  1  1 18 45.0050000  0  8G 1G30G 4G25G 2G 5G 6G14
   5159806.90046   6254840.60946  24907333.2314   24907337.9174
     -3255.7574
  -3946669.42248  -2943107.87547  21856794.3894   21856798.1504
     -2603.3424
  14547955.81845  11412172.82745  25861390.4594   25861395.9684
     -4443.1384
  -4225625.49647  -1415765.31246  24155256.3024   24155260.3884
       262.2924
   -827519.22647   -561374.84246  23917577.6354   23917580.0124
     -2427.2794
  12231751.53947   9666367.60446  23652290.2474   23652295.2694
     -4479.4244
  -8465805.08947  -6471722.07947  22683301.4404   22683305.8194
       217.9434
  21450003.06143  20783393.68345  26283563.0864   26283569.0994
     -5062.6454
 06  5  1  1 19  0.0050000  0  8G 1G30G 4G25G 2G 5G 6G14
   5208708.58946   6292945.83546  24916638.9164   24916643.6254
     -3264.5074
  -3907558.13148  -2912631.54347  21864237.0254   21864240.5704
     -2611.5574
  14614651.58445  11464143.53345  25874082.2274   25874087.1284
     -4449.7144
  -4229504.91947  -1418788.24046  24154518.0764   24154522.1944
       254.9354
   -791030.50747   -532942.06546  23924521.2254   23924523.2684
     -2437.9184
  12298979.64747   9718753.13946  23665083.3374   23665087.9754
     -4484.3644
  -8469021.69847  -6474228.53047  22682689.3364   22682693.7494
       210.8764
  21525961.86243  20842582.34645  26298017.6074   26298022.6094
     -5065.2394
 06  5  1  1 19 15.0050000  0  8G 1G30G 4G25G 2G 5G 6G14
   5257739.61546   6331151.81146  24925969.2424   24925973.4644
     -3273.0484
  -3868325.25248  -2882060.47347  21871702.8024   21871706.3554
     -2619.5804
  14681444.00545  11516189.54245  25886792.4014   25886797.9734
     -4456.0434
  -4233275.60647  -1421726.44346  24153800.5484   24153804.7674
       247.7544
   -754383.97347   -504386.33146  23931494.8524   23931497.1314
     -2448.3664
  12366280.11447   9771195.05446  23677890.1974   23677894.2664
     -4489.1144
  -8472134.03047  -6476653.72047  22682097.0824   22682101.1824
       204.0244
  21601957.78143  20901799.94945  26312479.1634   26312483.9994
     -5067.6344
 06  5  1  1 19 30.0050000  0  8G 1G30G 4G25G 2G 5G 6G14
   5306899.20446   6369457.97446  24935324.0704   24935329.7004
     -3281.6694
  -3828971.26848  -2851395.03447  21879191.6294   21879195.4574
     -2627.7194
  14748332.15945  11568310.13245  25899520.8044   25899525.6584
     -4462.4994
  -4236937.92147  -1424580.18446  24153103.6374   24153107.5304
       240.4544
   -717580.22847   -475708.08946  23938498.4004   23938500.3254
     -2458.9044
  12433652.25647   9823692.82746  23690710.6874   23690715.2004
     -4493.9514
  -8475142.59247  -6478998.03847  22681524.5594   22681528.7024
       197.0274
  21677989.93142  20961045.78745  26326947.5014   26326958.0574
     -5070.0944
 06  5  1  1 19 45.0050000  0  8G 1G30G 4G25G 2G 5G 6G14
   5356188.05746   6407864.88246  24944703.4794   24944708.2274
     -3290.2434
  -3789495.35148  -2820634.58147  21886703.6594   21886707.4284
     -2635.8094
  14815316.69345  11620505.86045  25912267.5434   25912271.0844
     -4468.8474
  -4240490.59347  -1427348.50146  24152427.5914   24152431.9624
       233.1734
   -680618.37947   -446906.64446  23945532.0144   23945533.3734
     -2469.3944
  12501096.81547   9876247.01446  23703544.9624   23703549.4724
     -4498.7244
  -8478046.27847  -6481260.64347  22680971.9944   22680976.4664
       190.0694
  21754058.81542  21020320.15144  26341422.9184   26341429.4264
     -5072.5014
 06  5  1  1 20  0.0050000  0  8G 1G30G 4G25G 2G 5G 6G14
   5405604.94146   6446371.54846  24954107.2224   24954111.4714
     -3298.8734
  -3749898.63648  -2789779.98847  21894238.6704   21894242.1394
     -2643.9604
  14882396.28145  11672775.62745  25925032.3934   25925036.4744
     -4475.3144
  -4243934.37447  -1430031.96646  24151772.2754   24151776.0704
       225.8144
   -643499.53647   -417982.87046  23952595.5044   23952596.7994
     -2479.9644
  12568612.72147   9928856.80846  23716392.8124   23716397.2244
     -4503.5944
  -8480846.02747  -6483442.25747  22680439.2024   22680443.8284
       183.0414
  21830163.03143  21079622.14845  26355905.1344   26355909.8894
     -5074.9454
 06  5  1  1 20 15.0050000  0  8G 1G30G 4G25G 2G 5G 6G14
   5455151.23546   6484979.06046  24963535.5834   24963540.0564
     -3307.3064
  -3710179.52948  -2758830.03947  21901796.9654   21901800.1544
     -2651.9214
  14949572.22345  11725120.50345  25937815.5754   25937820.4294
     -4481.5384
  -4247267.49547  -1432629.20046  24151138.0104   24151142.1504
       218.5954
   -606222.14547   -388935.55946  23959689.1474   23959690.4514
     -2490.3574
  12636201.37347   9981523.27946  23729254.4934   23729259.2334
     -4508.2424
  -8483540.00647  -6485541.45647  22679926.5394   22679931.3574
       176.1604
  21906303.87543  21138952.62445  26370394.3364   26370397.9444
     -5077.1774
 06  5  1  1 20 30.0050000  0  8G 1G30G 4G25G 2G 5G 6G14
   5504824.71846   6523685.65346  24972988.1284   24972992.2704
     -3315.8624
  -3670339.93148  -2727786.19647  21909378.1904   21909381.6264
     -2660.0584
  15016842.36345  11777538.76545  25950616.6774   25950621.2544
     -4487.8784
  -4250491.58747  -1435141.47346  24150524.4894   24150528.7424
       211.2244
   -568788.26747   -359766.30946  23966812.5664   23966814.2244
     -2500.8744
  12703860.66447  10034244.78546  23742129.6244   23742134.2624
     -4513.0324
  -8486130.04247  -6487559.65847  22679433.6664   22679438.2004
       169.1524
  21982479.26642  21198310.14345  26384889.9754   26384897.9394
     -5079.5724
 06  5  1  1 20 45.0050000  0  8G 1G30G 4G25G 2G 5G 6G14
   5554626.47946   6562492.21346  24982465.0674   24982470.0034
     -3324.4324
  -3630378.68048  -2696647.55947  21916982.5564   21916985.9994
     -2668.1904
  15084207.63045  11830031.15245  25963435.8834   25963441.0364
     -4494.2234
  -4253605.16147  -1437567.63446  24149931.9894   24149936.5394
       203.8304
   -531196.74147   -330474.21446  23973965.9864   23973967.9424
     -2511.4004
  12771591.71247  10087022.21146  23755018.4104   23755022.8874
     -4517.8414
  -8488614.78847  -6489495.82247  22678960.8384   22678965.7754
       162.0804
  22058689.90842  21257694.95645  26399392.3874   26399395.2794
     -5081.9024
 06  5  1  1 21  0.0050000  0  8G 1G30G 4G25G 2G 5G 6G14
   5604556.45546   6601398.66046  24991966.4184   24991971.7904
     -3332.8094
  -3590295.68048  -2665414.05347  21924610.0974   21924613.5704
     -2676.1374
  15151667.67445  11882597.40645  25976273.1204   25976277.9514
     -4500.3874
  -4256607.73047  -1439907.28546  24149360.6034   24149365.1844
       196.5924
   -493447.47247   -301059.20146  23981149.4374   23981151.6224
     -2521.7324
  12839394.52947  10139855.56146  23767920.8534   23767925.4734
     -4522.4604
  -8490993.81847  -6491349.60647  22678508.1254   22678513.0414
       155.2054
  22134935.47542  21317107.11345  26413901.4694   26413905.8244
     -5084.0604
 06  5  1  1 21 15.0060000  0  8G 1G30G 4G25G 2G 5G 6G14
   5654616.44946   6640406.43946  25001492.5014   25001497.0094
     -3341.3764
  -3550089.47348  -2634084.54547  21932261.0894   21932264.7264
     -2684.2854
  15219225.62445  11935239.93545  25989129.0014   25989133.5374
     -4506.6774
  -4259500.57347  -1442161.44346  24148810.0954   24148814.2664
       189.1254
   -455539.41847   -271520.45446  23988363.1104   23988365.2754
     -2532.2774
  12907272.16547  10192747.22546  23780837.5514   23780842.4594
     -4527.2594
  -8493268.60147  -6493122.16047  22678075.2624   22678080.1434
       148.1114
  22211219.37443  21376549.00245  26428417.8354   26428418.8944
     -5086.3844
 06  5  1  1 21 30.0060000  0  8G 1G30G 4G25G 2G 5G 6G14
   5704800.48846   6679510.87446  25011042.1884   25011046.9024
     -3349.8294
  -3509764.73348  -2602662.67047  21939934.6224   21939938.1304
     -2692.3344
  15286872.92645  11987952.10545  26002001.8524   26002007.2664
     -4512.9114
  -4262282.15347  -1444328.90946  24148280.7604   24148285.4184
       181.7424
   -417476.76547   -241861.24146  23995606.2134   23995608.2784
     -2542.7394
  12975216.36147  10245690.73946  23793766.9064   23793771.1894
     -4531.9764
  -8495437.63047  -6494812.30447  22677662.5104   22677667.4194
       141.0914
  22287532.22243  21436013.57545  26442939.7124   26442949.2034
     -5088.6454
 06  5  1  1 21 45.0060000  0  8G 1G30G 4G25G 2G 5G 6G14
   5755111.96846   6718714.61846  25020616.1494   25020621.3904
     -3358.3734
  -3469318.43248  -2571146.07447  21947631.2964   21947634.7754
     -2700.4984
  15354614.17845  12040737.46145  26014892.5844   26014898.3054
     -4519.2274
  -4264952.03347  -1446409.32246  24147772.6814   24147776.9274
       174.2334
   -379256.69947   -212079.37446  24002879.2594   24002880.6864
     -2553.2774
  13043231.83847  10298689.79546  23806709.8154   23806714.6784
     -4536.7704
  -8497500.64247  -6496419.83447  22677269.9344   22677274.8124
       133.9754
  22363879.00743  21495504.51645  26457468.0944   26457473.5814
     -5090.9284
 06  5  1  1 22  0.0060000  0  8G 1G30G 4G25G 2G 5G 6G14
   5805550.50246   6758017.40446  25030214.2704   25030219.1564
     -3366.7614
  -3428750.55748  -2539534.74347  21955351.1054   21955354.6354
     -2708.5304
  15422448.98045  12093595.72645  26027801.1304   26027804.7774
     -4525.4044
  -4267510.11347  -1448402.62546  24147285.8874   24147290.3634
       166.8564
   -340879.57447   -182175.11546  24010182.1974   24010184.1464
     -2563.6674
  13111318.29447  10351744.16146  23819666.2394   23819671.2414
     -4541.4184
  -8499457.66547  -6497944.78147  22676897.5244   22676902.2994
       126.9704
  22440259.12543  21555021.51045  26472002.8454   26472005.7134
     -5093.0534
 06  5  1  1 22 15.0060000  0  8G 1G30G 4G25G 2G 5G 6G14
   5856115.62646   6797418.78446  25039836.4574   25039841.5204
     -3375.3564
  -3388061.62648  -2507829.08647  21963093.9474   21963097.6704
     -2716.7514
  15490376.84145  12146526.49745  26040727.3784   26040731.4804
     -4531.7394
  -4269956.46247  -1450308.86046  24146820.3614   24146824.7104
       159.2134
   -302345.73447   -152148.74546  24017514.9364   24017516.6544
     -2574.2864
  13179475.29247  10404853.50546  23832636.0824   23832640.8734
     -4546.2754
  -8501308.85147  -6499387.26147  22676545.2514   22676549.7934
       119.7434
  22516671.96642  21614564.07245  26486543.6954   26486548.5294
     -5095.4374
 06  5  1  1 22 30.0060000  0  8G 1G30G 4G25G 2G 5G 6G14
   5906809.60046   6836920.57246  25049483.1934   25049489.0674
     -3383.7324
  -3347249.29548  -2476027.27747  21970860.2874   21970863.9024
     -2724.7914
  15558399.67845  12199531.28845  26053671.6804   26053675.4704
     -4537.8644
  -4272288.27447  -1452125.85446  24146376.6204   24146381.0524
       151.7874
   -263652.57647   -121998.22946  24024877.9984   24024880.0154
     -2584.6994
  13247705.17047  10458019.61646  23845619.7994   23845624.9194
     -4550.9364
  -8503051.46847  -6500745.13847  22676213.6474   22676218.1724
       112.7064
  22593119.76842  21674133.73245  26501091.2174   26501098.5204
     -5097.5254
 06  5  1  1 22 45.0060000  0  8G 1G30G 4G25G 2G 5G 6G14
   5957630.24046   6876521.06346  25059154.0494   25059158.4194
     -3392.1274
  -3306315.33448  -2444130.69247  21978649.7724   21978653.2934
     -2732.8444
  15626515.42545  12252608.46245  26066633.6644   26066638.0734
     -4544.0094
  -4274507.21147  -1453854.88346  24145954.3654   24145958.9304
       144.3094
   -224802.19447    -91725.21346  24032270.9814   24032273.0794
     -2595.1244
  13316005.88647  10511240.94346  23858617.0014   23858622.0644
     -4555.5944
  -8504687.34347  -6502019.83547  22675902.3514   22675906.7254
       105.6294
  22669600.14342  21733728.72245  26515644.9124   26515650.6754
     -5099.6074
 06  5  1  1 23  0.0060000  0  7G 1G30G 4G25G 2G 5G 6
   6008575.53646   6916218.69546  25068848.6114   25068854.0104
     -3400.4354
  -3265261.67348  -2412140.82847  21986462.0414   21986465.4844
     -2740.8464
  15694721.98745  12305756.40045  26079612.9064   26079616.9554
     -4550.0644
  -4276614.85947  -1455497.20746  24145553.2874   24145557.7784
       136.8524
   -185796.72947    -61331.34346  24039693.4734   24039695.2914
     -2605.4784
  13384375.44647  10564515.91046  23871627.3204   23871632.1054
     -4560.2064
  -8506218.13047  -6503212.65247  22675611.0534   22675615.2374
        98.6154
 06  5  1  1 23 15.0060000  0  7G 1G30G 4G25G 2G 5G 6
   6059642.81446   6956011.37346  25078566.4004   25078571.9784
     -3408.6824
  -3224090.67648  -2380059.53947  21994296.6344   21994300.1044
     -2748.7844
  15763016.75345  12358973.08345  26092608.9454   26092613.5274
     -4556.0404
  -4278613.29447  -1457054.42446  24145173.0054   24145177.4274
       129.4524
   -146638.41847    -30818.37946  24047145.0444   24047147.8164
     -2615.7804
  13452811.37047  10617842.59346  23884650.2524   23884654.7594
     -4564.7414
  -8507646.27247  -6504325.48147  22675339.2904   22675343.6004
        91.6344
 06  5  1  1 23 30.0060000  0  7G 1G30G 4G25G 2G 5G 6
   6110835.28746   6995901.60146  25088308.0174   25088312.0764
     -3416.9654
  -3182798.94948  -2347884.17147  22002154.2004   22002157.6424
     -2756.7664
  15831402.75445  12412260.81645  26105622.3964   26105627.9464
     -4562.0734
  -4280498.87947  -1458523.70546  24144814.1954   24144818.2074
       121.9824
   -107324.06647      -183.82446  24054626.3104   24054629.4114
     -2626.1114
  13521316.90247  10671223.51946  23897686.4234   23897691.2604
     -4569.3124
  -8508968.01747  -6505355.40847  22675087.7654   22675091.6914
        84.6154
 06  5  1  1 23 45.0060000  0  7G 1G30G 4G25G 2G 5G 6
   6162151.89846   7035888.57746  25098073.2594   25098077.9734
     -3425.2274
  -3141387.37448  -2315615.42047  22010034.5774   22010038.1644
     -2764.7444
  15899878.79845  12465618.75345  26118652.9984   26118658.4924
     -4568.0684
  -4282272.14047  -1459905.47146  24144476.7704   24144480.6614
       114.4834
    -67854.61847     30571.58946  24062137.1004   24062140.0434
     -2636.4644
  13589891.10547  10724657.94146  23910735.6714   23910740.9914
     -4573.8874
  -8510184.14947  -6506303.03747  22674856.3324   22674860.3764
        77.5444
 06  5  1  1 24  0.0060000  0  7G 1G30G 4G25G 2G 5G 6
   6213592.74946   7075972.34346  25107862.1354   25107866.3014
     -3433.5594
  -3099855.93248  -2283253.25947  22017937.7544   22017941.0754
     -2772.8104
  15968445.10045  12519047.03045  26131700.7964   26131705.8924
     -4574.1304
  -4283932.51447  -1461199.26546  24144160.8304   24144164.5594
       106.8974
    -28229.77547     61448.09146  24069677.4594   24069679.8204
     -2646.8744
  13658534.11247  10778145.97946  23923798.0094   23923802.7254
     -4578.5324
  -8511293.96847  -6507167.82247  22674645.1374   22674648.9784
        70.4084
 06  5  1  1 24 15.0060000  0  7G 1G30G 4G25G 2G 5G 6
   6265157.33046   7116152.54646  25117674.5614   25117679.1414
     -3441.7594
  -3058204.60348  -2250797.67747  22025863.7464   22025867.0854
     -2780.7534
  16037100.84145  12572544.99745  26144765.5964   26144769.9814
     -4580.0294
  -4285480.03747  -1462405.12446  24143866.3674   24143870.4154
        99.3904
     11550.09347     92445.39146  24077247.3284   24077249.2814
     -2657.1604
  13727245.52347  10831687.32246  23936873.3734   23936878.6204
     -4583.0414
  -8512297.77447  -6507950.00847  22674454.1244   22674457.9264
        63.4054
 06  5  1  1 24 30.0060000  0  7G 1G30G 4G25G 2G 5G 6
   6316845.31746   7156428.88046  25127510.4454   25127516.1044
     -3449.9454
  -3016433.61648  -2218248.85847  22033812.5154   22033816.0784
     -2788.6724
  16105845.86645                  26157847.3844
     -4585.9414
  -4286914.52447  -1463522.90046  24143593.4114   24143597.3304
        91.8814
     51484.79047    123563.34446  24084846.6564   24084848.4424
     -2667.4394
  13796025.14147  10885281.81946  23949961.7184   23949966.7154
     -4587.5464
  -8513195.45047  -6508649.48747  22674283.3094   22674287.2384
        56.3294
 06  5  1  1 24 45.0060000  0  7G 1G30G 4G25G 2G 5G 6
   6368655.10646   7196800.12846  25137369.5424   25137374.9964
     -3457.9904
  -2974544.40848  -2185607.91847  22041783.7794   22041787.2194
     -2796.5074
  16174678.31045                  26170945.8144
     -4591.6774
  -4288237.09347  -1464553.46646  24143341.7374   24143345.8694
        84.4954
     91572.76947    154800.72946  24092475.1404   24092477.0514
     -2677.5904
  13864871.41847  10938928.25846  23963062.7494   23963067.9024
     -4591.9204
  -8513988.31847  -6509267.29647  22674132.4384   22674136.4474
        49.4194
 06  5  1  1 25  0.0060000  0  7G 1G30G 4G25G 2G 5G 6
   6420587.42746   7237266.87946  25147251.9594   25147256.2754
     -3466.3674
  -2932536.16448  -2152874.21847  22049777.6904   22049780.9214
     -2804.6464
  16243599.01845                  26184061.0204
     -4597.7784
  -4289446.51247  -1465495.87046  24143111.5944   24143115.4734
        76.7164
    131815.05747    186158.34446  24100132.9934   24100134.9284
     -2688.0824
  13933785.18047  10992627.28146  23976176.6274   23976181.9294
     -4596.6214
  -8514675.21347  -6509802.51947  22674001.7234   22674005.9734
        42.1134
 06  5  1  1 25 15.0060000  0  7G 1G30G 4G25G 2G 5G 6
   6472643.01346   7277829.67446  25157157.7994   25157161.9814
     -3474.4584
  -2890407.69848  -2120046.84447  22057794.4874   22057798.2784
     -2812.5594
  16312608.55345                  26197193.1194
     -4603.5834
  -4290541.55447  -1466349.14846  24142903.2124   24142907.6104
        69.2104
    172212.36047    217636.75446  24107820.3394   24107822.7734
     -2698.2974
  14002767.27847  11046379.55546  23989303.4924   23989308.4374
     -4601.0614
  -8515254.94047  -6510254.24747  22673891.4064   22673895.4384
        35.0984
 06  5  1  1 25 30.0060000  0  7G 1G30G 4G25G 2G 5G 6
   6524821.82746   7318488.47846  25167087.1264   25167093.3814
     -3482.7694
  -2848158.94748  -2087125.73747  22065834.1694   22065837.6454
     -2820.6724
  16381706.92745                  26210342.1144
     -4609.5824
  -4291521.71547  -1467112.89546  24142716.6814   24142721.1384
        61.4324
    212764.72847    249236.00246  24115537.1974   24115539.1494
     -2708.7374
  14071817.80147  11100185.13146  24002443.3824   24002448.9334
     -4605.7264
  -8515727.34647  -6510622.34947  22673801.5084   22673805.4764
        27.8464
 06  5  1  1 25 45.0060000  0  7G 1G30G 4G25G 2G 5G 6
   6577124.40846   7359243.72846  25177040.0014   25177044.8564
     -3490.9994
  -2805789.32648  -2054110.44947  22073896.8434   22073900.3104
     -2828.7054
  16450894.51745                  26223508.0964
     -4615.5054
  -4292385.94347  -1467786.32246  24142552.2104   24142556.6714
        53.7294
    253473.09347    280956.79946  24123283.7374   24123285.8024
     -2719.1164
  14140937.39547  11154044.53946  24015596.4084   24015601.3464
     -4610.3074
  -8516091.34047  -6510905.98347  22673732.2414   22673735.9884
        20.6244
 06  5  1  1 26  0.0060000  0  7G 1G30G 4G25G 2G 5G 6
   6629549.44946   7400094.40546  25187016.1414   25187020.3834
     -3499.1674
  -2763299.72748  -2021001.67147  22081982.3454   22081985.6664
     -2836.7174
  16520170.06545                  26236690.8214
     -4621.3884
  -4293135.14147  -1468370.10946  24142409.6344   24142414.2774
        46.0044
    294336.40747    312798.34746  24131059.7594   24131061.5264
     -2729.4574
  14210124.80547  11207956.79346  24028762.3614   24028767.6874
     -4614.8414
  -8516347.88147  -6511105.87047  22673683.4164   22673687.2814
        13.4294
 06  5  1  1 26 15.0060000  0  7G 1G30G 4G25G 2G 5G 6
   6682097.07146   7441040.62046  25197015.6104   25197020.2084
     -3507.2234
  -2720690.15548  -1987799.41347  22090090.6894   22090094.0324
     -2844.5954
  16589533.62645                  26249890.3044
     -4627.1034
  -4293768.65947  -1468863.74946  24142289.0544   24142293.3434
        38.4024
    335354.37947    344760.41246  24138865.1974   24138866.6624
     -2739.6704
  14279380.27147  11261922.07846  24041941.2734   24041946.5304
     -4619.2664
  -8516496.61847  -6511221.75947  22673655.1024   22673658.8584
         6.3414
 06  5  1  1 26 30.0060000  0  7G 1G30G 4G25G 2G 5G 6
   6734766.18446   7482081.47246  25207038.2214   25207043.2874
     -3515.3534
  -2677961.27248  -1954504.18247  22098221.7424   22098225.0074
     -2852.5974
  16658984.00445     28867.03445  26263106.3154   26263111.6414
     -4632.9484
  -4294287.03747  -1469267.68546  24142190.3944   24142194.4604
        30.6814
    376526.41247    376842.50446  24146699.9544   24146701.9764
     -2749.9614
  14348702.77947  11315939.62246  24055132.9214   24055137.9194
     -4623.7594
  -8516538.02447  -6511254.01747  22673647.2214   22673651.3804
        -0.8694
 06  5  1  1 26 45.0060000  0  7G 1G30G 4G25G 2G 5G 6
   6787555.71546   7523216.16046  25217083.7184   25217088.0974
     -3523.3034
  -2635113.94348  -1921116.64747  22106375.3294   22106378.6934
     -2860.4164
  16728520.08645     83050.98345  26276338.6394   26276343.8394
     -4638.5884
  -4294690.94147  -1469582.41546  24142113.5154   24142117.1754
        23.1154
    417851.44447    409043.81946  24154563.8544   24154565.7294
     -2760.0884
  14418091.37547  11370008.63946  24068337.1414   24068341.7444
     -4628.0964
  -8516472.88647  -6511203.26447  22673659.6064   22673663.7084
        -7.8894
 06  5  1  1 27  0.0060000  0  7G 1G30G 4G25G 2G 5G 6
   6840465.59446   7564444.64146  25227152.1154   25227156.2214
     -3531.3314
  -2592148.08548  -1887636.76247  22114551.4674   22114554.8904
     -2868.3544
  16798141.74145    137301.56945  26289587.1664   26289592.6364
     -4644.2754
  -4294979.86747  -1469807.55746  24142058.5274   24142062.3744
        15.4154
    459329.48047    441364.36446  24162456.8794   24162458.7344
     -2770.3234
  14487546.09847  11424129.19246  24081553.9344   24081558.6304
     -4632.5294
  -8516301.01247  -6511069.32947  22673692.3044   22673696.7064
       -15.0194
 06  5  1  1 27 15.0060000  0  7G 1G30G 4G25G 2G 5G 6
   6893496.24546   7605767.22246  25237243.5254   25237247.3484
     -3539.3984
  -2549062.97948  -1854063.95547  22122750.3034   22122753.5184
     -2876.3324
  16867849.32845    191619.10845  26302852.0894   26302857.1284
     -4650.0734
  -4295152.90447  -1469942.38246  24142025.5894   24142029.5504
         7.6594
    500961.15347    473804.62246  24170379.1554   24170381.0644
     -2780.5684
  14557067.53747  11478301.72746  24094783.4314   24094788.1394
     -4636.9894
  -8516021.33547  -6510851.39247  22673745.5094   22673749.7644
       -22.2474
 06  5  1  1 27 30.0060000  0  7G 1G30G 4G25G 2G 5G 6
   6946647.36346   7647183.67846  25247357.8434   25247363.3914
     -3547.3994
  -2505858.76448  -1820398.34247  22130971.8024   22130975.0524
     -2884.2434
  16937642.55145    246003.44045  26316133.3134   26316137.7234
     -4655.7384
  -4295209.77047  -1469986.68846  24142014.7574   24142018.7674
        -0.0814
    542746.32047    506364.49646  24178330.6324   24178332.4234
     -2790.7744
  14626655.48847  11532526.09946  24108025.6064   24108030.8484
     -4641.3964
  -8515633.93647  -6510549.50647  22673819.2164   22673823.4774
       -29.4184
 06  5  1  1 27 45.0060000  0  7G 1G30G 4G25G 2G 5G 6
   6999917.54145   7688692.89146  25257494.8304   25257501.7004
     -3555.3484
  -2462536.62748  -1786640.83347  22139215.7444   22139218.4374
     -2892.0764
  17007519.82745    300453.20845  26329430.5404   26329435.6054
     -4661.3154
  -4295151.48147  -1469941.27046  24142025.8374   24142029.9184
        -7.7614
    584683.68147    539042.96046  24186311.0644   24186312.6924
     -2800.9294
  14696308.59447  11586801.23646  24121280.1884   24121285.1784
     -4645.7404
  -8515139.83247  -6510164.48547  22673913.2294   22673917.8554
       -36.5354
 06  5  1  1 28  0.0060000  0  7G 1G30G 4G25G 2G 5G 6
   7053307.88046   7730295.74346  25267654.7004   25267659.2194
     -3563.2984
  -2419095.44248  -1752790.55347  22147482.3404   22147485.2634
     -2899.9984
  17077482.35945    354969.46045  26342743.9934   26342748.6184
     -4666.9344
  -4294976.39447  -1469804.83546  24142059.1564   24142063.1284
       -15.5004
    626774.45947    571840.97046  24194320.6814   24194322.1064
     -2811.1044
  14766028.04447  11641128.07246  24134547.3874   24134552.8904
     -4650.1144
  -8514537.61147  -6509695.21847  22674027.8174   22674032.5614
       -43.6914
 06  5  1  1 28 15.0060000  0  7G 1G30G 4G25G 2G 5G 6
   7106816.82146   7771991.03546  25277837.1194   25277840.7734
     -3571.1934
  -2375536.36548  -1718848.42147  22155771.3634   22155774.1484
     -2907.8374
  17147528.42645    409550.75645  26356073.3644   26356078.3204
     -4672.4944
  -4294685.64447  -1469578.26946  24142114.4814   24142118.3964
       -23.2204
    669017.23547    604757.41546  24202359.2324   24202360.6564
     -2821.2124
  14835812.40147  11695505.49246  24147826.9234   24147831.5864
     -4654.4134
  -8513828.35047  -6509142.53547  22674162.7644   22674167.7984
       -50.8164
 06  5  1  1 28 30.0060000  0  7G 1G30G 4G25G 2G 5G 6
   7160444.79846   7813779.05146  25288042.1534   25288047.4284
     -3579.2124
  -2331858.94148  -1684814.07047  22164082.9064   22164085.7354
     -2915.8334
  17217658.51345    464197.57345  26369418.7124   26369425.4974
     -4678.1764
  -4294278.29247  -1469260.85046  24142191.9994   24142196.2114
       -31.1064
    711412.52047    637792.69946  24210426.7914   24210428.4624
     -2831.4854
  14905662.17647  11749933.88746  24161118.8904   24161123.8284
     -4658.8864
  -8513011.27247  -6508505.84547  22674318.2274   22674323.2004
       -58.1164
 06  5  1  1 28 45.0060000  0  7G 1G30G 4G25G 2G 5G 6
   7214191.13846   7855659.28946  25298269.7524   25298275.0834
     -3587.0284
  -2288063.56748  -1650687.80247  22172416.8914   22172419.6794
     -2923.6234
  17287871.75545    518909.13045  26382779.8474   26382785.8964
     -4683.6654
  -4293754.36047  -1468852.58646  24142291.7164   24142295.7144
       -38.8094
    753959.77247    670946.39046  24218523.2744   24218524.5464
     -2841.5494
  14975576.93947  11804412.90646  24174423.2294   24174428.2114
     -4663.1354
  -8512086.60647  -6507785.31447  22674494.1604   22674499.0954
       -65.2434
 06  5  1  1 29  0.0060000  0  7G 1G30G 4G25G 2G 5G 6
   7268054.93346   7897631.07846  25308519.7014   25308523.6204
     -3594.7994
  -2244150.97348  -1616470.19547  22180773.1734   22180775.9724
     -2931.3874
  17358167.40344    573684.95045  26396156.6614   26396160.1024
     -4689.0864
  -4293114.42247  -1468353.93746  24142413.5044   24142417.1324
       -46.5074
    796658.33647    704217.98546  24226648.5544   24226649.4994
     -2851.5774
  15045555.74947  11858941.83246  24187739.7754   24187744.4824
     -4667.3534
  -8511054.90147  -6506981.36947  22674690.4654   22674695.3514
       -72.3184
 06  5  1  1 29 15.0060000  0  7G 1G30G 4G25G 2G 5G 6
   7322036.70946   7939694.80546  25318792.0834   25318797.0094
     -3602.7424
  -2200120.45148  -1582160.69647  22189151.9014   22189154.6524
     -2939.3224
  17428545.76044    628525.12745  26409549.2074   26409554.5554
     -4694.6614
  -4292357.36347  -1467764.01646  24142557.5814   24142561.4364
       -54.3964
    839508.74047    737607.92046  24234802.7214   24234804.2114
     -2861.7814
  15115599.27247  11913521.18746  24201068.6464   24201073.3614
     -4671.7464
  -8509915.25047  -6506093.32347  22674907.3174   22674912.2634
       -79.6024
 06  5  1  1 29 30.0060000  0  7G 1G30G 4G25G 2G 5G 6
   7376136.72446   7981850.63246  25329086.9984   25329093.2064
     -3610.5574
  -2155971.48748  -1547758.91747  22197553.1674   22197555.9214
     -2947.1744
  17499007.09544    683430.10645  26422957.5334   26422961.7074
     -4700.1374
  -4291482.46347  -1467082.27546  24142724.0794   24142728.1054
       -62.2114
    882511.34947    771116.44946  24242985.8554   24242987.6624
     -2871.8654
  15185707.91147  11968151.29146  24214409.9094   24214414.4384
     -4676.0284
  -8508667.08147  -6505120.71447  22675144.8164   22675149.4714
       -86.7764
 06  5  1  1 29 45.0060000  0  7G 1G30G 4G25G 2G 5G 6
   7430354.03446   8024097.89446  25339404.2404   25339409.4324
     -3618.5064
  -2111704.97548  -1513265.53047  22205976.8004   22205979.5754
     -2955.1064
  17569550.39845    738398.84345  26436381.5304   26436385.2884
     -4705.7234
  -4290490.16247  -1466309.05046  24142912.9104   24142916.7484
       -70.1654
    925665.33647    804742.93046  24251197.7874   24251199.3394
     -2882.0874
  15255880.81347  12022831.45646  24227763.4024   24227767.8554
     -4680.4134
  -8507310.90247  -6504063.93647  22675402.8714   22675407.4734
       -94.0934
 06  5  1  1 30  0.0060000  0  7G 1G30G 4G25G 2G 5G 6
   7484688.27646   8066436.25246  25349743.7014   25349748.0104
     -3626.0514
  -2067320.76248  -1478680.42847  22214422.8334   22214425.8804
     -2962.7534
  17640175.34244    793431.23345  26449821.0034   26449827.7514
     -4710.9354
  -4289380.32047  -1465444.23646  24143124.1174   24143128.2034
       -77.7934
    968970.60247    838487.28846  24259438.5094   24259440.3574
     -2891.9374
  15326117.75147  12077561.53546  24241129.0534   24241133.6694
     -4684.4794
  -8505846.63547  -6502922.94447  22675681.5014   22675686.0684
      -101.0964
 06  5  1  1 30 15.0060000  0  7G 1G30G 4G25G 2G 5G 6
   7539139.14146   8108865.52445  25360105.3374   25360110.4804
     -3633.9464
  -2022819.21448  -1444003.89947  22222891.1924   22222894.2434
     -2970.6834
  17710881.60044    848527.01845  26463275.9384   26463277.6364
     -4716.4444
  -4288152.73747  -1464487.67346  24143357.7264   24143361.9184
       -85.7734
   1012426.82047    872349.27746  24267707.9674   24267709.5624
     -2902.1104
  15396418.49747  12132341.31746  24254506.8334   24254512.1444
     -4688.8404
  -8504274.27547  -6501697.71247  22675980.7094   22675985.1834
      -108.4304
 06  5  1  1 30 30.0060000  0  7G 1G30G 4G25G 2G 5G 6
   7593705.06546   8151384.40146  25370488.8874   25370493.7254
     -3641.4954
  -1978201.67948  -1409236.99047  22231381.6254   22231384.6634
     -2978.3004
  17781667.47944    903684.77945  26476746.0204   26476751.7754
     -4721.6394
  -4286808.49947  -1463440.21946  24143613.5314   24143617.1824
       -93.4524
   1056032.67547    906327.86846  24276005.8984   24276007.3414
     -2911.9694
  15466781.63447  12187169.73046  24267896.4924   24267901.2774
     -4692.8844
  -8502594.96847  -6500389.14347  22676300.2724   22676304.8894
      -115.4504
 06  5  1  1 30 45.0060000  0  7G 1G30G 4G25G 2G 5G 6
   7648386.41245   8193993.23846  25380894.3904   25380898.9844
     -3649.2724
  -1933467.54048  -1374379.21547  22239894.2394   22239897.2104
     -2986.1814
  17852533.19445    958904.79145  26490231.3724   26490237.1094
     -4727.0514
  -4285346.69047  -1462301.13146  24143891.7014   24143895.3154
      -101.3904
   1099788.47247    940423.29046  24284332.3474   24284334.1104
     -2922.0614
  15537207.62247  12242047.11646  24281298.1054   24281302.9804
     -4697.1684
  -8500808.00347  -6498996.69347  22676640.3224   22676644.9444
      -122.7394
 06  5  1  1 31  0.0060000  0  7G 1G30G 4G25G 2G 5G 6
   7703182.77445   8236691.69646  25391321.7664   25391326.4764
     -3656.9324
  -1888616.89648  -1339430.65947  22248429.0244   22248432.3014
     -2993.9514
  17923478.46345   1014186.82745  26503731.8324   26503736.9864
     -4732.3404
  -4283767.23047  -1461070.38946  24144192.2574   24144195.6284
      -109.2414
   1143694.06947    974635.43646  24292687.2994   24292689.2824
     -2932.0474
  15607696.19347  12296973.26146  24294711.6234   24294716.8614
     -4701.3464
  -8498913.32647  -6497520.31547  22677000.8784   22677005.6554
      -129.9294
 06  5  1  1 31 15.0060000  0  7G 1G30G 4G25G 2G 5G 6
   7758094.49746   8279480.03446  25401771.1604   25401775.7584
     -3664.6594
  -1843649.38448  -1304391.05447  22256986.0564   22256989.2544
     -3001.7674
  17994503.68545   1069531.06645  26517247.5184   26517252.7754
     -4737.7234
  -4282069.23347  -1459747.27146  24144515.3684   24144518.9784
      -117.1904
   1187750.00147   1008964.72646  24301070.8574   24301072.3314
     -2942.1054
  15678247.85647  12351948.56446  24308137.1534   24308142.1884
     -4705.5804
  -8496910.22847  -6495959.45247  22677382.0594   22677386.8214
      -137.2014
 06  5  1  1 31 30.0060000  0  7G 1G30G 4G25G 2G 5G 6
   7813121.32445   8322358.10646  25412242.4274   25412247.1664
     -3672.3244
  -1798564.96148  -1269260.32647  22265565.3374   22265568.6084
     -3009.5604
  18065608.42244   1124937.34745  26530778.2974   26530782.8274
     -4742.9844
  -4280252.50447  -1458331.63046  24144861.0684   24144864.8064
      -125.1124
   1231956.10647   1043411.04646  24309482.9794   24309484.2374
     -2952.0964
  15748862.40347  12406972.88046  24321574.6464   24321579.8094
     -4709.7614
  -8494798.58647  -6494314.00447  22677783.8874   22677788.6014
      -144.4194
 06  5  1  1 31 45.0060000  0  7G 1G30G 4G25G 2G 5G 6
   7868263.07945   8365325.69845  25422735.5444   25422741.1164
     -3680.0354
  -1753363.50748  -1234038.41047  22274166.8784   22274170.0084
     -3017.4144
  18136792.40844   1180405.36245  26544324.1554   26544325.0284
     -4748.3214
  -4278316.74347  -1456823.24546  24145229.4234   24145233.0514
      -133.0894
   1276312.07747   1077974.12846  24317923.6274   24317924.7784
     -2962.1374
  15819539.71847  12462046.09946  24335024.0894   24335029.3814
     -4713.9944
  -8492578.23047  -6492583.85347  22678206.4104   22678210.9074
      -151.7434
 06  5  1  1 32  0.0060000  0  7G 1G30G 4G25G 2G 5G 6
   7923519.65645   8408382.73645  25433250.5264   25433255.5484
     -3687.6374
  -1708044.98848  -1198725.28747  22282790.7054   22282794.0004
     -3025.1784
  18208055.47944   1235934.98945  26557885.1234   26557890.9414
     -4753.5124
  -4276261.61447  -1455221.84446  24145620.4904   24145624.4424
      -141.0344
   1320818.12147   1112654.15746  24326392.8294   24326393.7324
     -2972.1184
  15890279.91347  12517168.30946  24348485.5054   24348491.0804
     -4718.1524
  -8490248.87947  -6490768.76447  22678649.6704   22678654.3454
      -158.9634
 06  5  1  1 32 15.0060000  0  7G 1G30G 4G25G 2G 5G 6
   7978890.63846   8451528.98546  25443787.3034   25443790.3184
     -3695.2894
  -1662609.68948  -1163321.16247  22291436.7464   22291439.8544
     -3033.0104
  18279397.30844   1291526.02245  26571461.0814   26571468.5254
     -4758.8284
  -4274086.88147  -1453527.23446  24146034.3154   24146038.5674
      -149.0774
   1365474.05347   1147450.98346  24334890.5534   24334891.6774
     -2982.1344
  15961082.73947  12572339.32946  24361958.8334   24361963.6284
     -4722.3564
  -8487810.45647  -6488868.69547  22679113.6944   22679118.3204
      -166.3014
 06  5  1  1 32 30.0060000  0  7G 1G30G 4G25G 2G 5G 6
   8034376.61445   8494764.80046  25454345.9024   25454350.5434
     -3702.7844
  -1617056.87748  -1127825.45647  22300105.1364   22300107.9654
     -3040.6614
  18350818.33144   1347178.74845  26585052.0874   26585057.0044
     -4763.9254
  -4271791.51247  -1451738.62846  24146471.0914   24146475.1404
      -156.9374
   1410280.43447   1182365.02846  24343416.9224   24343418.9134
     -2991.9824
  16031948.76947  12627559.60246  24375444.2024   24375449.1314
     -4726.3934
  -8485262.08747  -6486882.94547  22679598.6334   22679603.4354
      -173.4334
 06  5  1  1 32 45.0060000  0  7G 1G30G 4G25G 2G 5G 6
   8089975.61946   8538088.66446  25464926.0374   25464931.5014
     -3710.3434
  -1571388.22648  -1092239.50047  22308795.5724   22308798.4634
     -3048.4224
  18422316.70644   1402891.71445  26598657.7934   26598666.8024
     -4769.0864
  -4269376.95147  -1449857.14646  24146930.5584   24146934.6044
      -164.9004
   1455235.44147   1217394.89946  24351971.5864   24351973.4094
     -3001.9214
  16102876.23847  12682827.75346  24388941.2614   24388946.4244
     -4730.5184
  -8482605.35047  -6484812.75347  22680104.1904   22680108.7774
      -180.7164
 06  5  1  1 33  0.0060000  0  7G 1G30G 4G25G 2G 5G 6
   8145685.56546   8581498.98946  25475527.3204   25475532.3244
     -3717.7124
  -1525605.50848  -1056564.65747  22317507.7194   22317510.8364
     -3056.0144
  18493890.15744   1458663.24145  26612277.8244   26612283.0874
     -4774.0914
  -4266844.79947  -1447884.03846  24147412.4024   24147416.2584
      -172.7754
   1500337.03147   1252538.98946  24360554.1494   24360556.2574
     -3011.6914
  16173863.20447  12738142.24946  24402449.6434   24402454.6844
     -4734.4724
  -8479841.86447  -6482659.37547  22680630.0624   22680634.3364
      -187.8194
 06  5  1  1 33 15.0060000  0  7G 1G30G 4G25G 2G 5G 6
   8201510.07446   8624998.62046  25486150.4074   25486154.3544
     -3725.3414
  -1479705.08448  -1020798.08847  22326242.2604   22326245.1754
     -3063.8784
  18565542.36644   1514496.02945  26625912.7904   26625920.3034
     -4779.3594
  -4264190.90647  -1445816.07146  24147917.4204   24147921.0564
      -180.9064
   1545589.06647   1287800.31346  24369165.3374   24369167.2874
     -3021.7274
  16244913.38947  12793506.00646  24415970.0454   24415975.3154
     -4738.7034
  -8476967.61247  -6480419.68847  22681177.0124   22681181.2194
      -195.2154
 06  5  1  1 33 30.0060000  0  7G 1G30G 4G25G 2G 5G 6
   8257444.69346   8668584.04345  25496794.4454   25496798.3074
     -3732.7294
  -1433690.95148   -984942.92547  22334998.4374   22335001.2414
     -3071.4594
  18637268.88144   1570386.82345  26639561.8644   26639565.1284
     -4784.3354
  -4261419.20847  -1443656.30446  24148444.8734   24148448.7434
      -188.8024
   1590987.17147   1323175.47646  24377804.3174   24377806.0564
     -3031.4934
  16316022.55047  12848915.73346  24429501.6874   24429506.6614
     -4742.6494
  -8473986.69247  -6478096.89547  22681744.2494   22681748.3824
      -202.3604
 06  5  1  1 33 45.0060000  0  7G 1G30G 4G25G 2G 5G 6
   8313487.93446   8712254.11046  25507459.1404   25507464.1494
     -3739.9114
  -1387564.64848   -949000.35247  22343775.9614   22343779.1464
     -3078.9094
  18709068.13143   1626334.23445  26653224.7914   26653228.6944
     -4789.0704
  -4258530.70247  -1441405.52946  24148994.5614   24148998.1754
      -196.5314
   1636530.00247   1358663.38846  24386470.8364   24386472.7654
     -3041.0784
  16387189.19347  12904370.23846  24443044.2734   24443048.8624
     -4746.4234
  -8470900.27147  -6475691.90047  22682331.5724   22682335.9214
      -209.3674
 06  5  1  1 34  0.0060000  0  7G 1G30G 4G25G 2G 5G 6
   8369641.81746   8756010.37346  25518144.8884   25518148.4994
     -3747.3674
  -1341323.82748   -912968.53447  22352575.2724   22352578.5604
     -3086.6134
  18780942.07843   1682339.87445  26666902.0184   26666906.1194
     -4794.1794
  -4255523.00347  -1439061.85646  24149566.9174   24149570.8374
      -204.5854
   1682219.65047   1394265.72046  24395165.2844   24395166.6354
     -3050.9604
  16458415.45747  12959871.21146  24456598.1874   24456602.9074
     -4750.4974
  -8467705.89647  -6473202.77347  22682939.4414   22682943.4754
      -216.6544
 06  5  1  1 34 15.0060000  0  8G 1G30G23G 4G25G 2G 5G 6
   8425906.22745   8799852.74246  25528851.6274   25528855.3644
     -3754.6614
  -1294968.54548   -876847.53647  22361396.3754   22361399.7394
     -3094.1984
                                  26659021.5344
       360.0594
  18852890.60843   1738403.62744  26680593.4474   26680600.9394
     -4799.0564
  -4252395.55847  -1436624.88146  24150162.0604   24150165.9194
      -212.5024
   1728056.18647   1429982.50046  24403887.6974   24403889.2914
     -3060.6744
  16529701.43347  13015418.69846  24470163.4724   24470168.3904
     -4754.3884
  -8464403.27347  -6470629.29947  22683567.9164   22683572.0664
      -223.8024
 06  5  1  1 34 30.0060000  0  8G 1G30G23G 4G25G 2G 5G 6
   8482281.89946   8843781.83846  25539579.5544   25539583.3164
     -3762.1044
  -1248497.71648   -840636.50847  22370239.4624   22370242.9894
     -3101.9274
     -3903.03143                  26658005.8934
       351.6714
  18924914.39943   1794526.02344  26694299.1644   26694299.9584
     -4804.1064
  -4249147.15647  -1434093.66246  24150780.2254   24150784.1254
      -220.6074
   1774040.41747   1465814.35446  24412638.2174   24412639.2014
     -3070.5574
  16601047.90947  13071013.33646  24483740.2694   24483745.3804
     -4758.4814
  -8460991.28047  -6467970.59847  22684217.2114   22684221.4224
      -231.1304
 06  5  1  1 34 45.0060000  0  8G 1G30G23G 4G25G 2G 5G 6
   8538770.04146   8887798.56346  25550328.9294   25550333.4604
     -3769.5974
  -1201909.86348   -804334.28247  22379104.8274   22379108.3414
     -3109.7434
     -9114.31243                  26657014.1754
       343.1994
  18997014.51743   1850707.93745  26708019.3354   26708024.8484
     -4809.2134
  -4245776.17547  -1431466.91946  24151421.7234   24151425.2724
      -228.8114
   1820173.65447   1501762.32846  24421417.0934   24421419.1584
     -3080.5064
  16672456.28547  13126656.20446  24497328.8454   24497333.6584
     -4762.6054
  -8457468.31548  -6465225.42547  22684887.6174   22684891.2114
      -238.5544
 06  5  1  1 35  0.0060000  0  8G 1G30G23G 4G25G 2G 5G 6
   8595369.05145   8931901.69046  25561099.3594   25561104.1744
     -3776.9644
  -1155206.51548   -767942.06647  22387992.1724   22387995.6944
     -3117.4204
    -14199.73544                  26656046.5604
       334.8184
  19069189.52643   1906948.16645  26721753.7464   26721760.7514
     -4814.1644
  -4242283.61647  -1428745.44646  24152086.3504   24152089.7324
      -236.9054
   1866454.38847   1537825.22246  24430224.0124   24430225.7464
     -3090.3074
  16743925.03847  13182346.12946  24510928.9224   24510934.0514
     -4766.5924
  -8453835.66047  -6462394.77047  22685578.8934   22685582.6914
      -245.8434
 06  5  1  1 35 15.0060000  0  8G 1G30G23G 4G25G 2G 5G 6
   8652078.73945   8976091.05545  25571890.8114   25571895.4364
     -3784.2984
  -1108387.74648   -731459.91147  22396901.4934   22396904.7744
     -3125.0814
    -19159.08045                  26655102.8964
       326.4454
  19141439.17243   1963246.56045  26735502.4054   26735508.4534
     -4819.0714
  -4238669.28247  -1425929.08446  24152774.1574   24152778.0394
      -244.9984
   1912882.43547   1574002.91046  24439058.9714   24439061.1164
     -3100.0834
  16815454.12047  13238083.05746  24524540.4804   24524545.2314
     -4770.5854
  -8450093.11947  -6459478.50247  22686291.0744   22686294.8794
      -253.1434
 06  5  1  1 35 30.0060000  0  8G 1G30G23G 4G25G 2G 5G 6
   8708898.17545   9020365.92845  25582703.1864   25582707.8644
     -3791.6594
  -1061454.14348   -694888.27147  22405832.6674   22405836.0354
     -3132.7884
    -23992.63745                  26654183.1454
       317.9784
  19213762.36943   2019602.24344  26749265.0914   26749269.1484
     -4824.0604
  -4234933.52747  -1423018.10646  24153485.0554   24153488.6484
      -253.1424
   1959456.98147   1610294.75146  24447921.8164   24447924.4134
     -3109.9044
  16887042.73947  13293866.37946  24538163.3584   24538168.1824
     -4774.6014
  -8446241.21547  -6456477.01647  22687024.0684   22687028.1714
      -260.4874
 06  5  1  1 35 45.0060000  0  8G 1G30G23G 4G25G 2G 5G 6
   8765827.89945   9064726.75746  25593536.5494   25593541.0634
     -3798.9114
  -1014404.89948   -658226.51747  22414785.8434   22414789.1044
     -3140.4144
    -28699.22645     -2188.88945  26653287.5744   26653290.1554
       309.5954
  19286159.77143   2076015.78044  26763041.9054   26763046.1094
     -4828.9214
  -4231075.34147  -1420011.72546  24154219.2514   24154223.0544
      -261.2524
   2006178.85947   1646701.41546  24456812.6854   24456815.3474
     -3119.6534
  16958691.59447  13349696.64446  24551797.7004   24551802.2784
     -4778.5334
  -8442278.87747  -6453389.47547  22687778.0704   22687782.2424
      -267.7764
 06  5  1  1 36  0.0060000  0  8G 1G30G23G 4G25G 2G 5G 6
   8822866.97345   9109172.76445  25604390.6614   25604396.0134
     -3806.3254
   -967240.89048   -621475.34447  22423760.8514   22423764.1914
     -3148.1714
    -33279.39544     -5757.84845  26652415.9724   26652418.7694
       301.0594
  19358630.39243   2132486.37345  26776832.6954   26776839.9714
     -4833.8924
  -4227095.02447  -1416910.18246  24154976.6804   24154980.7344
      -269.5094
   2053047.16247   1683222.16846  24465731.4114   24465733.7674
     -3129.5144
  17030399.91847  13405573.25246  24565443.3544   24565447.4204
     -4782.6164
  -8438206.79647  -6450216.42047  22688552.9524   22688557.0034
      -275.2194
 06  5  1  1 36 15.0060000  0  8G 1G30G23G 4G25G 2G 5G 6
   8880015.37545   9153703.93945  25615265.6424   25615272.0704
     -3813.4204
   -919961.96448   -584634.62847  22432757.7304   22432761.2844
     -3155.6564
    -37732.55044     -9227.81745  26651568.5604   26651570.4294
       292.7274
  19431174.16443   2189013.93045  26790637.3594   26790639.6494
     -4838.5724
  -4222992.24847  -1413713.20546  24155757.4054   24155761.4074
      -277.5064
   2100061.98147   1719857.08246  24474678.0354   24474680.3234
     -3139.1034
  17102167.68147  13461496.17446  24579100.3034   24579104.8874
     -4786.3924
  -8434024.59547  -6446957.55947  22689348.7894   22689352.9634
      -282.3784
 06  5  1  1 36 30.0060000  0  8G 1G30G23G 4G25G 2G 5G 6
   8937272.99245   9198320.27745  25626161.3954   25626166.4294
     -3820.7844
   -872567.83048   -547704.12847  22441776.5294   22441779.8384
     -3163.4384
    -42058.07344    -12598.40745  26650745.4224   26650748.8904
       284.1244
  19503791.01842   2245598.50845  26804455.8314   26804463.6464
     -4843.5034
  -4218766.56247  -1410420.46346  24156561.5214   24156565.2944
      -285.8044
   2147223.34747   1756606.19946  24483652.5504   24483654.0924
     -3148.9534
  17173994.99547  13517465.49046  24592768.5944   24592773.0474
     -4790.4574
  -8429731.86947  -6443612.58347  22690165.6474   22690169.9464
      -289.8584
 06  5  1  1 36 45.0060000  0  8G 1G30G23G 4G25G 2G 5G 6
   8994637.88845   9243020.20845  25637077.5694   25637083.3174
     -3827.8864
   -825060.31048   -510685.28147  22450816.9004   22450820.4254
     -3170.9424
    -46257.28244    -15870.41345  26649946.3134   26649947.5314
       275.7274
  19576478.85341   2302238.21444  26818287.8754   26818288.3274
     -4848.2704
  -4214419.31547  -1407032.99646  24157388.7734   24157392.4564
      -293.8744
   2194529.42147   1793468.06946  24492654.5874   24492656.2384
     -3158.5624
  17245880.13247  13573479.87646  24606447.8754   24606452.9724
     -4794.2764
  -8425330.20647  -6440182.72447  22691003.2494   22691007.6854
      -297.0884
 06  5  1  1 37  0.0060000  0  8G 1G30G23G 4G25G 2G 5G 6
   9052109.58145   9287803.30445  25648014.0764   25648019.5084
     -3835.0184
   -777439.60348   -473578.24447  22459878.8124   22459882.3864
     -3178.4794
    -50330.12544    -19044.04845  26649171.2384   26649177.2034
       267.2974
  19649237.37041   2358933.11843  26832133.4384   26832138.7544
     -4852.9384
  -4209950.60747  -1403550.87946  24158239.1384   24158242.7704
      -301.9894
   2241979.82247   1830442.41746  24501684.1014   24501685.3224
     -3168.1904
  17317822.62547  13629538.94746  24620138.0704   24620142.6944
     -4798.0934
  -8420819.78547  -6436668.09647  22691861.5454   22691866.3344
      -304.3314
 06  5  1  1 37 15.0070000  0  8G 1G30G23G 4G25G 2G 5G 6
   9109693.19945   9332673.64946  25658971.9024   25658977.0704
     -3842.2414
   -729701.14548   -436379.44447  22468963.1294   22468966.6504
     -3186.1874
    -54275.05844    -22118.00045  26648420.5034   26648424.3514
       258.6844
  19722072.44441   2415687.73344  26845993.5154   26846000.0384
     -4857.7364
  -4205358.33047  -1399972.47346  24159113.0144   24159116.6084
      -310.2594
   2289579.25347   1867532.87546  24510741.9694   24510743.3664
     -3177.9324
  17389828.75246  13685647.61046  24633840.3734   24633845.1854
     -4802.0504
  -8416198.55547  -6433067.12747  22692740.9324   22692745.2934
      -311.7434
 06  5  1  1 37 30.0070000  0  8G 1G30G23G 4G25G 2G 5G 6
   9167381.17845   9377625.33045  25669949.5724   25669953.7314
     -3849.4734
   -681850.97048   -399093.59347  22478068.7144   22478072.5884
     -3193.8564
    -58090.81745    -25091.25345  26647694.4164   26647697.9454
       250.0854
  19794974.53541   2472494.46744  26859866.3174   26859870.9424
     -4862.5834
  -4200642.42347  -1396297.72646  24160010.4124   24160013.9624
      -318.5444
   2337321.48047   1904734.60146  24519827.0094   24519828.6264
     -3187.6914
  17461889.20346  13741798.60246  24647553.0114   24647557.8654
     -4806.0114
  -8411466.66247  -6429379.92547  22693641.3764   22693645.6684
      -319.1824
 06  5  1  1 37 45.0070000  0  7G 1G30G23G25G 2G 5G 6
   9225176.30445   9422660.48445  25680947.6244   25680952.1274
     -3856.5614
   -633886.62748   -361718.78047  22487196.0354   22487199.6314
     -3201.3704
    -61778.20445    -27964.53845  26646992.7654   26646995.8484
       241.5554
  -4195803.18347                  24160931.2764
      -326.7094
   2385208.72647   1942049.33646  24528939.6324   24528941.4384
     -3197.3274
  17534007.82646  13797994.90446  24661276.7154   24661282.0304
     -4809.8364
  -8406624.48247  -6425606.85246  22694562.8104   22694567.3284
      -326.4884
 06  5  1  1 38  0.0070000  0  7G 1G30G23G25G 2G 5G 6
   9283079.91145   9467780.14845  25691966.3384   25691971.5874
     -3863.8264
   -585806.71548   -324253.91447  22496345.3444   22496348.8794
     -3209.1764
    -65335.31444    -30736.31145  26646315.8464   26646318.3804
       232.8304
  -4190838.77247                  24161875.9554
      -335.1274
   2433242.40547   1979478.15346  24538080.1294   24538080.2074
     -3207.1214
  17606186.09546  13854237.69946  24675011.7674   24675016.5144
     -4813.8554
  -8401670.24347  -6421746.32547  22695505.5734   22695509.3764
      -334.0014
 06  5  1  1 38 15.0070000  0  7G 1G30G23G25G 2G 5G 6
   9341089.30045   9512982.25345  25703005.1584   25703010.6174
     -3870.9014
   -537613.53848   -286700.77847  22505516.2134   22505519.5074
     -3216.7284
    -68764.24745    -33408.17945  26645663.3434   26645667.2004
       224.2474
  -4185751.30247      1065.74646  24162844.0534   24162848.4934
      -343.3604
   2481419.98647                  24547248.0084
     -3216.7064
  17678421.43146  13910524.95546  24688757.6784   24688762.7314
     -4817.6644
  -8396606.13747  -6417800.26147  22696469.2394   22696472.9584
      -341.3384
 06  5  1  1 38 30.0070000  0  7G 1G30G23G25G 2G 5G 6
   9399205.90745   9558267.91945  25714064.3634   25714069.9644
     -3877.9614
   -489305.62648   -249058.25547  22514708.9024   22514712.2904
     -3224.2794
    -72063.05845    -35978.62045  26645035.6104   26645039.1144
       215.6184
  -4180538.98947      5127.28146  24163835.9014   24163840.6794
      -351.5944
   2529742.95646                  24556443.5534
     -3226.3544
  17750715.42946  13966857.92346  24702514.7824   24702520.1794
     -4821.4884
  -8391430.48147  -6413767.26847  22697454.1224   22697457.8704
      -348.6954
 06  5  1  1 38 45.0070000  0  7G 1G30G23G25G 2G 5G 6
   9457428.84645   9603636.44245  25725143.8284   25725148.0264
     -3885.1104
   -440883.61248   -211326.82647  22523923.3154   22523926.6304
     -3231.9524
    -75231.86045    -38447.82345  26644432.6064   26644434.1324
       206.8884
  -4175202.05647      9285.93446  24164851.4724   24164855.7064
      -359.9824
   2578210.66946      2518.46146  24565666.6464   24565668.8684
     -3236.0444
  17823067.34246  14023236.03546  24716282.9054   24716288.2834
     -4825.4274
  -8386143.76347  -6409647.74947  22698460.1434   22698463.9824
      -356.1814
 06  5  1  1 39  0.0070000  0  7G 1G30G23G25G 2G 5G 6
   9515758.61745   9649088.22145  25736243.6114   25736248.3804
     -3892.2144
   -392346.84848   -173505.96847  22533159.5644   22533162.6394
     -3239.6234
    -78269.70045    -40814.94645  26643854.5284   26643857.1044
       198.1394
  -4169739.52047     13542.45746  24165890.9414   24165895.1644
      -368.3714
   2626823.56647     40398.59246  24574917.3624   24574920.5704
     -3245.7144
  17895477.87446  14079659.83446  24730062.1744   24730067.2704
     -4829.3244
  -8380745.12247  -6405441.01047  22699487.4584   22699491.3394
      -363.6604
 06  5  1  1 39 15.0070000  0  7G 1G30G23G25G 2G 5G 6
   9574194.70045   9694622.84145  25747363.5974   25747369.5094
     -3899.2734
   -343695.52248   -135595.84647  22542417.6204   22542421.0644
     -3247.2294
    -81176.55145    -43079.99845  26643301.3804   26643303.8404
       189.4134
  -4164151.50347     17896.75346  24166954.2984   24166958.4064
      -376.7234
   2675581.26947     78391.60746  24584195.6414   24584198.1104
     -3255.3534
  17967946.54446  14136128.91146  24743852.5154   24743858.1924
     -4833.1844
  -8375234.58147  -6401147.07947  22700536.0614   22700539.8524
      -371.0984
 06  5  1  1 39 30.0070000  0  7G 1G30G23G25G 2G 5G 6
   9632736.27345   9740239.61345  25758503.7034   25758509.4004
     -3906.3164
   -294930.23248    -97596.92347  22551697.3574   22551700.6344
     -3254.8574
    -83952.64944    -45243.14845  26642773.0644   26642774.7294
       180.6954
  -4158438.24347     22348.64646  24168041.4834   24168045.3484
      -385.0894
   2724483.24647    116497.04146  24593501.3834   24593503.0474
     -3264.9684
  18040472.70047  14192642.78246  24757653.7984   24757658.5694
     -4837.0184
  -8369612.67547  -6396766.36347  22701605.8474   22701609.8604
      -378.5574
 06  5  1  1 39 45.0070000  0  7G 1G30G23G25G 2G 5G 6
   9691382.74045   9785938.11345  25769663.7704   25769669.4274
     -3913.2294
   -246051.34848    -59509.48447  22560998.7174   22561002.1854
     -3262.3514
    -86597.92845    -47304.34545  26642269.6794   26642272.6514
       171.9984
  -4152599.81447     26898.07146  24169152.4874   24169156.2314
      -393.3924
   2773528.91947    154714.43846  24602834.4744   24602836.2304
     -3274.4814
  18113055.95546  14249201.14946  24771465.9434   24771471.4434
     -4840.7644
  -8363879.39647  -6392298.86047  22702696.8354   22702700.8974
      -385.9034
 06  5  1  1 40  0.0070000  0  7G 1G30G23G25G 2G 5G 6
   9750133.61145   9831718.01745  25780843.7404   25780847.9704
     -3920.1924
   -197059.18748    -21333.77747  22570321.6284   22570325.0694
     -3269.9034
    -89112.32745    -49263.62845  26641791.1744   26641794.6734
       163.2854
  -4146636.15147     31545.07746  24170287.3334   24170291.4664
      -401.7294
   2822717.73347    193043.38046  24612194.8054   24612196.5044
     -3284.0084
  18185696.01146  14305803.78846  24785288.9084   24785294.3574
     -4844.5444
  -8358035.04547  -6387744.81547  22703808.9684   22703813.3464
      -393.3134
 06  5  1  1 40 15.0070000  0  7G 1G30G23G25G 2G 5G 6
   9808990.69445   9877580.68245  25792043.9174   25792047.4904
     -3927.2644
   -147951.80248     16931.71947  22579666.4704   22579669.7224
     -3277.5944
    -91493.49645    -51119.08145  26641338.0344   26641338.8204
       154.3844
  -4140545.03947     36291.41246  24171446.4364   24171450.7074
      -410.2724
   2872051.76247    231485.47646  24621582.7514   24621584.8944
     -3293.7234
  18258394.71746  14362452.11946  24799123.0454   24799127.9834
     -4848.4604
  -8352077.24347  -6383102.35947  22704942.6904   22704947.1894
      -400.8954
 06  5  1  1 40 30.0070000  0  7G 1G30G23G25G 2G 5G 6
   9867953.56945   9923525.75045  25803264.2174   25803268.8344
     -3934.3824
    -98729.48248     55286.76747  22589033.1834   22589036.7634
     -3285.3244
    -93741.40545    -52870.65945  26640910.2574   26640912.0424
       145.3924
  -4134326.35747     41137.13646  24172629.8154   24172634.3424
      -418.8354
   2921530.76946    270040.53946  24630998.2984   24631000.3294
     -3303.4184
  18331151.81046  14419145.95546  24812968.2864   24812973.0854
     -4852.4144
  -8346006.26947  -6378371.73047  22706097.9564   22706102.1804
      -408.5064
 06  5  1  1 40 45.0070000  0  7G 1G30G23G25G 2G 5G 6
   9927020.39145   9969551.84245  25814504.3364   25814509.6604
     -3941.2354
    -49393.61148     93730.30147  22598421.4964   22598424.9944
     -3292.8324
    -95857.19245    -54519.29345  26640507.6354   26640509.8904
       136.6574
  -4127981.55847     46081.14846  24173837.1954   24173841.3574
      -427.1844
   2971152.73946    308707.00146  24640441.0434   24640443.8364
     -3312.8854
  18403965.53846  14475883.90746  24826824.2974   24826828.9734
     -4856.1194
  -8339823.46447  -6373553.94547  22707274.5024   22707278.3614
      -415.9144
 06  5  1  1 41  0.0070000  0  7G 1G30G23G25G 2G 5G 6
   9986189.78645  10015657.83845  25825763.9464   25825768.0774
     -3948.0544
        54.47148    132261.27347  22607831.1624   22607834.9024
     -3300.2694
    -97841.66245    -56065.62445  26640130.0204   26640131.8394
       127.8914
  -4121511.35347     51122.87046  24175068.4334   24175072.3004
      -435.5404
   3020916.57946    347484.01746  24649910.7944   24649913.4994
     -3322.3254
  18476834.75547  14532665.10446  24840690.8894   24840695.1434
     -4859.8084
  -8333529.75347  -6368649.75447  22708472.1614   22708476.2394
      -423.2884
 06  5  1  1 41 15.0070000  0  7G 1G30G23G25G 2G 5G 6
  10045462.15545  10061844.08645  25837043.1604   25837047.8684
     -3954.9844
     49615.30348    170880.10447  22617262.2804   22617265.8954
     -3307.8984
    -99693.84745    -57508.89745  26639777.5734   26639780.2174
       118.9964
  -4114915.05747     56262.83946  24176323.6674   24176327.2784
      -444.0364
   3070822.72846    386371.91346  24659407.6194   24659409.7114
     -3331.8894
  18549759.94546  14589489.92146  24854568.1174   24854571.9274
     -4863.6074
  -8327124.46847  -6363658.62947  22709691.0534   22709694.9034
      -430.8164
 06  5  1  1 41 30.0070000  0  7G 1G30G23G25G 2G 5G 6
  10104837.91845  10108110.89245  25848342.0394   25848347.6424
     -3961.7454
     99289.67048    209587.40247  22626715.0074   22626718.6594
     -3315.3334
   -101412.85545    -58848.34845  26639450.4464   26639452.4944
       110.2244
  -4108191.62347     61501.88546  24177603.1084   24177606.9644
      -452.3934
   3120871.88646    425371.26246  24668931.6504   24668932.6954
     -3341.2894
  18622741.72346  14646358.81646  24868456.0984   24868461.0244
     -4867.2594
  -8320606.66947  -6358579.81047  22710931.3544   22710935.2414
      -438.1874
 06  5  1  1 41 45.0070000  0  7G 1G30G23G25G 2G 5G 6
  10164315.61345  10154457.11045  25859660.3204   25859665.1014
     -3968.5924
    149076.27048    248382.15047  22636189.0904   22636192.4534
     -3322.8704
   -102999.49345    -60084.66545  26639148.5004   26639150.5834
       101.3344
  -4101341.95647     66839.29146  24178906.5644   24178910.3574
      -460.8924
   3171062.45346    464480.79046  24678482.5874   24678483.4794
     -3350.7844
  18695778.80546  14703270.81446  24882354.6124   24882359.4824
     -4871.0004
  -8313977.39247  -6353414.12947  22712192.8744   22712196.8304
      -445.6984
 06  5  1  1 42  0.0070000  0  7G 1G30G23G25G 2G 5G 6
  10223896.42845  10200883.75445  25870998.1854   25871002.7834
     -3975.5224
    198976.58648    287265.50847  22645684.8074   22645688.3014
     -3330.5164
   -104451.92845    -61216.43645  26638872.1164   26638874.8224
        92.3224
  -4094364.37947     72276.36546  24180234.3614   24180237.9734
      -469.4754
   3221395.84746    503701.60646  24688060.7104   24688062.3864
     -3360.3584
  18768872.49046  14760226.93246  24896263.8924   24896268.8664
     -4874.8344
  -8307235.16247  -6348160.43347  22713475.8844   22713479.9004
      -453.2954
 06  5  1  1 42 15.0070000  0  7G 1G30G23G25G 2G 5G 6
  10283580.68745  10247390.95545  25882355.6774   25882360.5964
     -3982.4074
    248991.13248    326237.88347  22655202.2504   22655205.6064
     -3338.1064
   -105769.37345    -62242.97645  26638621.4234   26638623.1154
        83.2904
  -4087258.09347     77813.73746  24181586.6394   24181590.4334
      -478.0804
   3271872.54946    543034.09046  24697666.1004   24697668.2954
     -3369.9004
  18842023.30146  14817227.54646  24910184.0484   24910189.0664
     -4878.6424
  -8300379.19447  -6342818.11147  22714780.5264   22714784.7644
      -460.8704
 06  5  1  1 42 30.0070000  0  7G 1G30G23G25G 2G 5G 6
  10343366.57145  10293977.35645  25893732.5324   25893738.0254
     -3989.1494
    299118.14548    365297.88747  22664741.1104   22664744.8164
     -3345.5704
   -106953.00245    -63165.27345  26638396.1884   26638397.7154
        74.4164
  -4080024.52447     83450.28046  24182963.1274   24182966.8754
      -486.5124
   3322490.73646    582476.81846  24707298.4204   24707300.5364
     -3379.2874
  18915229.43546  14874271.28346  24924114.7284   24924119.3674
     -4882.2754
  -8293410.98847  -6337388.32747  22716106.5234   22716110.7614
      -468.3224
 06  5  1  1 42 45.0070000  0  7G 1G30G23G25G 2G 5G 6
  10403254.44245  10340643.23945  25905128.7964   25905134.7314
     -3995.8174
    349358.09548    404445.89647  22674301.4614   22674304.9434
     -3353.0114
   -108002.03545    -63982.70845  26638196.5334   26638199.2684
        65.5614
  -4072662.71447     89186.76046  24184364.0304   24184367.9204
      -494.9824
   3373250.95046    622030.22946  24716957.7634   24716960.2014
     -3388.6324
  18988491.50146  14931358.61146  24938056.0404   24938060.4054
     -4885.8984
  -8286329.76847  -6331870.48947  22717454.0294   22717458.4054
      -475.7514
 06  5  1  1 43  0.0070000  0  7G 1G30G23G25G 2G 5G 6
  10463242.83445  10387387.43245  25916544.1774   25916550.2224
     -4002.5464
    399710.07248    443681.20447  22683883.1244   22683886.6754
     -3360.5054
   -108917.29345    -64695.87645  26638022.3204   26638025.6484
        56.5644
  -4065173.60847     95022.42346  24185789.1674   24185792.7974
      -503.4874
   3424151.73346    661693.16846  24726643.8654   24726647.1314
     -3398.0384
  19061808.20346  14988488.51246  24952007.7484   24952012.7864
     -4889.5684
  -8279136.66947  -6326265.46347  22718822.8144   22718827.2274
      -483.2244
 06  5  1  1 43 15.0070000  0  7G 1G30G23G25G 2G 5G 6
  10523331.95245  10434210.09745  25927978.7674   25927984.9044
     -4009.3294
    450174.41048    483004.05547  22693486.1684   22693489.6734
     -3368.0524
   -109697.83444    -65304.07845  26637873.7334   26637877.6274
        47.5244
  -4057556.49947    100957.83046  24187238.6604   24187242.2754
      -512.1144
   3475193.46546    701465.93746  24736356.8114   24736359.8264
     -3407.4974
  19135179.89946  15045661.24146  24965969.9264   24965975.4604
     -4893.2994
  -8271830.87547  -6320572.63247  22720213.0584   22720217.6014
      -490.8254
 06  5  1  1 43 30.0070000  0  7G 1G30G23G25G 2G 5G 6
  10583521.09545  10481110.72945  25939432.4134   25939438.0784
     -4015.9704
    500750.63448    522414.09747  22703110.5064   22703113.9044
     -3375.4874
   -110343.90844    -65807.45845  26637750.7514   26637752.6444
        38.5644
  -4049811.51047    106992.89046  24188712.4784   24188716.2024
      -520.6274
   3526375.53346    741348.06846  24746096.4554   24746098.7224
     -3416.8414
  19208606.07446  15102876.43446  24979942.4724   24979947.1304
     -4896.9144
  -8264412.86347  -6314792.36647  22721624.6504   22721629.2124
      -498.2954
 06  5  1  1 43 45.0070000  0  7G 1G30G23G25G 2G 5G 6
  10643810.37645  10528089.38145  25950905.1024   25950911.0244
     -4022.6234
    551438.88948    561911.43947  22712756.1624   22712759.6944
     -3382.9554
   -110854.79344    -66205.53145  26637653.4834   26637656.3064
        29.5424
  -4041938.19647    113127.93246  24190210.7394   24190214.5004
      -529.1874
   3577698.12346    781339.69346  24755862.8184   24755865.0484
     -3426.1914
  19282086.92546  15160134.22146  24993925.4314   24993929.8914
     -4900.5454
  -8256882.10247  -6308924.24047  22723057.7044   22723062.3354
      -505.8204
